| time (UTC) | temp F | wind direction | speed MPH | gust MPH | rain 1hr in | rain 24hr in | rain mn in | humidity % | barometer mb |
| 20260905222736 | 101 | 175 | 3.0 | 0.0 | 0.00 | 0.00 | 0.00 | 47 | 1001.9 |
| 20260905222654 | 101 | 235 | 3.0 | 0.0 | 0.00 | 0.00 | 0.00 | 47 | 1001.9 |
| 20260905222615 | 101 | 119 | 3.0 | 0.0 | 0.00 | 0.00 | 0.00 | 47 | 1001.9 |
| 20260905222446 | 101 | 194 | 4.0 | 0.0 | 0.00 | 0.00 | 0.00 | 47 | 1001.9 |
| 20260905222348 | 101 | 220 | 3.0 | 0.0 | 0.00 | 0.00 | 0.00 | 47 | 1001.9 |
| 20260905222248 | 101 | 173 | 3.0 | 0.0 | 0.00 | 0.00 | 0.00 | 47 | 1001.9 |
| 20260905222150 | 101 | 188 | 2.0 | 0.0 | 0.00 | 0.00 | 0.00 | 46 | 1001.9 |
| 20260905222101 | 101 | 189 | 2.0 | 0.0 | 0.00 | 0.00 | 0.00 | 45 | 1001.8 |
| 20260905221942 | 101 | 161 | 2.0 | 0.0 | 0.00 | 0.00 | 0.00 | 45 | 1001.8 |
| 20260905221854 | 101 | 206 | 2.0 | 0.0 | 0.00 | 0.00 | 0.00 | 44 | 1001.8 |
| 20260905221758 | 101 | 178 | 2.0 | 0.0 | 0.00 | 0.00 | 0.00 | 44 | 1001.8 |
| 20260905221649 | 101 | 288 | 2.0 | 0.0 | 0.00 | 0.00 | 0.00 | 44 | 1001.8 |
| 20260905221551 | 101 | 192 | 2.0 | 0.0 | 0.00 | 0.00 | 0.00 | 44 | 1001.8 |
| 20260905221447 | 101 | 178 | 2.0 | 0.0 | 0.00 | 0.00 | 0.00 | 44 | 1001.8 |
| 20260905221347 | 101 | 161 | 2.0 | 0.0 | 0.00 | 0.00 | 0.00 | 44 | 1001.8 |
| 20260905221238 | 101 | 214 | 2.0 | 0.0 | 0.00 | 0.00 | 0.00 | 44 | 1001.8 |
| 20260905221203 | 101 | 210 | 2.0 | 0.0 | 0.00 | 0.00 | 0.00 | 44 | 1001.8 |
| 20260905221057 | 101 | 119 | 2.0 | 0.0 | 0.00 | 0.00 | 0.00 | 44 | 1001.8 |
| 20260905220956 | 101 | 69 | 2.0 | 0.0 | 0.00 | 0.00 | 0.00 | 44 | 1001.8 |
| 20260905220859 | 101 | 92 | 2.0 | 0.0 | 0.00 | 0.00 | 0.00 | 44 | 1001.8 |
| 20260905220813 | 101 | 254 | 2.0 | 0.0 | 0.00 | 0.00 | 0.00 | 44 | 1001.8 |
| 20260905220656 | 102 | 195 | 2.0 | 0.0 | 0.00 | 0.00 | 0.00 | 44 | 1001.8 |
| 20260905220618 | 102 | 153 | 2.0 | 0.0 | 0.00 | 0.00 | 0.00 | 44 | 1001.4 |
| 20260905220519 | 102 | 159 | 2.0 | 0.0 | 0.00 | 0.00 | 0.00 | 44 | 1001.4 |
| 20260905220334 | 102 | 188 | 2.0 | 0.0 | 0.00 | 0.00 | 0.00 | 44 | 1001.4 |
| 20260905220301 | 102 | 211 | 2.0 | 0.0 | 0.00 | 0.00 | 0.00 | 44 | 1001.4 |
| 20260905220154 | 102 | 242 | 2.0 | 0.0 | 0.00 | 0.00 | 0.00 | 44 | 1001.4 |
| 20260905220121 | 102 | 175 | 2.0 | 0.0 | 0.00 | 0.00 | 0.00 | 44 | 1001.4 |
| 20260905220024 | 102 | 222 | 2.0 | 0.0 | 0.00 | 0.00 | 0.00 | 44 | 1001.4 |
| 20260905215856 | 102 | 139 | 2.0 | 0.0 | 0.00 | 0.00 | 0.00 | 44 | 1001.4 |
| 20260905215817 | 102 | 182 | 2.0 | 0.0 | 0.00 | 0.00 | 0.00 | 44 | 1001.4 |
| 20260905215650 | 102 | 171 | 2.0 | 0.0 | 0.00 | 0.00 | 0.00 | 44 | 1001.4 |
| 20260905215555 | 102 | 99 | 2.0 | 0.0 | 0.00 | 0.00 | 0.00 | 44 | 1001.4 |
| 20260905215448 | 102 | 183 | 2.0 | 0.0 | 0.00 | 0.00 | 0.00 | 44 | 1001.4 |
| 20260905215353 | 102 | 80 | 1.0 | 0.0 | 0.00 | 0.00 | 0.00 | 44 | 1001.4 |
| 20260905215248 | 102 | 161 | 1.0 | 0.0 | 0.00 | 0.00 | 0.00 | 44 | 1001.4 |
| 20260905215141 | 102 | 277 | 1.0 | 0.0 | 0.00 | 0.00 | 0.00 | 44 | 1001.4 |
| 20260905215044 | 102 | 213 | 1.0 | 0.0 | 0.00 | 0.00 | 0.00 | 43 | 1001.9 |
| 20260905215004 | 102 | 188 | 1.0 | 0.0 | 0.00 | 0.00 | 0.00 | 43 | 1001.9 |
| 20260905214858 | 102 | 213 | 1.0 | 0.0 | 0.00 | 0.00 | 0.00 | 42 | 1001.9 |
| 20260905214802 | 102 | 161 | 1.0 | 0.0 | 0.00 | 0.00 | 0.00 | 42 | 1001.9 |
| 20260905214653 | 102 | 262 | 1.0 | 0.0 | 0.00 | 0.00 | 0.00 | 42 | 1001.9 |
| 20260905214615 | 102 | 136 | 1.0 | 0.0 | 0.00 | 0.00 | 0.00 | 43 | 1001.9 |
| 20260905214450 | 102 | 212 | 2.0 | 0.0 | 0.00 | 0.00 | 0.00 | 43 | 1001.9 |
| 20260905214342 | 102 | 280 | 2.0 | 0.0 | 0.00 | 0.00 | 0.00 | 44 | 1001.9 |
| 20260905214243 | 102 | 197 | 2.0 | 0.0 | 0.00 | 0.00 | 0.00 | 44 | 1001.9 |
| 20260905214202 | 102 | 192 | 2.0 | 0.0 | 0.00 | 0.00 | 0.00 | 44 | 1001.9 |
| 20260905214101 | 102 | 280 | 2.0 | 0.0 | 0.00 | 0.00 | 0.00 | 44 | 1001.9 |
| 20260905214004 | 102 | 229 | 2.0 | 0.0 | 0.00 | 0.00 | 0.00 | 44 | 1001.9 |
| 20260905213848 | 102 | 216 | 2.0 | 0.0 | 0.00 | 0.00 | 0.00 | 45 | 1001.9 |
| 20260905213813 | 102 | 44 | 2.0 | 0.0 | 0.00 | 0.00 | 0.00 | 45 | 1001.9 |
| 20260905213055 | 102 | 88 | 1.0 | 0.0 | 0.00 | 0.00 | 0.00 | 45 | 1002.3 |
| 20260905212947 | 102 | 299 | 1.0 | 0.0 | 0.00 | 0.00 | 0.00 | 45 | 1002.3 |
| 20260905212848 | 102 | 165 | 1.0 | 0.0 | 0.00 | 0.00 | 0.00 | 45 | 1002.3 |
| 20260905212751 | 102 | 197 | 1.0 | 0.0 | 0.00 | 0.00 | 0.00 | 45 | 1002.3 |
| 20260905212712 | 102 | 140 | 1.0 | 0.0 | 0.00 | 0.00 | 0.00 | 45 | 1002.3 |
| 20260905212541 | 101 | 240 | 1.0 | 0.0 | 0.00 | 0.00 | 0.00 | 45 | 1002.3 |
| 20260905212447 | 101 | 100 | 1.0 | 0.0 | 0.00 | 0.00 | 0.00 | 45 | 1002.3 |
| 20260905212357 | 101 | 106 | 1.0 | 0.0 | 0.00 | 0.00 | 0.00 | 45 | 1002.3 |
| 20260905212258 | 101 | 221 | 1.0 | 0.0 | 0.00 | 0.00 | 0.00 | 45 | 1002.3 |
| 20260905212152 | 101 | 171 | 1.0 | 0.0 | 0.00 | 0.00 | 0.00 | 46 | 1002.3 |
| 20260905212050 | 101 | 235 | 1.0 | 0.0 | 0.00 | 0.00 | 0.00 | 46 | 1002.4 |
| 20260905211952 | 101 | 222 | 1.0 | 0.0 | 0.00 | 0.00 | 0.00 | 46 | 1002.4 |
| 20260905211847 | 101 | 107 | 1.0 | 0.0 | 0.00 | 0.00 | 0.00 | 45 | 1002.4 |
| 20260905211742 | 101 | 66 | 1.0 | 0.0 | 0.00 | 0.00 | 0.00 | 45 | 1002.4 |
| 20260905211645 | 102 | 87 | 1.0 | 0.0 | 0.00 | 0.00 | 0.00 | 45 | 1002.4 |
| 20260905211544 | 102 | 87 | 1.0 | 0.0 | 0.00 | 0.00 | 0.00 | 46 | 1002.4 |
| 20260905211445 | 102 | 107 | 2.0 | 0.0 | 0.00 | 0.00 | 0.00 | 46 | 1002.4 |
| 20260905211336 | 102 | 74 | 2.0 | 0.0 | 0.00 | 0.00 | 0.00 | 46 | 1002.4 |
| 20260905211247 | 102 | 281 | 2.0 | 0.0 | 0.00 | 0.00 | 0.00 | 46 | 1002.4 |
| 20260905211204 | 102 | 103 | 2.0 | 0.0 | 0.00 | 0.00 | 0.00 | 45 | 1002.4 |
| 20260905211047 | 102 | 178 | 2.0 | 0.0 | 0.00 | 0.00 | 0.00 | 45 | 1002.4 |
| 20260905210946 | 102 | 292 | 2.0 | 0.0 | 0.00 | 0.00 | 0.00 | 45 | 1002.4 |
| 20260905210911 | 102 | 255 | 2.0 | 0.0 | 0.00 | 0.00 | 0.00 | 45 | 1002.4 |
| 20260905210826 | 102 | 261 | 2.0 | 0.0 | 0.00 | 0.00 | 0.00 | 45 | 1002.4 |
| 20260905210726 | 102 | 68 | 2.0 | 0.0 | 0.00 | 0.00 | 0.00 | 46 | 1002.4 |
| 20260905210626 | 102 | 192 | 2.0 | 0.0 | 0.00 | 0.00 | 0.00 | 46 | 1002.4 |
| 20260905210444 | 102 | 230 | 1.0 | 0.0 | 0.00 | 0.00 | 0.00 | 46 | 1002.7 |
| 20260905210336 | 102 | 188 | 1.0 | 0.0 | 0.00 | 0.00 | 0.00 | 45 | 1002.7 |
| 20260905210304 | 102 | 222 | 1.0 | 0.0 | 0.00 | 0.00 | 0.00 | 45 | 1002.7 |
| 20260905210156 | 102 | 167 | 1.0 | 0.0 | 0.00 | 0.00 | 0.00 | 45 | 1002.7 |
| 20260905210056 | 102 | 215 | 1.0 | 0.0 | 0.00 | 0.00 | 0.00 | 45 | 1002.7 |
| 20260905205949 | 103 | 100 | 2.0 | 0.0 | 0.00 | 0.00 | 0.00 | 45 | 1002.7 |
| 20260905205841 | 103 | 202 | 2.0 | 0.0 | 0.00 | 0.00 | 0.00 | 45 | 1002.7 |
| 20260905205740 | 103 | 107 | 2.0 | 0.0 | 0.00 | 0.00 | 0.00 | 45 | 1002.7 |
| 20260905205644 | 103 | 107 | 2.0 | 0.0 | 0.00 | 0.00 | 0.00 | 45 | 1002.7 |
| 20260905205552 | 103 | 107 | 1.0 | 0.0 | 0.00 | 0.00 | 0.00 | 45 | 1002.7 |
| 20260905205445 | 103 | 109 | 1.0 | 0.0 | 0.00 | 0.00 | 0.00 | 45 | 1002.7 |
| 20260905205406 | 103 | 126 | 1.0 | 0.0 | 0.00 | 0.00 | 0.00 | 46 | 1002.7 |
| 20260905205258 | 102 | 188 | 1.0 | 0.0 | 0.00 | 0.00 | 0.00 | 46 | 1002.7 |
| 20260905205148 | 102 | 32 | 1.0 | 0.0 | 0.00 | 0.00 | 0.00 | 46 | 1002.7 |
| 20260905205108 | 102 | 144 | 1.0 | 0.0 | 0.00 | 0.00 | 0.00 | 46 | 1003.0 |
| 20260905204938 | 102 | 80 | 0.0 | 0.0 | 0.00 | 0.00 | 0.00 | 47 | 1003.0 |
| 20260905204845 | 102 | 11 | 0.0 | 0.0 | 0.00 | 0.00 | 0.00 | 47 | 1003.0 |
| 20260905204808 | 102 | 218 | 0.0 | 0.0 | 0.00 | 0.00 | 0.00 | 47 | 1003.0 |
| 20260905204647 | 102 | 218 | 0.0 | 0.0 | 0.00 | 0.00 | 0.00 | 47 | 1003.0 |
| 20260905204543 | 102 | 218 | 1.0 | 0.0 | 0.00 | 0.00 | 0.00 | 47 | 1003.0 |
| 20260905204445 | 102 | 235 | 1.0 | 0.0 | 0.00 | 0.00 | 0.00 | 46 | 1003.0 |
| 20260905204357 | 102 | 193 | 1.0 | 0.0 | 0.00 | 0.00 | 0.00 | 46 | 1003.0 |
| 20260905204258 | 102 | 169 | 1.0 | 0.0 | 0.00 | 0.00 | 0.00 | 46 | 1003.0 |
| 20260905204151 | 102 | 231 | 1.0 | 0.0 | 0.00 | 0.00 | 0.00 | 46 | 1003.0 |
| 20260905204056 | 103 | 246 | 1.0 | 0.0 | 0.00 | 0.00 | 0.00 | 46 | 1003.0 |
| 20260905203951 | 103 | 213 | 1.0 | 0.0 | 0.00 | 0.00 | 0.00 | 46 | 1003.0 |
| 20260905203851 | 103 | 158 | 1.0 | 0.0 | 0.00 | 0.00 | 0.00 | 46 | 1003.0 |
| 20260905203743 | 103 | 300 | 1.0 | 0.0 | 0.00 | 0.00 | 0.00 | 46 | 1003.0 |
| 20260905203707 | 103 | 280 | 1.0 | 0.0 | 0.00 | 0.00 | 0.00 | 46 | 1003.0 |
| 20260905203558 | 103 | 255 | 1.0 | 0.0 | 0.00 | 0.00 | 0.00 | 46 | 1003.0 |
| 20260905203453 | 103 | 93 | 1.0 | 0.0 | 0.00 | 0.00 | 0.00 | 46 | 1003.4 |
| 20260905203359 | 103 | 217 | 1.0 | 0.0 | 0.00 | 0.00 | 0.00 | 45 | 1003.4 |
| 20260905203311 | 103 | 207 | 1.0 | 0.0 | 0.00 | 0.00 | 0.00 | 46 | 1003.4 |
| 20260905203150 | 103 | 220 | 0.0 | 0.0 | 0.00 | 0.00 | 0.00 | 46 | 1003.4 |
| 20260905203043 | 103 | 181 | 0.0 | 0.0 | 0.00 | 0.00 | 0.00 | 47 | 1003.4 |
| 20260905202944 | 103 | 105 | 0.0 | 0.0 | 0.00 | 0.00 | 0.00 | 47 | 1003.4 |
| 20260905202859 | 102 | 207 | 0.0 | 0.0 | 0.00 | 0.00 | 0.00 | 47 | 1003.4 |
| 20260905202800 | 102 | 167 | 1.0 | 0.0 | 0.00 | 0.00 | 0.00 | 47 | 1003.4 |
| 20260905202655 | 102 | 171 | 1.0 | 0.0 | 0.00 | 0.00 | 0.00 | 47 | 1003.4 |
| 20260905202622 | 102 | 65 | 1.0 | 0.0 | 0.00 | 0.00 | 0.00 | 47 | 1003.4 |
| 20260905202439 | 103 | 86 | 1.0 | 0.0 | 0.00 | 0.00 | 0.00 | 46 | 1003.4 |
| 20260905202358 | 103 | 88 | 1.0 | 0.0 | 0.00 | 0.00 | 0.00 | 47 | 1003.4 |
| 20260905202319 | 103 | 173 | 1.0 | 0.0 | 0.00 | 0.00 | 0.00 | 46 | 1003.4 |
| 20260905202155 | 103 | 248 | 1.0 | 0.0 | 0.00 | 0.00 | 0.00 | 46 | 1003.4 |
| 20260905202056 | 103 | 222 | 1.0 | 0.0 | 0.00 | 0.00 | 0.00 | 46 | 1003.5 |
| 20260905202008 | 103 | 78 | 1.0 | 0.0 | 0.00 | 0.00 | 0.00 | 46 | 1003.5 |
| 20260905201852 | 103 | 198 | 1.0 | 0.0 | 0.00 | 0.00 | 0.00 | 46 | 1003.5 |
| 20260905201748 | 103 | 228 | 1.0 | 0.0 | 0.00 | 0.00 | 0.00 | 46 | 1003.6 |
| 20260905201709 | 103 | 215 | 1.0 | 0.0 | 0.00 | 0.00 | 0.00 | 47 | 1003.5 |
| 20260905201542 | 104 | 135 | 1.0 | 0.0 | 0.00 | 0.00 | 0.00 | 46 | 1003.6 |
| 20260905201455 | 104 | 229 | 1.0 | 0.0 | 0.00 | 0.00 | 0.00 | 46 | 1003.6 |
| 20260905201400 | 104 | 347 | 1.0 | 0.0 | 0.00 | 0.00 | 0.00 | 46 | 1003.6 |
| 20260905201254 | 104 | 62 | 1.0 | 0.0 | 0.00 | 0.00 | 0.00 | 46 | 1003.6 |
| 20260905201159 | 104 | 262 | 1.0 | 0.0 | 0.00 | 0.00 | 0.00 | 47 | 1003.6 |
| 20260905201054 | 104 | 188 | 1.0 | 0.0 | 0.00 | 0.00 | 0.00 | 46 | 1003.6 |
| 20260905201021 | 104 | 189 | 1.0 | 0.0 | 0.00 | 0.00 | 0.00 | 46 | 1003.6 |
| 20260905200856 | 104 | 232 | 2.0 | 0.0 | 0.00 | 0.00 | 0.00 | 47 | 1003.6 |
| 20260905200747 | 104 | 90 | 2.0 | 0.0 | 0.00 | 0.00 | 0.00 | 47 | 1003.6 |
| 20260905200654 | 104 | 46 | 2.0 | 0.0 | 0.00 | 0.00 | 0.00 | 46 | 1003.6 |
| 20260905200554 | 103 | 219 | 2.0 | 0.0 | 0.00 | 0.00 | 0.00 | 45 | 1003.9 |
| 20260905200445 | 104 | 179 | 2.0 | 0.0 | 0.00 | 0.00 | 0.00 | 45 | 1003.9 |
| 20260905200350 | 104 | 216 | 2.0 | 0.0 | 0.00 | 0.00 | 0.00 | 45 | 1003.9 |
| 20260905200249 | 104 | 229 | 2.0 | 0.0 | 0.00 | 0.00 | 0.00 | 45 | 1003.9 |
| 20260905200210 | 104 | 165 | 2.0 | 0.0 | 0.00 | 0.00 | 0.00 | 45 | 1003.9 |
| 20260905200100 | 104 | 184 | 2.0 | 0.0 | 0.00 | 0.00 | 0.00 | 45 | 1003.9 |
| 20260905200007 | 104 | 225 | 2.0 | 0.0 | 0.00 | 0.00 | 0.00 | 45 | 1003.9 |
| 20260905195929 | 104 | 168 | 2.0 | 0.0 | 0.00 | 0.00 | 0.00 | 46 | 1003.9 |
| 20260905195759 | 104 | 212 | 2.0 | 0.0 | 0.00 | 0.00 | 0.00 | 46 | 1003.9 |
| 20260905195659 | 104 | 220 | 2.0 | 0.0 | 0.00 | 0.00 | 0.00 | 46 | 1003.9 |
| 20260905195552 | 104 | 215 | 2.0 | 0.0 | 0.00 | 0.00 | 0.00 | 46 | 1003.9 |
| 20260905195500 | 104 | 215 | 2.0 | 0.0 | 0.00 | 0.00 | 0.00 | 45 | 1003.9 |
| 20260905195336 | 104 | 143 | 2.0 | 0.0 | 0.00 | 0.00 | 0.00 | 46 | 1003.9 |
| 20260905195251 | 104 | 209 | 2.0 | 0.0 | 0.00 | 0.00 | 0.00 | 46 | 1003.9 |
| 20260905195152 | 104 | 69 | 2.0 | 0.0 | 0.00 | 0.00 | 0.00 | 46 | 1003.9 |
| 20260905195047 | 104 | 19 | 2.0 | 0.0 | 0.00 | 0.00 | 0.00 | 46 | 1004.1 |
| 20260905194948 | 104 | 98 | 2.0 | 0.0 | 0.00 | 0.00 | 0.00 | 46 | 1004.1 |
| 20260905194841 | 103 | 150 | 1.0 | 0.0 | 0.00 | 0.00 | 0.00 | 46 | 1004.1 |
| 20260905194735 | 103 | 183 | 1.0 | 0.0 | 0.00 | 0.00 | 0.00 | 47 | 1004.1 |
| 20260905194646 | 103 | 59 | 1.0 | 0.0 | 0.00 | 0.00 | 0.00 | 48 | 1004.1 |
| 20260905194541 | 103 | 188 | 1.0 | 0.0 | 0.00 | 0.00 | 0.00 | 48 | 1004.1 |
| 20260905194502 | 103 | 217 | 1.0 | 0.0 | 0.00 | 0.00 | 0.00 | 47 | 1004.1 |
| 20260905194354 | 103 | 209 | 1.0 | 0.0 | 0.00 | 0.00 | 0.00 | 47 | 1004.1 |
| 20260905194256 | 103 | 231 | 1.0 | 0.0 | 0.00 | 0.00 | 0.00 | 47 | 1004.1 |
| 20260905194150 | 103 | 107 | 0.0 | 0.0 | 0.00 | 0.00 | 0.00 | 47 | 1004.1 |
| 20260905194111 | 103 | 206 | 0.0 | 0.0 | 0.00 | 0.00 | 0.00 | 47 | 1004.1 |
| 20260905194006 | 104 | 92 | 1.0 | 0.0 | 0.00 | 0.00 | 0.00 | 46 | 1004.1 |
| 20260905193851 | 104 | 68 | 1.0 | 0.0 | 0.00 | 0.00 | 0.00 | 46 | 1004.1 |
| 20260905193743 | 104 | 194 | 1.0 | 0.0 | 0.00 | 0.00 | 0.00 | 46 | 1004.1 |
| 20260905193639 | 104 | 63 | 1.0 | 0.0 | 0.00 | 0.00 | 0.00 | 46 | 1004.1 |
| 20260905193547 | 104 | 254 | 1.0 | 0.0 | 0.00 | 0.00 | 0.00 | 46 | 1004.4 |
| 20260905193458 | 104 | 188 | 1.0 | 0.0 | 0.00 | 0.00 | 0.00 | 46 | 1004.4 |
| 20260905193400 | 104 | 183 | 1.0 | 0.0 | 0.00 | 0.00 | 0.00 | 46 | 1004.4 |
| 20260905193251 | 104 | 207 | 2.0 | 0.0 | 0.00 | 0.00 | 0.00 | 45 | 1004.4 |
| 20260905193149 | 103 | 90 | 2.0 | 0.0 | 0.00 | 0.00 | 0.00 | 46 | 1004.4 |
| 20260905193052 | 103 | 187 | 2.0 | 0.0 | 0.00 | 0.00 | 0.00 | 46 | 1004.4 |
| 20260905192943 | 103 | 167 | 1.0 | 0.0 | 0.00 | 0.00 | 0.00 | 46 | 1004.4 |
| 20260905192844 | 103 | 263 | 1.0 | 0.0 | 0.00 | 0.00 | 0.00 | 46 | 1004.4 |
| 20260905192800 | 103 | 153 | 1.0 | 0.0 | 0.00 | 0.00 | 0.00 | 46 | 1004.4 |
| 20260905192700 | 103 | 229 | 1.0 | 0.0 | 0.00 | 0.00 | 0.00 | 47 | 1004.4 |
| 20260905192603 | 103 | 134 | 1.0 | 0.0 | 0.00 | 0.00 | 0.00 | 47 | 1004.4 |
| 20260905192454 | 103 | 181 | 1.0 | 0.0 | 0.00 | 0.00 | 0.00 | 46 | 1004.4 |
| 20260905192350 | 103 | 182 | 1.0 | 0.0 | 0.00 | 0.00 | 0.00 | 47 | 1004.4 |
| 20260905192255 | 103 | 176 | 1.0 | 0.0 | 0.00 | 0.00 | 0.00 | 47 | 1004.4 |
| 20260905192207 | 103 | 217 | 1.0 | 0.0 | 0.00 | 0.00 | 0.00 | 47 | 1004.4 |
| 20260905192108 | 103 | 217 | 1.0 | 0.0 | 0.00 | 0.00 | 0.00 | 47 | 1004.5 |
| 20260905192008 | 103 | 197 | 1.0 | 0.0 | 0.00 | 0.00 | 0.00 | 47 | 1004.5 |
| 20260905191841 | 103 | 68 | 2.0 | 0.0 | 0.00 | 0.00 | 0.00 | 48 | 1004.5 |
| 20260905191754 | 103 | 268 | 2.0 | 0.0 | 0.00 | 0.00 | 0.00 | 48 | 1004.5 |
| 20260905191655 | 103 | 262 | 2.0 | 0.0 | 0.00 | 0.00 | 0.00 | 48 | 1004.5 |
| 20260905191546 | 103 | 195 | 2.0 | 0.0 | 0.00 | 0.00 | 0.00 | 48 | 1004.5 |
| 20260905191453 | 103 | 214 | 2.0 | 0.0 | 0.00 | 0.00 | 0.00 | 48 | 1004.5 |
| 20260905191353 | 103 | 235 | 2.0 | 0.0 | 0.00 | 0.00 | 0.00 | 48 | 1004.5 |
| 20260905191244 | 103 | 236 | 2.0 | 0.0 | 0.00 | 0.00 | 0.00 | 48 | 1004.5 |
| 20260905191150 | 103 | 179 | 2.0 | 0.0 | 0.00 | 0.00 | 0.00 | 49 | 1004.5 |
| 20260905191045 | 103 | 166 | 2.0 | 0.0 | 0.00 | 0.00 | 0.00 | 49 | 1004.5 |
| 20260905190947 | 103 | 176 | 2.0 | 0.0 | 0.00 | 0.00 | 0.00 | 49 | 1004.5 |
| 20260905190838 | 103 | 209 | 1.0 | 0.0 | 0.00 | 0.00 | 0.00 | 48 | 1004.5 |
| 20260905190747 | 103 | 187 | 1.0 | 0.0 | 0.00 | 0.00 | 0.00 | 49 | 1004.5 |
| 20260905190639 | 103 | 187 | 1.0 | 0.0 | 0.00 | 0.00 | 0.00 | 49 | 1004.5 |
| 20260905190554 | 103 | 98 | 1.0 | 0.0 | 0.00 | 0.00 | 0.00 | 48 | 1004.8 |
| 20260905190502 | 103 | 57 | 2.0 | 0.0 | 0.00 | 0.00 | 0.00 | 47 | 1004.8 |
| 20260905190354 | 103 | 146 | 2.0 | 0.0 | 0.00 | 0.00 | 0.00 | 48 | 1004.8 |
| 20260905190250 | 103 | 296 | 2.0 | 0.0 | 0.00 | 0.00 | 0.00 | 48 | 1004.8 |
| 20260905190154 | 103 | 68 | 1.0 | 0.0 | 0.00 | 0.00 | 0.00 | 48 | 1004.8 |
| 20260905190049 | 103 | 92 | 1.0 | 0.0 | 0.00 | 0.00 | 0.00 | 48 | 1004.8 |
| 20260905185954 | 103 | 219 | 1.0 | 0.0 | 0.00 | 0.00 | 0.00 | 48 | 1004.8 |
| 20260905185845 | 103 | 78 | 1.0 | 0.0 | 0.00 | 0.00 | 0.00 | 48 | 1004.8 |
| 20260905185806 | 103 | 186 | 1.0 | 0.0 | 0.00 | 0.00 | 0.00 | 48 | 1004.8 |
| 20260905185658 | 103 | 202 | 1.0 | 0.0 | 0.00 | 0.00 | 0.00 | 48 | 1004.8 |
| 20260905185549 | 103 | 131 | 1.0 | 0.0 | 0.00 | 0.00 | 0.00 | 48 | 1004.8 |
| 20260905185455 | 103 | 198 | 1.0 | 0.0 | 0.00 | 0.00 | 0.00 | 48 | 1004.8 |
| 20260905185343 | 102 | 150 | 1.0 | 0.0 | 0.00 | 0.00 | 0.00 | 48 | 1004.8 |
| 20260905185247 | 102 | 182 | 1.0 | 0.0 | 0.00 | 0.00 | 0.00 | 49 | 1004.8 |
| 20260905185209 | 102 | 213 | 1.0 | 0.0 | 0.00 | 0.00 | 0.00 | 49 | 1004.8 |
| 20260905185039 | 102 | 99 | 1.0 | 0.0 | 0.00 | 0.00 | 0.00 | 49 | 1005.0 |
| 20260905184958 | 102 | 126 | 1.0 | 0.0 | 0.00 | 0.00 | 0.00 | 49 | 1005.0 |
| 20260905184900 | 102 | 209 | 1.0 | 0.0 | 0.00 | 0.00 | 0.00 | 50 | 1005.0 |
| 20260905184752 | 102 | 244 | 1.0 | 0.0 | 0.00 | 0.00 | 0.00 | 50 | 1005.0 |
| 20260905184651 | 102 | 190 | 1.0 | 0.0 | 0.00 | 0.00 | 0.00 | 50 | 1005.0 |
| 20260905184547 | 102 | 264 | 1.0 | 0.0 | 0.00 | 0.00 | 0.00 | 49 | 1005.0 |
| 20260905184450 | 102 | 215 | 1.0 | 0.0 | 0.00 | 0.00 | 0.00 | 50 | 1005.0 |
| 20260905184410 | 102 | 86 | 1.0 | 0.0 | 0.00 | 0.00 | 0.00 | 50 | 1005.0 |
| 20260905184252 | 103 | 229 | 2.0 | 0.0 | 0.00 | 0.00 | 0.00 | 50 | 1005.0 |
| 20260905184146 | 103 | 193 | 2.0 | 0.0 | 0.00 | 0.00 | 0.00 | 50 | 1005.0 |
| 20260905184037 | 103 | 164 | 2.0 | 0.0 | 0.00 | 0.00 | 0.00 | 50 | 1005.0 |
| 20260905183944 | 103 | 215 | 2.0 | 0.0 | 0.00 | 0.00 | 0.00 | 50 | 1005.0 |
| 20260905183838 | 102 | 201 | 2.0 | 0.0 | 0.00 | 0.00 | 0.00 | 50 | 1005.0 |
| 20260905183743 | 102 | 201 | 2.0 | 0.0 | 0.00 | 0.00 | 0.00 | 50 | 1005.0 |
| 20260905183649 | 102 | 201 | 2.0 | 0.0 | 0.00 | 0.00 | 0.00 | 50 | 1005.0 |
| 20260905183550 | 102 | 201 | 1.0 | 0.0 | 0.00 | 0.00 | 0.00 | 50 | 1005.2 |
| 20260905183451 | 102 | 201 | 2.0 | 0.0 | 0.00 | 0.00 | 0.00 | 50 | 1005.2 |
| 20260905183417 | 102 | 201 | 2.0 | 0.0 | 0.00 | 0.00 | 0.00 | 50 | 1005.2 |
| 20260905183324 | 102 | 201 | 1.0 | 0.0 | 0.00 | 0.00 | 0.00 | 50 | 1005.2 |
| 20260905183158 | 102 | 157 | 1.0 | 0.0 | 0.00 | 0.00 | 0.00 | 51 | 1005.2 |
| 20260905183058 | 102 | 211 | 1.0 | 0.0 | 0.00 | 0.00 | 0.00 | 52 | 1005.2 |
| 20260905182955 | 102 | 220 | 1.0 | 0.0 | 0.00 | 0.00 | 0.00 | 52 | 1005.2 |
| 20260905182847 | 102 | 161 | 1.0 | 0.0 | 0.00 | 0.00 | 0.00 | 52 | 1005.2 |
| 20260905182749 | 102 | 254 | 1.0 | 0.0 | 0.00 | 0.00 | 0.00 | 52 | 1005.2 |
| 20260905182641 | 102 | 178 | 2.0 | 0.0 | 0.00 | 0.00 | 0.00 | 51 | 1005.2 |
| 20260905182602 | 102 | 233 | 2.0 | 0.0 | 0.00 | 0.00 | 0.00 | 51 | 1005.2 |
| 20260905182453 | 102 | 179 | 2.0 | 0.0 | 0.00 | 0.00 | 0.00 | 51 | 1005.2 |
| 20260905182346 | 102 | 150 | 2.0 | 0.0 | 0.00 | 0.00 | 0.00 | 52 | 1005.2 |
| 20260905182252 | 101 | 216 | 2.0 | 0.0 | 0.00 | 0.00 | 0.00 | 52 | 1005.2 |
| 20260905182141 | 101 | 174 | 2.0 | 0.0 | 0.00 | 0.00 | 0.00 | 52 | 1005.2 |
| 20260905182103 | 101 | 231 | 2.0 | 0.0 | 0.00 | 0.00 | 0.00 | 52 | 1005.2 |
| 20260905181954 | 101 | 175 | 2.0 | 0.0 | 0.00 | 0.00 | 0.00 | 51 | 1005.5 |
| 20260905181850 | 101 | 144 | 2.0 | 0.0 | 0.00 | 0.00 | 0.00 | 52 | 1005.5 |
| 20260905181757 | 101 | 225 | 2.0 | 0.0 | 0.00 | 0.00 | 0.00 | 52 | 1005.5 |
| 20260905181651 | 101 | 200 | 2.0 | 0.0 | 0.00 | 0.00 | 0.00 | 51 | 1005.5 |
| 20260905181548 | 101 | 198 | 2.0 | 0.0 | 0.00 | 0.00 | 0.00 | 52 | 1005.5 |
| 20260905181449 | 101 | 156 | 2.0 | 0.0 | 0.00 | 0.00 | 0.00 | 52 | 1005.5 |
| 20260905181344 | 101 | 180 | 1.0 | 0.0 | 0.00 | 0.00 | 0.00 | 52 | 1005.5 |
| 20260905181306 | 101 | 168 | 1.0 | 0.0 | 0.00 | 0.00 | 0.00 | 52 | 1005.5 |
| 20260905181151 | 101 | 201 | 2.0 | 0.0 | 0.00 | 0.00 | 0.00 | 52 | 1005.5 |
| 20260905181051 | 101 | 107 | 2.0 | 0.0 | 0.00 | 0.00 | 0.00 | 52 | 1005.5 |
| 20260905180946 | 101 | 175 | 1.0 | 0.0 | 0.00 | 0.00 | 0.00 | 53 | 1005.5 |
| 20260905180906 | 101 | 175 | 1.0 | 0.0 | 0.00 | 0.00 | 0.00 | 53 | 1005.5 |
| 20260905180804 | 101 | 201 | 1.0 | 0.0 | 0.00 | 0.00 | 0.00 | 53 | 1005.5 |
| 20260905180646 | 101 | 57 | 2.0 | 0.0 | 0.00 | 0.00 | 0.00 | 53 | 1005.5 |
| 20260905180600 | 101 | 238 | 2.0 | 0.0 | 0.00 | 0.00 | 0.00 | 54 | 1005.5 |
| 20260905180502 | 100 | 155 | 2.0 | 0.0 | 0.00 | 0.00 | 0.00 | 54 | 1005.7 |
| 20260905180354 | 100 | 210 | 2.0 | 0.0 | 0.00 | 0.00 | 0.00 | 53 | 1005.7 |
| 20260905180244 | 100 | 140 | 2.0 | 0.0 | 0.00 | 0.00 | 0.00 | 53 | 1005.7 |
| 20260905180152 | 100 | 238 | 2.0 | 0.0 | 0.00 | 0.00 | 0.00 | 53 | 1005.7 |
| 20260905180041 | 100 | 241 | 2.0 | 0.0 | 0.00 | 0.00 | 0.00 | 53 | 1005.7 |
| 20260905180007 | 100 | 170 | 2.0 | 0.0 | 0.00 | 0.00 | 0.00 | 54 | 1005.7 |
| 20260905175838 | 100 | 173 | 2.0 | 0.0 | 0.00 | 0.00 | 0.00 | 53 | 1005.7 |
| 20260905175746 | 100 | 201 | 2.0 | 0.0 | 0.00 | 0.00 | 0.00 | 53 | 1005.7 |
| 20260905175638 | 100 | 246 | 2.0 | 0.0 | 0.00 | 0.00 | 0.00 | 54 | 1005.7 |
| 20260905175604 | 100 | 172 | 2.0 | 0.0 | 0.00 | 0.00 | 0.00 | 55 | 1005.7 |
| 20260905175522 | 100 | 86 | 2.0 | 0.0 | 0.00 | 0.00 | 0.00 | 54 | 1005.7 |
| 20260905175401 | 100 | 176 | 2.0 | 0.0 | 0.00 | 0.00 | 0.00 | 54 | 1005.7 |
| 20260905175253 | 100 | 117 | 1.0 | 0.0 | 0.00 | 0.00 | 0.00 | 54 | 1005.7 |
| 20260905175152 | 100 | 180 | 1.0 | 0.0 | 0.00 | 0.00 | 0.00 | 54 | 1005.7 |
| 20260905175113 | 100 | 88 | 1.0 | 0.0 | 0.00 | 0.00 | 0.00 | 54 | 1005.9 |
| 20260905174945 | 100 | 214 | 1.0 | 0.0 | 0.00 | 0.00 | 0.00 | 54 | 1005.9 |
| 20260905174847 | 100 | 195 | 1.0 | 0.0 | 0.00 | 0.00 | 0.00 | 54 | 1005.9 |
| 20260905174758 | 100 | 206 | 1.0 | 0.0 | 0.00 | 0.00 | 0.00 | 54 | 1005.9 |
| 20260905174658 | 100 | 188 | 1.0 | 0.0 | 0.00 | 0.00 | 0.00 | 54 | 1005.9 |
| 20260905174553 | 100 | 185 | 1.0 | 0.0 | 0.00 | 0.00 | 0.00 | 53 | 1005.9 |
| 20260905174449 | 100 | 183 | 1.0 | 0.0 | 0.00 | 0.00 | 0.00 | 54 | 1005.9 |
| 20260905174351 | 100 | 192 | 1.0 | 0.0 | 0.00 | 0.00 | 0.00 | 54 | 1005.9 |
| 20260905174246 | 100 | 213 | 2.0 | 0.0 | 0.00 | 0.00 | 0.00 | 54 | 1005.9 |
| 20260905174138 | 100 | 232 | 2.0 | 0.0 | 0.00 | 0.00 | 0.00 | 55 | 1005.9 |
| 20260905174101 | 100 | 180 | 2.0 | 0.0 | 0.00 | 0.00 | 0.00 | 55 | 1005.9 |
| 20260905174026 | 100 | 222 | 2.0 | 0.0 | 0.00 | 0.00 | 0.00 | 55 | 1005.9 |
| 20260905173859 | 100 | 202 | 1.0 | 0.0 | 0.00 | 0.00 | 0.00 | 56 | 1005.9 |
| 20260905173823 | 99 | 130 | 1.0 | 0.0 | 0.00 | 0.00 | 0.00 | 56 | 1005.9 |
| 20260905173701 | 99 | 158 | 1.0 | 0.0 | 0.00 | 0.00 | 0.00 | 56 | 1005.9 |
| 20260905173622 | 99 | 88 | 1.0 | 0.0 | 0.00 | 0.00 | 0.00 | 56 | 1005.9 |
| 20260905173435 | 99 | 213 | 1.0 | 0.0 | 0.00 | 0.00 | 0.00 | 57 | 1006.1 |
| 20260905173349 | 99 | 220 | 1.0 | 0.0 | 0.00 | 0.00 | 0.00 | 56 | 1006.1 |
| 20260905173316 | 99 | 159 | 2.0 | 0.0 | 0.00 | 0.00 | 0.00 | 57 | 1006.1 |
| 20260905173215 | 98 | 210 | 2.0 | 0.0 | 0.00 | 0.00 | 0.00 | 57 | 1006.1 |
| 20260905173052 | 98 | 217 | 2.0 | 0.0 | 0.00 | 0.00 | 0.00 | 57 | 1006.1 |
| 20260905172955 | 98 | 207 | 3.0 | 0.0 | 0.00 | 0.00 | 0.00 | 58 | 1006.1 |
| 20260905172852 | 98 | 220 | 3.0 | 0.0 | 0.00 | 0.00 | 0.00 | 58 | 1006.1 |
| 20260905172745 | 98 | 65 | 3.0 | 0.0 | 0.00 | 0.00 | 0.00 | 58 | 1006.1 |
| 20260905172646 | 98 | 249 | 3.0 | 0.0 | 0.00 | 0.00 | 0.00 | 58 | 1006.1 |
| 20260905172559 | 98 | 275 | 3.0 | 0.0 | 0.00 | 0.00 | 0.00 | 58 | 1006.1 |
| 20260905172501 | 98 | 150 | 3.0 | 0.0 | 0.00 | 0.00 | 0.00 | 58 | 1006.1 |
| 20260905172353 | 98 | 192 | 3.0 | 0.0 | 0.00 | 0.00 | 0.00 | 58 | 1006.1 |
| 20260905172246 | 98 | 186 | 2.0 | 0.0 | 0.00 | 0.00 | 0.00 | 57 | 1006.1 |
| 20260905172151 | 98 | 153 | 2.0 | 0.0 | 0.00 | 0.00 | 0.00 | 58 | 1006.1 |
| 20260905172046 | 98 | 227 | 2.0 | 0.0 | 0.00 | 0.00 | 0.00 | 58 | 1006.3 |
| 20260905171941 | 97 | 206 | 2.0 | 0.0 | 0.00 | 0.00 | 0.00 | 59 | 1006.3 |
| 20260905171842 | 97 | 181 | 2.0 | 0.0 | 0.00 | 0.00 | 0.00 | 59 | 1006.3 |
| 20260905171759 | 97 | 173 | 2.0 | 0.0 | 0.00 | 0.00 | 0.00 | 60 | 1006.3 |
| 20260905171702 | 97 | 186 | 1.0 | 0.0 | 0.00 | 0.00 | 0.00 | 60 | 1006.3 |
| 20260905171602 | 97 | 202 | 1.0 | 0.0 | 0.00 | 0.00 | 0.00 | 60 | 1006.3 |
| 20260905171455 | 97 | 223 | 1.0 | 0.0 | 0.00 | 0.00 | 0.00 | 60 | 1006.3 |
| 20260905171416 | 96 | 196 | 1.0 | 0.0 | 0.00 | 0.00 | 0.00 | 60 | 1006.3 |
| 20260905171250 | 96 | 241 | 1.0 | 0.0 | 0.00 | 0.00 | 0.00 | 60 | 1006.3 |
| 20260905171147 | 96 | 196 | 1.0 | 0.0 | 0.00 | 0.00 | 0.00 | 60 | 1006.3 |
| 20260905171052 | 96 | 186 | 2.0 | 0.0 | 0.00 | 0.00 | 0.00 | 60 | 1006.3 |
| 20260905170945 | 96 | 250 | 2.0 | 0.0 | 0.00 | 0.00 | 0.00 | 60 | 1006.3 |
| 20260905170907 | 96 | 169 | 2.0 | 0.0 | 0.00 | 0.00 | 0.00 | 60 | 1006.3 |
| 20260905170740 | 96 | 198 | 2.0 | 0.0 | 0.00 | 0.00 | 0.00 | 60 | 1006.3 |
| 20260905170656 | 96 | 192 | 2.0 | 0.0 | 0.00 | 0.00 | 0.00 | 60 | 1006.3 |
| 20260905170600 | 96 | 234 | 2.0 | 0.0 | 0.00 | 0.00 | 0.00 | 60 | 1006.3 |
| 20260905170439 | 96 | 82 | 2.0 | 0.0 | 0.00 | 0.00 | 0.00 | 60 | 1006.5 |
| 20260905170352 | 96 | 180 | 1.0 | 0.0 | 0.00 | 0.00 | 0.00 | 60 | 1006.5 |
| 20260905170253 | 96 | 162 | 2.0 | 0.0 | 0.00 | 0.00 | 0.00 | 61 | 1006.5 |
| 20260905170146 | 96 | 211 | 1.0 | 0.0 | 0.00 | 0.00 | 0.00 | 61 | 1006.5 |
| 20260905170107 | 96 | 199 | 1.0 | 0.0 | 0.00 | 0.00 | 0.00 | 60 | 1006.5 |
| 20260905165944 | 96 | 197 | 2.0 | 0.0 | 0.00 | 0.00 | 0.00 | 61 | 1006.5 |
| 20260905165844 | 96 | 189 | 2.0 | 0.0 | 0.00 | 0.00 | 0.00 | 60 | 1006.5 |
| 20260905165735 | 96 | 226 | 2.0 | 0.0 | 0.00 | 0.00 | 0.00 | 60 | 1006.5 |
| 20260905165703 | 96 | 151 | 2.0 | 0.0 | 0.00 | 0.00 | 0.00 | 60 | 1006.5 |
| 20260905165556 | 96 | 229 | 2.0 | 0.0 | 0.00 | 0.00 | 0.00 | 60 | 1006.5 |
| 20260905165451 | 96 | 223 | 2.0 | 0.0 | 0.00 | 0.00 | 0.00 | 60 | 1006.5 |
| 20260905165352 | 96 | 205 | 3.0 | 0.0 | 0.00 | 0.00 | 0.00 | 60 | 1006.5 |
| 20260905165245 | 97 | 211 | 2.0 | 0.0 | 0.00 | 0.00 | 0.00 | 60 | 1006.5 |
| 20260905165141 | 97 | 198 | 2.0 | 0.0 | 0.00 | 0.00 | 0.00 | 60 | 1006.5 |
| 20260905165041 | 97 | 165 | 2.0 | 0.0 | 0.00 | 0.00 | 0.00 | 60 | 1006.6 |
| 20260905164941 | 97 | 198 | 2.0 | 0.0 | 0.00 | 0.00 | 0.00 | 60 | 1006.6 |
| 20260905164902 | 97 | 171 | 2.0 | 0.0 | 0.00 | 0.00 | 0.00 | 61 | 1006.6 |
| 20260905164754 | 97 | 9 | 2.0 | 0.0 | 0.00 | 0.00 | 0.00 | 60 | 1006.6 |
| 20260905164715 | 97 | 240 | 2.0 | 0.0 | 0.00 | 0.00 | 0.00 | 60 | 1006.6 |
| 20260905164610 | 97 | 127 | 2.0 | 0.0 | 0.00 | 0.00 | 0.00 | 61 | 1006.6 |
| 20260905164454 | 97 | 175 | 2.0 | 0.0 | 0.00 | 0.00 | 0.00 | 61 | 1006.6 |
| 20260905164350 | 96 | 184 | 1.0 | 0.0 | 0.00 | 0.00 | 0.00 | 61 | 1006.6 |
| 20260905164244 | 96 | 156 | 1.0 | 0.0 | 0.00 | 0.00 | 0.00 | 61 | 1006.6 |
| 20260905164149 | 96 | 202 | 1.0 | 0.0 | 0.00 | 0.00 | 0.00 | 61 | 1006.6 |
| 20260905164041 | 96 | 141 | 1.0 | 0.0 | 0.00 | 0.00 | 0.00 | 60 | 1006.6 |
| 20260905164002 | 96 | 233 | 1.0 | 0.0 | 0.00 | 0.00 | 0.00 | 61 | 1006.6 |
| 20260905163914 | 96 | 155 | 1.0 | 0.0 | 0.00 | 0.00 | 0.00 | 61 | 1006.6 |
| 20260905163815 | 96 | 209 | 1.0 | 0.0 | 0.00 | 0.00 | 0.00 | 61 | 1006.6 |
| 20260905163716 | 96 | 125 | 1.0 | 0.0 | 0.00 | 0.00 | 0.00 | 61 | 1006.6 |
| 20260905163610 | 96 | 204 | 1.0 | 0.0 | 0.00 | 0.00 | 0.00 | 61 | 1006.6 |
| 20260905163454 | 96 | 254 | 1.0 | 0.0 | 0.00 | 0.00 | 0.00 | 61 | 1006.6 |
| 20260905163346 | 97 | 112 | 1.0 | 0.0 | 0.00 | 0.00 | 0.00 | 61 | 1006.6 |
| 20260905163242 | 97 | 69 | 1.0 | 0.0 | 0.00 | 0.00 | 0.00 | 62 | 1006.6 |
| 20260905163204 | 96 | 200 | 1.0 | 0.0 | 0.00 | 0.00 | 0.00 | 62 | 1006.6 |
| 20260905163045 | 96 | 74 | 1.0 | 0.0 | 0.00 | 0.00 | 0.00 | 62 | 1006.6 |
| 20260905162955 | 96 | 192 | 1.0 | 0.0 | 0.00 | 0.00 | 0.00 | 63 | 1006.6 |
| 20260905162857 | 96 | 42 | 1.0 | 0.0 | 0.00 | 0.00 | 0.00 | 62 | 1006.6 |
| 20260905162754 | 96 | 105 | 1.0 | 0.0 | 0.00 | 0.00 | 0.00 | 62 | 1006.6 |
| 20260905162646 | 96 | 238 | 1.0 | 0.0 | 0.00 | 0.00 | 0.00 | 62 | 1006.6 |
| 20260905162547 | 96 | 196 | 1.0 | 0.0 | 0.00 | 0.00 | 0.00 | 62 | 1006.6 |
| 20260905162459 | 96 | 185 | 1.0 | 0.0 | 0.00 | 0.00 | 0.00 | 62 | 1006.6 |
| 20260905162400 | 95 | 207 | 1.0 | 0.0 | 0.00 | 0.00 | 0.00 | 62 | 1006.6 |
| 20260905162252 | 95 | 145 | 1.0 | 0.0 | 0.00 | 0.00 | 0.00 | 63 | 1006.6 |
| 20260905162143 | 95 | 221 | 1.0 | 0.0 | 0.00 | 0.00 | 0.00 | 63 | 1006.6 |
| 20260905162051 | 95 | 194 | 1.0 | 0.0 | 0.00 | 0.00 | 0.00 | 63 | 1006.7 |
| 20260905161945 | 95 | 198 | 1.0 | 0.0 | 0.00 | 0.00 | 0.00 | 63 | 1006.7 |
| 20260905161841 | 95 | 171 | 2.0 | 0.0 | 0.00 | 0.00 | 0.00 | 64 | 1006.7 |
| 20260905161743 | 95 | 148 | 2.0 | 0.0 | 0.00 | 0.00 | 0.00 | 64 | 1006.7 |
| 20260905161655 | 95 | 190 | 2.0 | 0.0 | 0.00 | 0.00 | 0.00 | 64 | 1006.7 |
| 20260905161555 | 95 | 205 | 2.0 | 0.0 | 0.00 | 0.00 | 0.00 | 65 | 1006.7 |
| 20260905161449 | 94 | 147 | 2.0 | 0.0 | 0.00 | 0.00 | 0.00 | 65 | 1006.7 |
| 20260905161349 | 94 | 207 | 2.0 | 0.0 | 0.00 | 0.00 | 0.00 | 65 | 1006.7 |
| 20260905161256 | 94 | 157 | 2.0 | 0.0 | 0.00 | 0.00 | 0.00 | 65 | 1006.7 |
| 20260905161149 | 94 | 198 | 3.0 | 0.0 | 0.00 | 0.00 | 0.00 | 65 | 1006.7 |
| 20260905161113 | 94 | 152 | 3.0 | 0.0 | 0.00 | 0.00 | 0.00 | 66 | 1006.7 |
| 20260905160944 | 94 | 153 | 3.0 | 0.0 | 0.00 | 0.00 | 0.00 | 66 | 1006.7 |
| 20260905160839 | 93 | 207 | 3.0 | 0.0 | 0.00 | 0.00 | 0.00 | 66 | 1006.7 |
| 20260905160807 | 93 | 173 | 3.0 | 0.0 | 0.00 | 0.00 | 0.00 | 66 | 1006.7 |
| 20260905160729 | 93 | 215 | 3.0 | 0.0 | 0.00 | 0.00 | 0.00 | 66 | 1006.7 |
| 20260905160544 | 93 | 215 | 3.0 | 0.0 | 0.00 | 0.00 | 0.00 | 66 | 1006.7 |
| 20260905160459 | 93 | 217 | 3.0 | 0.0 | 0.00 | 0.00 | 0.00 | 66 | 1006.7 |
| 20260905160342 | 93 | 190 | 2.0 | 0.0 | 0.00 | 0.00 | 0.00 | 66 | 1006.7 |
| 20260905160235 | 93 | 202 | 2.0 | 0.0 | 0.00 | 0.00 | 0.00 | 67 | 1006.7 |
| 20260905160202 | 93 | 171 | 2.0 | 0.0 | 0.00 | 0.00 | 0.00 | 66 | 1006.7 |
| 20260905160037 | 93 | 229 | 2.0 | 0.0 | 0.00 | 0.00 | 0.00 | 66 | 1006.7 |
| 20260905155953 | 93 | 225 | 2.0 | 0.0 | 0.00 | 0.00 | 0.00 | 66 | 1006.7 |
| 20260905155857 | 93 | 189 | 2.0 | 0.0 | 0.00 | 0.00 | 0.00 | 67 | 1006.7 |
| 20260905155813 | 93 | 166 | 3.0 | 0.0 | 0.00 | 0.00 | 0.00 | 67 | 1006.7 |
| 20260905155716 | 93 | 219 | 3.0 | 0.0 | 0.00 | 0.00 | 0.00 | 67 | 1006.7 |
| 20260905155557 | 92 | 191 | 3.0 | 0.0 | 0.00 | 0.00 | 0.00 | 67 | 1006.7 |
| 20260905155453 | 92 | 40 | 3.0 | 0.0 | 0.00 | 0.00 | 0.00 | 67 | 1006.7 |
| 20260905155344 | 92 | 194 | 3.0 | 0.0 | 0.00 | 0.00 | 0.00 | 66 | 1006.7 |
| 20260905155248 | 92 | 170 | 3.0 | 0.0 | 0.00 | 0.00 | 0.00 | 66 | 1006.7 |
| 20260905155209 | 92 | 225 | 3.0 | 0.0 | 0.00 | 0.00 | 0.00 | 66 | 1006.7 |
| 20260905155100 | 92 | 209 | 3.0 | 0.0 | 0.00 | 0.00 | 0.00 | 66 | 1006.7 |
| 20260905155006 | 92 | 161 | 3.0 | 0.0 | 0.00 | 0.00 | 0.00 | 66 | 1006.9 |
| 20260905154857 | 92 | 167 | 2.0 | 0.0 | 0.00 | 0.00 | 0.00 | 66 | 1006.9 |
| 20260905154751 | 93 | 247 | 2.0 | 0.0 | 0.00 | 0.00 | 0.00 | 66 | 1006.9 |
| 20260905154646 | 93 | 196 | 2.0 | 0.0 | 0.00 | 0.00 | 0.00 | 66 | 1006.9 |
| 20260905154548 | 93 | 217 | 2.0 | 0.0 | 0.00 | 0.00 | 0.00 | 66 | 1006.9 |
| 20260905154440 | 93 | 194 | 2.0 | 0.0 | 0.00 | 0.00 | 0.00 | 67 | 1006.9 |
| 20260905154402 | 93 | 175 | 2.0 | 0.0 | 0.00 | 0.00 | 0.00 | 66 | 1006.9 |
| 20260905154241 | 93 | 222 | 2.0 | 0.0 | 0.00 | 0.00 | 0.00 | 67 | 1006.9 |
| 20260905154203 | 93 | 198 | 2.0 | 0.0 | 0.00 | 0.00 | 0.00 | 68 | 1006.9 |
| 20260905154054 | 93 | 195 | 2.0 | 0.0 | 0.00 | 0.00 | 0.00 | 67 | 1006.9 |
| 20260905153957 | 93 | 200 | 2.0 | 0.0 | 0.00 | 0.00 | 0.00 | 68 | 1006.9 |
| 20260905153852 | 93 | 174 | 2.0 | 0.0 | 0.00 | 0.00 | 0.00 | 67 | 1006.9 |
| 20260905153744 | 93 | 185 | 2.0 | 0.0 | 0.00 | 0.00 | 0.00 | 67 | 1006.9 |
| 20260905153642 | 93 | 221 | 2.0 | 0.0 | 0.00 | 0.00 | 0.00 | 67 | 1006.9 |
| 20260905153547 | 93 | 177 | 2.0 | 0.0 | 0.00 | 0.00 | 0.00 | 68 | 1007.0 |
| 20260905153442 | 93 | 194 | 2.0 | 0.0 | 0.00 | 0.00 | 0.00 | 67 | 1007.0 |
| 20260905153352 | 93 | 180 | 2.0 | 0.0 | 0.00 | 0.00 | 0.00 | 68 | 1007.0 |
| 20260905153246 | 93 | 163 | 2.0 | 0.0 | 0.00 | 0.00 | 0.00 | 68 | 1007.0 |
| 20260905153154 | 93 | 195 | 2.0 | 0.0 | 0.00 | 0.00 | 0.00 | 68 | 1007.0 |
| 20260905153046 | 93 | 181 | 2.0 | 0.0 | 0.00 | 0.00 | 0.00 | 68 | 1007.0 |
| 20260905153008 | 93 | 212 | 2.0 | 0.0 | 0.00 | 0.00 | 0.00 | 68 | 1007.0 |
| 20260905152840 | 93 | 200 | 2.0 | 0.0 | 0.00 | 0.00 | 0.00 | 68 | 1007.0 |
| 20260905152753 | 93 | 213 | 2.0 | 0.0 | 0.00 | 0.00 | 0.00 | 68 | 1007.0 |
| 20260905152701 | 93 | 184 | 2.0 | 0.0 | 0.00 | 0.00 | 0.00 | 68 | 1007.0 |
| 20260905152614 | 92 | 169 | 1.0 | 0.0 | 0.00 | 0.00 | 0.00 | 69 | 1007.0 |
| 20260905152454 | 92 | 182 | 2.0 | 0.0 | 0.00 | 0.00 | 0.00 | 69 | 1007.0 |
| 20260905152409 | 92 | 199 | 2.0 | 0.0 | 0.00 | 0.00 | 0.00 | 69 | 1007.0 |
| 20260905152250 | 92 | 194 | 2.0 | 0.0 | 0.00 | 0.00 | 0.00 | 69 | 1007.0 |
| 20260905152144 | 92 | 172 | 1.0 | 0.0 | 0.00 | 0.00 | 0.00 | 70 | 1007.0 |
| 20260905152106 | 92 | 141 | 1.0 | 0.0 | 0.00 | 0.00 | 0.00 | 69 | 1007.0 |
| 20260905151937 | 92 | 202 | 1.0 | 0.0 | 0.00 | 0.00 | 0.00 | 70 | 1007.0 |
| 20260905151856 | 92 | 223 | 1.0 | 0.0 | 0.00 | 0.00 | 0.00 | 70 | 1007.0 |
| 20260905151801 | 92 | 248 | 1.0 | 0.0 | 0.00 | 0.00 | 0.00 | 71 | 1007.0 |
| 20260905151635 | 92 | 197 | 1.0 | 0.0 | 0.00 | 0.00 | 0.00 | 71 | 1007.0 |
| 20260905151551 | 92 | 218 | 2.0 | 0.0 | 0.00 | 0.00 | 0.00 | 71 | 1007.0 |
| 20260905151452 | 92 | 194 | 1.0 | 0.0 | 0.00 | 0.00 | 0.00 | 71 | 1007.0 |
| 20260905151347 | 92 | 187 | 2.0 | 0.0 | 0.00 | 0.00 | 0.00 | 71 | 1007.0 |
| 20260905151308 | 92 | 185 | 2.0 | 0.0 | 0.00 | 0.00 | 0.00 | 71 | 1007.0 |
| 20260905151147 | 92 | 248 | 2.0 | 0.0 | 0.00 | 0.00 | 0.00 | 71 | 1007.0 |
| 20260905151109 | 92 | 193 | 2.0 | 0.0 | 0.00 | 0.00 | 0.00 | 72 | 1007.0 |
| 20260905150941 | 92 | 204 | 2.0 | 0.0 | 0.00 | 0.00 | 0.00 | 71 | 1007.0 |
| 20260905150853 | 92 | 144 | 2.0 | 0.0 | 0.00 | 0.00 | 0.00 | 71 | 1007.0 |
| 20260905150754 | 92 | 65 | 2.0 | 0.0 | 0.00 | 0.00 | 0.00 | 72 | 1007.0 |
| 20260905150646 | 92 | 221 | 2.0 | 0.0 | 0.00 | 0.00 | 0.00 | 72 | 1007.0 |
| 20260905150610 | 91 | 202 | 2.0 | 0.0 | 0.00 | 0.00 | 0.00 | 72 | 1007.1 |
| 20260905150504 | 91 | 209 | 2.0 | 0.0 | 0.00 | 0.00 | 0.00 | 72 | 1007.1 |
| 20260905150405 | 91 | 169 | 2.0 | 0.0 | 0.00 | 0.00 | 0.00 | 72 | 1007.1 |
| 20260905150249 | 91 | 220 | 2.0 | 0.0 | 0.00 | 0.00 | 0.00 | 72 | 1007.1 |
| 20260905150143 | 91 | 195 | 2.0 | 0.0 | 0.00 | 0.00 | 0.00 | 73 | 1007.1 |
| 20260905150045 | 91 | 212 | 2.0 | 0.0 | 0.00 | 0.00 | 0.00 | 73 | 1007.1 |
| 20260905145957 | 91 | 217 | 2.0 | 0.0 | 0.00 | 0.00 | 0.00 | 73 | 1007.1 |
| 20260905145858 | 90 | 163 | 2.0 | 0.0 | 0.00 | 0.00 | 0.00 | 73 | 1007.1 |
| 20260905145752 | 90 | 222 | 2.0 | 0.0 | 0.00 | 0.00 | 0.00 | 73 | 1007.1 |
| 20260905145648 | 90 | 222 | 2.0 | 0.0 | 0.00 | 0.00 | 0.00 | 73 | 1007.1 |
| 20260905145554 | 90 | 197 | 2.0 | 0.0 | 0.00 | 0.00 | 0.00 | 74 | 1007.1 |
| 20260905145446 | 90 | 165 | 1.0 | 0.0 | 0.00 | 0.00 | 0.00 | 74 | 1007.1 |
| 20260905145406 | 90 | 221 | 1.0 | 0.0 | 0.00 | 0.00 | 0.00 | 74 | 1007.1 |
| 20260905145242 | 90 | 219 | 2.0 | 0.0 | 0.00 | 0.00 | 0.00 | 74 | 1007.1 |
| 20260905145153 | 90 | 180 | 2.0 | 0.0 | 0.00 | 0.00 | 0.00 | 74 | 1007.1 |
| 20260905145117 | 90 | 206 | 2.0 | 0.0 | 0.00 | 0.00 | 0.00 | 74 | 1007.1 |
| 20260905144948 | 90 | 223 | 2.0 | 0.0 | 0.00 | 0.00 | 0.00 | 74 | 1007.1 |
| 20260905144852 | 90 | 240 | 2.0 | 0.0 | 0.00 | 0.00 | 0.00 | 74 | 1007.1 |
| 20260905144748 | 90 | 208 | 2.0 | 0.0 | 0.00 | 0.00 | 0.00 | 74 | 1007.1 |
| 20260905144709 | 89 | 248 | 2.0 | 0.0 | 0.00 | 0.00 | 0.00 | 75 | 1007.1 |
| 20260905144600 | 89 | 193 | 2.0 | 0.0 | 0.00 | 0.00 | 0.00 | 75 | 1007.1 |
| 20260905144502 | 89 | 140 | 2.0 | 0.0 | 0.00 | 0.00 | 0.00 | 75 | 1007.1 |
| 20260905144357 | 89 | 213 | 2.0 | 0.0 | 0.00 | 0.00 | 0.00 | 75 | 1007.1 |
| 20260905144319 | 89 | 233 | 2.0 | 0.0 | 0.00 | 0.00 | 0.00 | 75 | 1007.1 |
| 20260905144210 | 89 | 189 | 3.0 | 0.0 | 0.00 | 0.00 | 0.00 | 74 | 1007.1 |
| 20260905144050 | 89 | 201 | 2.0 | 0.0 | 0.00 | 0.00 | 0.00 | 75 | 1007.1 |
| 20260905143946 | 89 | 179 | 2.0 | 0.0 | 0.00 | 0.00 | 0.00 | 75 | 1007.1 |
| 20260905143842 | 89 | 179 | 2.0 | 0.0 | 0.00 | 0.00 | 0.00 | 75 | 1007.1 |
| 20260905143743 | 89 | 213 | 2.0 | 0.0 | 0.00 | 0.00 | 0.00 | 75 | 1007.1 |
| 20260905143658 | 89 | 147 | 2.0 | 0.0 | 0.00 | 0.00 | 0.00 | 75 | 1007.1 |
| 20260905143621 | 89 | 169 | 2.0 | 0.0 | 0.00 | 0.00 | 0.00 | 75 | 1007.1 |
| 20260905143525 | 89 | 212 | 2.0 | 0.0 | 0.00 | 0.00 | 0.00 | 75 | 1007.1 |
| 20260905143400 | 89 | 170 | 2.0 | 0.0 | 0.00 | 0.00 | 0.00 | 75 | 1007.1 |
| 20260905143302 | 89 | 179 | 1.0 | 0.0 | 0.00 | 0.00 | 0.00 | 75 | 1007.1 |
| 20260905143150 | 89 | 232 | 1.0 | 0.0 | 0.00 | 0.00 | 0.00 | 75 | 1007.1 |
| 20260905143059 | 89 | 199 | 1.0 | 0.0 | 0.00 | 0.00 | 0.00 | 76 | 1007.1 |
| 20260905142949 | 89 | 207 | 1.0 | 0.0 | 0.00 | 0.00 | 0.00 | 76 | 1007.1 |
| 20260905142850 | 89 | 212 | 1.0 | 0.0 | 0.00 | 0.00 | 0.00 | 76 | 1007.1 |
| 20260905142745 | 88 | 238 | 1.0 | 0.0 | 0.00 | 0.00 | 0.00 | 76 | 1007.1 |
| 20260905142641 | 88 | 190 | 1.0 | 0.0 | 0.00 | 0.00 | 0.00 | 76 | 1007.1 |
| 20260905142602 | 88 | 219 | 1.0 | 0.0 | 0.00 | 0.00 | 0.00 | 76 | 1007.1 |
| 20260905142506 | 88 | 201 | 1.0 | 0.0 | 0.00 | 0.00 | 0.00 | 76 | 1007.1 |
| 20260905142400 | 88 | 15 | 1.0 | 0.0 | 0.00 | 0.00 | 0.00 | 76 | 1007.1 |
| 20260905142306 | 88 | 214 | 1.0 | 0.0 | 0.00 | 0.00 | 0.00 | 76 | 1007.1 |
| 20260905142157 | 88 | 186 | 1.0 | 0.0 | 0.00 | 0.00 | 0.00 | 76 | 1007.1 |
| 20260905142053 | 88 | 195 | 1.0 | 0.0 | 0.00 | 0.00 | 0.00 | 76 | 1007.0 |
| 20260905141952 | 88 | 188 | 1.0 | 0.0 | 0.00 | 0.00 | 0.00 | 76 | 1007.0 |
| 20260905141848 | 88 | 143 | 2.0 | 0.0 | 0.00 | 0.00 | 0.00 | 77 | 1007.0 |
| 20260905141747 | 88 | 209 | 2.0 | 0.0 | 0.00 | 0.00 | 0.00 | 77 | 1007.0 |
| 20260905141641 | 88 | 241 | 2.0 | 0.0 | 0.00 | 0.00 | 0.00 | 77 | 1007.0 |
| 20260905141543 | 87 | 167 | 2.0 | 0.0 | 0.00 | 0.00 | 0.00 | 77 | 1007.0 |
| 20260905141442 | 88 | 190 | 2.0 | 0.0 | 0.00 | 0.00 | 0.00 | 77 | 1007.0 |
| 20260905141404 | 88 | 203 | 2.0 | 0.0 | 0.00 | 0.00 | 0.00 | 77 | 1007.0 |
| 20260905141258 | 87 | 172 | 2.0 | 0.0 | 0.00 | 0.00 | 0.00 | 77 | 1007.0 |
| 20260905141158 | 87 | 233 | 2.0 | 0.0 | 0.00 | 0.00 | 0.00 | 77 | 1007.0 |
| 20260905141101 | 87 | 164 | 2.0 | 0.0 | 0.00 | 0.00 | 0.00 | 77 | 1007.0 |
| 20260905140954 | 87 | 203 | 1.0 | 0.0 | 0.00 | 0.00 | 0.00 | 77 | 1007.0 |
| 20260905140846 | 87 | 234 | 1.0 | 0.0 | 0.00 | 0.00 | 0.00 | 77 | 1007.0 |
| 20260905140752 | 87 | 63 | 1.0 | 0.0 | 0.00 | 0.00 | 0.00 | 78 | 1007.0 |
| 20260905140651 | 87 | 209 | 2.0 | 0.0 | 0.00 | 0.00 | 0.00 | 78 | 1007.0 |
| 20260905140558 | 87 | 178 | 2.0 | 0.0 | 0.00 | 0.00 | 0.00 | 78 | 1006.7 |
| 20260905140450 | 87 | 76 | 2.0 | 0.0 | 0.00 | 0.00 | 0.00 | 78 | 1006.7 |
| 20260905140349 | 87 | 168 | 2.0 | 0.0 | 0.00 | 0.00 | 0.00 | 78 | 1006.7 |
| 20260905140243 | 87 | 150 | 2.0 | 0.0 | 0.00 | 0.00 | 0.00 | 78 | 1006.7 |
| 20260905140205 | 87 | 179 | 2.0 | 0.0 | 0.00 | 0.00 | 0.00 | 78 | 1006.7 |
| 20260905140041 | 86 | 227 | 2.0 | 0.0 | 0.00 | 0.00 | 0.00 | 78 | 1006.7 |
| 20260905135939 | 87 | 219 | 2.0 | 0.0 | 0.00 | 0.00 | 0.00 | 78 | 1006.7 |
| 20260905135904 | 86 | 220 | 2.0 | 0.0 | 0.00 | 0.00 | 0.00 | 79 | 1006.7 |
| 20260905135820 | 86 | 232 | 2.0 | 0.0 | 0.00 | 0.00 | 0.00 | 79 | 1006.7 |
| 20260905135700 | 86 | 194 | 2.0 | 0.0 | 0.00 | 0.00 | 0.00 | 79 | 1006.7 |
| 20260905135534 | 86 | 209 | 2.0 | 0.0 | 0.00 | 0.00 | 0.00 | 78 | 1006.7 |
| 20260905135453 | 86 | 195 | 1.0 | 0.0 | 0.00 | 0.00 | 0.00 | 79 | 1006.7 |
| 20260905135354 | 86 | 144 | 1.0 | 0.0 | 0.00 | 0.00 | 0.00 | 79 | 1006.7 |
| 20260905135252 | 86 | 187 | 1.0 | 0.0 | 0.00 | 0.00 | 0.00 | 79 | 1006.7 |
| 20260905135219 | 86 | 190 | 1.0 | 0.0 | 0.00 | 0.00 | 0.00 | 79 | 1006.7 |
| 20260905135053 | 86 | 212 | 1.0 | 0.0 | 0.00 | 0.00 | 0.00 | 79 | 1006.5 |
| 20260905134953 | 86 | 179 | 1.0 | 0.0 | 0.00 | 0.00 | 0.00 | 79 | 1006.5 |
| 20260905134921 | 86 | 181 | 1.0 | 0.0 | 0.00 | 0.00 | 0.00 | 79 | 1006.5 |
| 20260905134759 | 86 | 219 | 1.0 | 0.0 | 0.00 | 0.00 | 0.00 | 80 | 1006.5 |
| 20260905134712 | 86 | 169 | 1.0 | 0.0 | 0.00 | 0.00 | 0.00 | 80 | 1006.5 |
| 20260905134552 | 86 | 198 | 1.0 | 0.0 | 0.00 | 0.00 | 0.00 | 80 | 1006.5 |
| 20260905134504 | 86 | 202 | 1.0 | 0.0 | 0.00 | 0.00 | 0.00 | 80 | 1006.5 |
| 20260905134343 | 86 | 256 | 1.0 | 0.0 | 0.00 | 0.00 | 0.00 | 80 | 1006.5 |
| 20260905134245 | 85 | 140 | 2.0 | 0.0 | 0.00 | 0.00 | 0.00 | 80 | 1006.5 |
| 20260905134206 | 85 | 162 | 2.0 | 0.0 | 0.00 | 0.00 | 0.00 | 80 | 1006.5 |
| 20260905134057 | 85 | 175 | 2.0 | 0.0 | 0.00 | 0.00 | 0.00 | 80 | 1006.5 |
| 20260905133958 | 85 | 142 | 1.0 | 0.0 | 0.00 | 0.00 | 0.00 | 80 | 1006.5 |
| 20260905133850 | 85 | 235 | 2.0 | 0.0 | 0.00 | 0.00 | 0.00 | 80 | 1006.5 |
| 20260905133818 | 85 | 171 | 2.0 | 0.0 | 0.00 | 0.00 | 0.00 | 80 | 1006.5 |
| 20260905133721 | 85 | 207 | 2.0 | 0.0 | 0.00 | 0.00 | 0.00 | 80 | 1006.5 |
| 20260905133559 | 85 | 180 | 1.0 | 0.0 | 0.00 | 0.00 | 0.00 | 80 | 1006.5 |
| 20260905133453 | 85 | 201 | 1.0 | 0.0 | 0.00 | 0.00 | 0.00 | 80 | 1006.1 |
| 20260905133353 | 85 | 181 | 1.0 | 0.0 | 0.00 | 0.00 | 0.00 | 80 | 1006.1 |
| 20260905133300 | 85 | 209 | 1.0 | 0.0 | 0.00 | 0.00 | 0.00 | 80 | 1006.1 |
| 20260905133213 | 85 | 229 | 1.0 | 0.0 | 0.00 | 0.00 | 0.00 | 81 | 1006.1 |
| 20260905133053 | 85 | 195 | 1.0 | 0.0 | 0.00 | 0.00 | 0.00 | 81 | 1006.1 |
| 20260905133005 | 85 | 159 | 1.0 | 0.0 | 0.00 | 0.00 | 0.00 | 81 | 1006.1 |
| 20260905132848 | 85 | 226 | 1.0 | 0.0 | 0.00 | 0.00 | 0.00 | 81 | 1006.1 |
| 20260905132743 | 85 | 185 | 1.0 | 0.0 | 0.00 | 0.00 | 0.00 | 81 | 1006.1 |
| 20260905132705 | 85 | 147 | 1.0 | 0.0 | 0.00 | 0.00 | 0.00 | 81 | 1006.1 |
| 20260905132617 | 84 | 181 | 1.0 | 0.0 | 0.00 | 0.00 | 0.00 | 81 | 1006.1 |
| 20260905132500 | 84 | 179 | 1.0 | 0.0 | 0.00 | 0.00 | 0.00 | 81 | 1006.1 |
| 20260905132357 | 84 | 178 | 1.0 | 0.0 | 0.00 | 0.00 | 0.00 | 81 | 1006.1 |
| 20260905132249 | 84 | 181 | 1.0 | 0.0 | 0.00 | 0.00 | 0.00 | 81 | 1006.1 |
| 20260905132211 | 84 | 155 | 1.0 | 0.0 | 0.00 | 0.00 | 0.00 | 81 | 1006.1 |
| 20260905132044 | 84 | 192 | 1.0 | 0.0 | 0.00 | 0.00 | 0.00 | 81 | 1006.1 |
| 20260905131946 | 84 | 197 | 1.0 | 0.0 | 0.00 | 0.00 | 0.00 | 81 | 1006.1 |
| 20260905131837 | 84 | 192 | 1.0 | 0.0 | 0.00 | 0.00 | 0.00 | 81 | 1006.1 |
| 20260905131806 | 84 | 240 | 1.0 | 0.0 | 0.00 | 0.00 | 0.00 | 81 | 1006.1 |
| 20260905131639 | 84 | 221 | 1.0 | 0.0 | 0.00 | 0.00 | 0.00 | 82 | 1006.1 |
| 20260905131553 | 84 | 195 | 1.0 | 0.0 | 0.00 | 0.00 | 0.00 | 82 | 1006.1 |
| 20260905131501 | 84 | 202 | 1.0 | 0.0 | 0.00 | 0.00 | 0.00 | 82 | 1006.1 |
| 20260905131353 | 84 | 229 | 1.0 | 0.0 | 0.00 | 0.00 | 0.00 | 82 | 1006.1 |
| 20260905131245 | 83 | 181 | 1.0 | 0.0 | 0.00 | 0.00 | 0.00 | 82 | 1006.1 |
| 20260905131147 | 83 | 180 | 1.0 | 0.0 | 0.00 | 0.00 | 0.00 | 82 | 1006.0 |
| 20260905131043 | 83 | 180 | 1.0 | 0.0 | 0.00 | 0.00 | 0.00 | 82 | 1006.0 |
| 20260905131004 | 83 | 173 | 1.0 | 0.0 | 0.00 | 0.00 | 0.00 | 82 | 1006.0 |
| 20260905130839 | 83 | 197 | 0.0 | 0.0 | 0.00 | 0.00 | 0.00 | 82 | 1006.0 |
| 20260905130752 | 83 | 221 | 0.0 | 0.0 | 0.00 | 0.00 | 0.00 | 82 | 1006.0 |
| 20260905130714 | 83 | 216 | 0.0 | 0.0 | 0.00 | 0.00 | 0.00 | 82 | 1006.0 |
| 20260905130614 | 83 | 246 | 0.0 | 0.0 | 0.00 | 0.00 | 0.00 | 82 | 1005.8 |
| 20260905130445 | 83 | 227 | 0.0 | 0.0 | 0.00 | 0.00 | 0.00 | 82 | 1005.8 |
| 20260905130345 | 83 | 200 | 0.0 | 0.0 | 0.00 | 0.00 | 0.00 | 82 | 1005.8 |
| 20260905130241 | 83 | 178 | 0.0 | 0.0 | 0.00 | 0.00 | 0.00 | 82 | 1005.8 |
| 20260905130203 | 83 | 189 | 0.0 | 0.0 | 0.00 | 0.00 | 0.00 | 82 | 1005.8 |
| 20260905130104 | 83 | 175 | 0.0 | 0.0 | 0.00 | 0.00 | 0.00 | 82 | 1005.8 |
| 20260905130000 | 83 | 170 | 0.0 | 0.0 | 0.00 | 0.00 | 0.00 | 82 | 1005.8 |
| 20260905125921 | 83 | 170 | 0.0 | 0.0 | 0.00 | 0.00 | 0.00 | 82 | 1005.8 |
| 20260905125812 | 83 | 164 | 0.0 | 0.0 | 0.00 | 0.00 | 0.00 | 82 | 1005.8 |
| 20260905125712 | 83 | 182 | 0.0 | 0.0 | 0.00 | 0.00 | 0.00 | 83 | 1005.8 |
| 20260905125543 | 83 | 173 | 0.0 | 0.0 | 0.00 | 0.00 | 0.00 | 82 | 1005.8 |
| 20260905125444 | 82 | 189 | 0.0 | 0.0 | 0.00 | 0.00 | 0.00 | 83 | 1005.8 |
| 20260905125341 | 82 | 173 | 0.0 | 0.0 | 0.00 | 0.00 | 0.00 | 83 | 1005.8 |
| 20260905125306 | 82 | 213 | 0.0 | 0.0 | 0.00 | 0.00 | 0.00 | 83 | 1005.8 |
| 20260905125157 | 82 | 185 | 0.0 | 0.0 | 0.00 | 0.00 | 0.00 | 83 | 1005.8 |
| 20260905125049 | 82 | 178 | 0.0 | 0.0 | 0.00 | 0.00 | 0.00 | 83 | 1005.6 |
| 20260905124949 | 82 | 171 | 0.0 | 0.0 | 0.00 | 0.00 | 0.00 | 83 | 1005.6 |
| 20260905124844 | 82 | 171 | 0.0 | 0.0 | 0.00 | 0.00 | 0.00 | 83 | 1005.6 |
| 20260905124744 | 82 | 171 | 0.0 | 0.0 | 0.00 | 0.00 | 0.00 | 83 | 1005.6 |
| 20260905124656 | 82 | 171 | 0.0 | 0.0 | 0.00 | 0.00 | 0.00 | 83 | 1005.6 |
| 20260905124534 | 82 | 186 | 0.0 | 0.0 | 0.00 | 0.00 | 0.00 | 83 | 1005.6 |
| 20260905124442 | 82 | 173 | 0.0 | 0.0 | 0.00 | 0.00 | 0.00 | 83 | 1005.6 |
| 20260905124357 | 82 | 173 | 0.0 | 0.0 | 0.00 | 0.00 | 0.00 | 83 | 1005.6 |
| 20260905124301 | 82 | 244 | 0.0 | 0.0 | 0.00 | 0.00 | 0.00 | 83 | 1005.6 |
| 20260905124153 | 82 | 209 | 0.0 | 0.0 | 0.00 | 0.00 | 0.00 | 83 | 1005.6 |
| 20260905124055 | 82 | 169 | 0.0 | 0.0 | 0.00 | 0.00 | 0.00 | 83 | 1005.6 |
| 20260905123947 | 82 | 169 | 0.0 | 0.0 | 0.00 | 0.00 | 0.00 | 83 | 1005.6 |
| 20260905123853 | 82 | 184 | 0.0 | 0.0 | 0.00 | 0.00 | 0.00 | 83 | 1005.6 |
| 20260905123807 | 82 | 216 | 0.0 | 0.0 | 0.00 | 0.00 | 0.00 | 83 | 1005.6 |
| 20260905123651 | 82 | 216 | 0.0 | 0.0 | 0.00 | 0.00 | 0.00 | 83 | 1005.6 |
| 20260905123545 | 82 | 202 | 0.0 | 0.0 | 0.00 | 0.00 | 0.00 | 83 | 1005.5 |
| 20260905123507 | 82 | 190 | 0.0 | 0.0 | 0.00 | 0.00 | 0.00 | 83 | 1005.5 |
| 20260905123358 | 82 | 196 | 0.0 | 0.0 | 0.00 | 0.00 | 0.00 | 83 | 1005.5 |
| 20260905123243 | 82 | 196 | 0.0 | 0.0 | 0.00 | 0.00 | 0.00 | 83 | 1005.5 |
| 20260905123158 | 82 | 197 | 0.0 | 0.0 | 0.00 | 0.00 | 0.00 | 83 | 1005.5 |
| 20260905123100 | 82 | 202 | 1.0 | 0.0 | 0.00 | 0.00 | 0.00 | 83 | 1005.5 |
| 20260905122956 | 82 | 167 | 1.0 | 0.0 | 0.00 | 0.00 | 0.00 | 83 | 1005.5 |
| 20260905122916 | 82 | 175 | 1.0 | 0.0 | 0.00 | 0.00 | 0.00 | 83 | 1005.5 |
| 20260905122810 | 82 | 215 | 1.0 | 0.0 | 0.00 | 0.00 | 0.00 | 82 | 1005.5 |
| 20260905122714 | 82 | 202 | 1.0 | 0.0 | 0.00 | 0.00 | 0.00 | 82 | 1005.5 |
| 20260905122545 | 82 | 215 | 1.0 | 0.0 | 0.00 | 0.00 | 0.00 | 83 | 1005.5 |
| 20260905122444 | 82 | 208 | 1.0 | 0.0 | 0.00 | 0.00 | 0.00 | 82 | 1005.5 |
| 20260905122340 | 82 | 180 | 1.0 | 0.0 | 0.00 | 0.00 | 0.00 | 82 | 1005.5 |
| 20260905122306 | 82 | 163 | 1.0 | 0.0 | 0.00 | 0.00 | 0.00 | 82 | 1005.5 |
| 20260905122228 | 82 | 194 | 1.0 | 0.0 | 0.00 | 0.00 | 0.00 | 82 | 1005.5 |
| 20260905122045 | 82 | 161 | 0.0 | 0.0 | 0.00 | 0.00 | 0.00 | 82 | 1005.3 |
| 20260905121943 | 82 | 178 | 0.0 | 0.0 | 0.00 | 0.00 | 0.00 | 82 | 1005.3 |
| 20260905121842 | 82 | 182 | 0.0 | 0.0 | 0.00 | 0.00 | 0.00 | 82 | 1005.3 |
| 20260905121807 | 82 | 184 | 0.0 | 0.0 | 0.00 | 0.00 | 0.00 | 82 | 1005.3 |
| 20260905121729 | 82 | 208 | 0.0 | 0.0 | 0.00 | 0.00 | 0.00 | 82 | 1005.3 |
| 20260905121540 | 82 | 217 | 0.0 | 0.0 | 0.00 | 0.00 | 0.00 | 82 | 1005.3 |
| 20260905121456 | 82 | 209 | 0.0 | 0.0 | 0.00 | 0.00 | 0.00 | 82 | 1005.3 |
| 20260905121338 | 82 | 167 | 0.0 | 0.0 | 0.00 | 0.00 | 0.00 | 82 | 1005.3 |
| 20260905121245 | 82 | 165 | 0.0 | 0.0 | 0.00 | 0.00 | 0.00 | 82 | 1005.3 |
| 20260905121157 | 82 | 234 | 0.0 | 0.0 | 0.00 | 0.00 | 0.00 | 82 | 1005.3 |
| 20260905121059 | 82 | 169 | 0.0 | 0.0 | 0.00 | 0.00 | 0.00 | 82 | 1005.3 |
| 20260905120949 | 82 | 165 | 0.0 | 0.0 | 0.00 | 0.00 | 0.00 | 82 | 1005.3 |
| 20260905120850 | 82 | 175 | 0.0 | 0.0 | 0.00 | 0.00 | 0.00 | 82 | 1005.3 |
| 20260905120743 | 82 | 173 | 0.0 | 0.0 | 0.00 | 0.00 | 0.00 | 82 | 1005.3 |
| 20260905120648 | 82 | 209 | 1.0 | 0.0 | 0.00 | 0.00 | 0.00 | 82 | 1005.3 |
| 20260905120541 | 82 | 196 | 1.0 | 0.0 | 0.00 | 0.00 | 0.00 | 82 | 1005.2 |
| 20260905120505 | 82 | 197 | 1.0 | 0.0 | 0.00 | 0.00 | 0.00 | 82 | 1005.2 |
| 20260905120400 | 82 | 191 | 1.0 | 0.0 | 0.00 | 0.00 | 0.00 | 82 | 1005.2 |
| 20260905120303 | 82 | 196 | 1.0 | 0.0 | 0.00 | 0.00 | 0.00 | 82 | 1005.2 |
| 20260905120158 | 82 | 223 | 1.0 | 0.0 | 0.00 | 0.00 | 0.00 | 82 | 1005.2 |
| 20260905120104 | 82 | 212 | 1.0 | 0.0 | 0.00 | 0.00 | 0.00 | 82 | 1005.2 |
| 20260905115956 | 82 | 153 | 1.0 | 0.0 | 0.00 | 0.00 | 0.00 | 82 | 1005.2 |
| 20260905115856 | 82 | 169 | 1.0 | 0.0 | 0.00 | 0.00 | 0.00 | 82 | 1005.2 |
| 20260905115752 | 82 | 194 | 1.0 | 0.0 | 0.00 | 0.00 | 0.00 | 82 | 1005.2 |
| 20260905115647 | 83 | 205 | 0.0 | 0.0 | 0.00 | 0.00 | 0.00 | 82 | 1005.2 |
| 20260905115547 | 82 | 167 | 0.0 | 0.0 | 0.00 | 0.00 | 0.00 | 82 | 1005.2 |
| 20260905115443 | 82 | 217 | 0.0 | 0.0 | 0.00 | 0.00 | 0.00 | 82 | 1005.2 |
| 20260905115404 | 82 | 210 | 0.0 | 0.0 | 0.00 | 0.00 | 0.00 | 82 | 1005.2 |
| 20260905115306 | 83 | 194 | 0.0 | 0.0 | 0.00 | 0.00 | 0.00 | 82 | 1005.2 |
| 20260905115202 | 83 | 186 | 0.0 | 0.0 | 0.00 | 0.00 | 0.00 | 82 | 1005.2 |
| 20260905115122 | 83 | 172 | 0.0 | 0.0 | 0.00 | 0.00 | 0.00 | 82 | 1005.2 |
| 20260905114958 | 83 | 191 | 0.0 | 0.0 | 0.00 | 0.00 | 0.00 | 82 | 1005.1 |
| 20260905114852 | 83 | 142 | 0.0 | 0.0 | 0.00 | 0.00 | 0.00 | 82 | 1005.1 |
| 20260905114813 | 83 | 200 | 0.0 | 0.0 | 0.00 | 0.00 | 0.00 | 82 | 1005.1 |
| 20260905114650 | 83 | 178 | 0.0 | 0.0 | 0.00 | 0.00 | 0.00 | 82 | 1005.1 |
| 20260905114551 | 83 | 211 | 0.0 | 0.0 | 0.00 | 0.00 | 0.00 | 82 | 1005.1 |
| 20260905114445 | 83 | 190 | 0.0 | 0.0 | 0.00 | 0.00 | 0.00 | 82 | 1005.1 |
| 20260905114344 | 83 | 221 | 0.0 | 0.0 | 0.00 | 0.00 | 0.00 | 82 | 1005.1 |
| 20260905114250 | 83 | 214 | 0.0 | 0.0 | 0.00 | 0.00 | 0.00 | 82 | 1005.1 |
| 20260905114141 | 83 | 200 | 0.0 | 0.0 | 0.00 | 0.00 | 0.00 | 82 | 1005.1 |
| 20260905114105 | 83 | 184 | 0.0 | 0.0 | 0.00 | 0.00 | 0.00 | 82 | 1005.1 |
| 20260905113940 | 83 | 211 | 0.0 | 0.0 | 0.00 | 0.00 | 0.00 | 82 | 1005.1 |
| 20260905113903 | 83 | 209 | 0.0 | 0.0 | 0.00 | 0.00 | 0.00 | 82 | 1005.1 |
| 20260905113757 | 83 | 191 | 0.0 | 0.0 | 0.00 | 0.00 | 0.00 | 82 | 1005.1 |
| 20260905113649 | 83 | 213 | 0.0 | 0.0 | 0.00 | 0.00 | 0.00 | 82 | 1005.1 |
| 20260905113554 | 83 | 200 | 0.0 | 0.0 | 0.00 | 0.00 | 0.00 | 82 | 1005.0 |
| 20260905113446 | 83 | 178 | 0.0 | 0.0 | 0.00 | 0.00 | 0.00 | 82 | 1005.0 |
| 20260905113341 | 83 | 201 | 0.0 | 0.0 | 0.00 | 0.00 | 0.00 | 82 | 1005.0 |
| 20260905113301 | 83 | 226 | 0.0 | 0.0 | 0.00 | 0.00 | 0.00 | 82 | 1005.0 |
| 20260905113205 | 83 | 215 | 0.0 | 0.0 | 0.00 | 0.00 | 0.00 | 82 | 1005.0 |
| 20260905113037 | 83 | 150 | 0.0 | 0.0 | 0.00 | 0.00 | 0.00 | 82 | 1005.0 |
| 20260905112951 | 83 | 201 | 0.0 | 0.0 | 0.00 | 0.00 | 0.00 | 82 | 1005.0 |
| 20260905112853 | 83 | 230 | 0.0 | 0.0 | 0.00 | 0.00 | 0.00 | 82 | 1005.0 |
| 20260905112749 | 83 | 194 | 0.0 | 0.0 | 0.00 | 0.00 | 0.00 | 82 | 1005.0 |
| 20260905112641 | 83 | 199 | 0.0 | 0.0 | 0.00 | 0.00 | 0.00 | 82 | 1005.0 |
| 20260905112542 | 83 | 193 | 0.0 | 0.0 | 0.00 | 0.00 | 0.00 | 82 | 1005.0 |
| 20260905112455 | 83 | 186 | 0.0 | 0.0 | 0.00 | 0.00 | 0.00 | 82 | 1005.0 |
| 20260905112357 | 83 | 279 | 0.0 | 0.0 | 0.00 | 0.00 | 0.00 | 82 | 1005.0 |
| 20260905112250 | 83 | 205 | 1.0 | 0.0 | 0.00 | 0.00 | 0.00 | 82 | 1005.0 |
| 20260905112144 | 83 | 175 | 1.0 | 0.0 | 0.00 | 0.00 | 0.00 | 82 | 1005.0 |
| 20260905112052 | 83 | 175 | 1.0 | 0.0 | 0.00 | 0.00 | 0.00 | 82 | 1005.0 |
| 20260905111950 | 83 | 175 | 1.0 | 0.0 | 0.00 | 0.00 | 0.00 | 82 | 1005.0 |
| 20260905111842 | 83 | 221 | 1.0 | 0.0 | 0.00 | 0.00 | 0.00 | 82 | 1005.0 |
| 20260905111809 | 83 | 165 | 1.0 | 0.0 | 0.00 | 0.00 | 0.00 | 82 | 1005.0 |
| 20260905111709 | 83 | 180 | 1.0 | 0.0 | 0.00 | 0.00 | 0.00 | 82 | 1005.0 |
| 20260905111540 | 83 | 169 | 1.0 | 0.0 | 0.00 | 0.00 | 0.00 | 82 | 1005.0 |
| 20260905111459 | 83 | 182 | 1.0 | 0.0 | 0.00 | 0.00 | 0.00 | 82 | 1005.0 |
| 20260905111405 | 83 | 226 | 1.0 | 0.0 | 0.00 | 0.00 | 0.00 | 82 | 1005.0 |
| 20260905111300 | 83 | 169 | 1.0 | 0.0 | 0.00 | 0.00 | 0.00 | 82 | 1005.0 |
| 20260905111222 | 83 | 161 | 1.0 | 0.0 | 0.00 | 0.00 | 0.00 | 82 | 1005.0 |
| 20260905111056 | 83 | 211 | 1.0 | 0.0 | 0.00 | 0.00 | 0.00 | 82 | 1005.0 |
| 20260905110951 | 83 | 149 | 1.0 | 0.0 | 0.00 | 0.00 | 0.00 | 82 | 1005.0 |
| 20260905110852 | 83 | 163 | 1.0 | 0.0 | 0.00 | 0.00 | 0.00 | 82 | 1005.0 |
| 20260905110743 | 83 | 192 | 1.0 | 0.0 | 0.00 | 0.00 | 0.00 | 82 | 1005.0 |
| 20260905110645 | 83 | 178 | 1.0 | 0.0 | 0.00 | 0.00 | 0.00 | 82 | 1005.0 |
| 20260905110541 | 83 | 153 | 1.0 | 0.0 | 0.00 | 0.00 | 0.00 | 82 | 1005.1 |
| 20260905110506 | 83 | 164 | 1.0 | 0.0 | 0.00 | 0.00 | 0.00 | 82 | 1005.1 |
| 20260905110338 | 83 | 192 | 1.0 | 0.0 | 0.00 | 0.00 | 0.00 | 82 | 1005.1 |
| 20260905110250 | 83 | 192 | 1.0 | 0.0 | 0.00 | 0.00 | 0.00 | 82 | 1005.1 |
| 20260905110152 | 83 | 248 | 1.0 | 0.0 | 0.00 | 0.00 | 0.00 | 81 | 1005.1 |
| 20260905110045 | 83 | 225 | 1.0 | 0.0 | 0.00 | 0.00 | 0.00 | 82 | 1005.1 |
| 20260905110006 | 83 | 178 | 1.0 | 0.0 | 0.00 | 0.00 | 0.00 | 82 | 1005.1 |
| 20260905105841 | 83 | 183 | 1.0 | 0.0 | 0.00 | 0.00 | 0.00 | 81 | 1005.1 |
| 20260905105745 | 83 | 192 | 1.0 | 0.0 | 0.00 | 0.00 | 0.00 | 81 | 1005.1 |
| 20260905105641 | 83 | 209 | 1.0 | 0.0 | 0.00 | 0.00 | 0.00 | 81 | 1005.1 |
| 20260905105603 | 83 | 217 | 1.0 | 0.0 | 0.00 | 0.00 | 0.00 | 81 | 1005.1 |
| 20260905105455 | 83 | 225 | 1.0 | 0.0 | 0.00 | 0.00 | 0.00 | 81 | 1005.1 |
| 20260905105350 | 83 | 197 | 1.0 | 0.0 | 0.00 | 0.00 | 0.00 | 81 | 1005.1 |
| 20260905105251 | 83 | 199 | 1.0 | 0.0 | 0.00 | 0.00 | 0.00 | 81 | 1005.1 |
| 20260905105145 | 83 | 210 | 1.0 | 0.0 | 0.00 | 0.00 | 0.00 | 81 | 1005.1 |
| 20260905105106 | 83 | 194 | 1.0 | 0.0 | 0.00 | 0.00 | 0.00 | 81 | 1005.1 |
| 20260905104938 | 83 | 205 | 1.0 | 0.0 | 0.00 | 0.00 | 0.00 | 81 | 1005.1 |
| 20260905104849 | 83 | 239 | 1.0 | 0.0 | 0.00 | 0.00 | 0.00 | 81 | 1005.1 |
| 20260905104752 | 83 | 232 | 1.0 | 0.0 | 0.00 | 0.00 | 0.00 | 81 | 1005.1 |
| 20260905104645 | 83 | 205 | 1.0 | 0.0 | 0.00 | 0.00 | 0.00 | 81 | 1005.1 |
| 20260905104606 | 83 | 177 | 1.0 | 0.0 | 0.00 | 0.00 | 0.00 | 81 | 1005.1 |
| 20260905104442 | 83 | 164 | 1.0 | 0.0 | 0.00 | 0.00 | 0.00 | 81 | 1005.1 |
| 20260905104354 | 83 | 174 | 1.0 | 0.0 | 0.00 | 0.00 | 0.00 | 81 | 1005.1 |
| 20260905104257 | 83 | 115 | 1.0 | 0.0 | 0.00 | 0.00 | 0.00 | 81 | 1005.1 |
| 20260905104156 | 83 | 180 | 1.0 | 0.0 | 0.00 | 0.00 | 0.00 | 81 | 1005.1 |
| 20260905104051 | 83 | 157 | 1.0 | 0.0 | 0.00 | 0.00 | 0.00 | 81 | 1005.1 |
| 20260905103952 | 83 | 203 | 1.0 | 0.0 | 0.00 | 0.00 | 0.00 | 81 | 1005.1 |
| 20260905103845 | 83 | 184 | 1.0 | 0.0 | 0.00 | 0.00 | 0.00 | 81 | 1005.1 |
| 20260905103741 | 83 | 202 | 1.0 | 0.0 | 0.00 | 0.00 | 0.00 | 81 | 1005.1 |
| 20260905103643 | 83 | 211 | 1.0 | 0.0 | 0.00 | 0.00 | 0.00 | 81 | 1005.1 |
| 20260905103602 | 83 | 153 | 1.0 | 0.0 | 0.00 | 0.00 | 0.00 | 81 | 1005.1 |
| 20260905103505 | 83 | 178 | 1.0 | 0.0 | 0.00 | 0.00 | 0.00 | 81 | 1005.1 |
| 20260905103427 | 83 | 171 | 1.0 | 0.0 | 0.00 | 0.00 | 0.00 | 81 | 1005.1 |
| 20260905103240 | 83 | 215 | 1.0 | 0.0 | 0.00 | 0.00 | 0.00 | 81 | 1005.1 |
| 20260905103154 | 83 | 196 | 1.0 | 0.0 | 0.00 | 0.00 | 0.00 | 81 | 1005.1 |
| 20260905103056 | 83 | 231 | 1.0 | 0.0 | 0.00 | 0.00 | 0.00 | 81 | 1005.1 |
| 20260905102952 | 83 | 261 | 1.0 | 0.0 | 0.00 | 0.00 | 0.00 | 81 | 1005.1 |
| 20260905102846 | 83 | 197 | 1.0 | 0.0 | 0.00 | 0.00 | 0.00 | 81 | 1005.1 |
| 20260905102811 | 83 | 169 | 1.0 | 0.0 | 0.00 | 0.00 | 0.00 | 81 | 1005.1 |
| 20260905102641 | 83 | 231 | 1.0 | 0.0 | 0.00 | 0.00 | 0.00 | 81 | 1005.1 |
| 20260905102545 | 83 | 205 | 1.0 | 0.0 | 0.00 | 0.00 | 0.00 | 81 | 1005.1 |
| 20260905102441 | 83 | 201 | 1.0 | 0.0 | 0.00 | 0.00 | 0.00 | 81 | 1005.1 |
| 20260905102402 | 83 | 181 | 1.0 | 0.0 | 0.00 | 0.00 | 0.00 | 81 | 1005.1 |
| 20260905102306 | 83 | 159 | 1.0 | 0.0 | 0.00 | 0.00 | 0.00 | 81 | 1005.1 |
| 20260905102214 | 83 | 219 | 1.0 | 0.0 | 0.00 | 0.00 | 0.00 | 81 | 1005.1 |
| 20260905102101 | 83 | 196 | 1.0 | 0.0 | 0.00 | 0.00 | 0.00 | 81 | 1005.1 |
| 20260905101953 | 83 | 198 | 1.0 | 0.0 | 0.00 | 0.00 | 0.00 | 81 | 1005.2 |
| 20260905101856 | 83 | 161 | 1.0 | 0.0 | 0.00 | 0.00 | 0.00 | 81 | 1005.2 |
| 20260905101747 | 83 | 171 | 1.0 | 0.0 | 0.00 | 0.00 | 0.00 | 81 | 1005.2 |
| 20260905101708 | 83 | 153 | 1.0 | 0.0 | 0.00 | 0.00 | 0.00 | 81 | 1005.2 |
| 20260905101558 | 83 | 203 | 1.0 | 0.0 | 0.00 | 0.00 | 0.00 | 81 | 1005.2 |
| 20260905101454 | 83 | 200 | 1.0 | 0.0 | 0.00 | 0.00 | 0.00 | 81 | 1005.2 |
| 20260905101359 | 83 | 159 | 1.0 | 0.0 | 0.00 | 0.00 | 0.00 | 81 | 1005.2 |
| 20260905101250 | 83 | 182 | 1.0 | 0.0 | 0.00 | 0.00 | 0.00 | 81 | 1005.2 |
| 20260905101152 | 83 | 212 | 1.0 | 0.0 | 0.00 | 0.00 | 0.00 | 81 | 1005.2 |
| 20260905101043 | 84 | 169 | 1.0 | 0.0 | 0.00 | 0.00 | 0.00 | 81 | 1005.2 |
| 20260905101007 | 84 | 200 | 1.0 | 0.0 | 0.00 | 0.00 | 0.00 | 81 | 1005.2 |
| 20260905100840 | 84 | 195 | 1.0 | 0.0 | 0.00 | 0.00 | 0.00 | 81 | 1005.2 |
| 20260905100752 | 84 | 169 | 1.0 | 0.0 | 0.00 | 0.00 | 0.00 | 81 | 1005.2 |
| 20260905100714 | 84 | 209 | 1.0 | 0.0 | 0.00 | 0.00 | 0.00 | 81 | 1005.2 |
| 20260905100548 | 84 | 163 | 1.0 | 0.0 | 0.00 | 0.00 | 0.00 | 81 | 1005.5 |
| 20260905100453 | 84 | 196 | 1.0 | 0.0 | 0.00 | 0.00 | 0.00 | 81 | 1005.5 |
| 20260905100348 | 84 | 205 | 1.0 | 0.0 | 0.00 | 0.00 | 0.00 | 81 | 1005.5 |
| 20260905100241 | 84 | 199 | 1.0 | 0.0 | 0.00 | 0.00 | 0.00 | 81 | 1005.5 |
| 20260905100144 | 84 | 141 | 1.0 | 0.0 | 0.00 | 0.00 | 0.00 | 81 | 1005.5 |
| 20260905100042 | 84 | 286 | 1.0 | 0.0 | 0.00 | 0.00 | 0.00 | 81 | 1005.5 |
| 20260905100003 | 84 | 154 | 1.0 | 0.0 | 0.00 | 0.00 | 0.00 | 81 | 1005.5 |
| 20260905095914 | 84 | 220 | 1.0 | 0.0 | 0.00 | 0.00 | 0.00 | 81 | 1005.5 |
| 20260905095801 | 84 | 178 | 0.0 | 0.0 | 0.00 | 0.00 | 0.00 | 81 | 1005.5 |
| 20260905095652 | 84 | 203 | 0.0 | 0.0 | 0.00 | 0.00 | 0.00 | 81 | 1005.5 |
| 20260905095559 | 84 | 213 | 0.0 | 0.0 | 0.00 | 0.00 | 0.00 | 81 | 1005.5 |
| 20260905095439 | 84 | 213 | 0.0 | 0.0 | 0.00 | 0.00 | 0.00 | 81 | 1005.5 |
| 20260905095340 | 84 | 213 | 1.0 | 0.0 | 0.00 | 0.00 | 0.00 | 81 | 1005.5 |
| 20260905095306 | 84 | 213 | 1.0 | 0.0 | 0.00 | 0.00 | 0.00 | 81 | 1005.5 |
| 20260905095142 | 84 | 202 | 0.0 | 0.0 | 0.00 | 0.00 | 0.00 | 81 | 1005.5 |
| 20260905095056 | 84 | 173 | 0.0 | 0.0 | 0.00 | 0.00 | 0.00 | 81 | 1005.5 |
| 20260905095001 | 84 | 197 | 0.0 | 0.0 | 0.00 | 0.00 | 0.00 | 81 | 1005.4 |
| 20260905094853 | 84 | 155 | 0.0 | 0.0 | 0.00 | 0.00 | 0.00 | 81 | 1005.4 |
| 20260905094746 | 84 | 155 | 0.0 | 0.0 | 0.00 | 0.00 | 0.00 | 81 | 1005.4 |
| 20260905094647 | 84 | 220 | 0.0 | 0.0 | 0.00 | 0.00 | 0.00 | 81 | 1005.4 |
| 20260905094542 | 84 | 177 | 0.0 | 0.0 | 0.00 | 0.00 | 0.00 | 81 | 1005.4 |
| 20260905094438 | 84 | 178 | 0.0 | 0.0 | 0.00 | 0.00 | 0.00 | 81 | 1005.4 |
| 20260905094403 | 84 | 178 | 0.0 | 0.0 | 0.00 | 0.00 | 0.00 | 81 | 1005.4 |
| 20260905094325 | 84 | 192 | 1.0 | 0.0 | 0.00 | 0.00 | 0.00 | 81 | 1005.4 |
| 20260905094159 | 84 | 155 | 1.0 | 0.0 | 0.00 | 0.00 | 0.00 | 81 | 1005.4 |
| 20260905094121 | 84 | 205 | 1.0 | 0.0 | 0.00 | 0.00 | 0.00 | 81 | 1005.4 |
| 20260905093959 | 84 | 220 | 1.0 | 0.0 | 0.00 | 0.00 | 0.00 | 81 | 1005.4 |
| 20260905093920 | 84 | 184 | 1.0 | 0.0 | 0.00 | 0.00 | 0.00 | 81 | 1005.4 |
| 20260905093752 | 84 | 197 | 1.0 | 0.0 | 0.00 | 0.00 | 0.00 | 81 | 1005.4 |
| 20260905093646 | 84 | 211 | 1.0 | 0.0 | 0.00 | 0.00 | 0.00 | 81 | 1005.4 |
| 20260905093552 | 84 | 200 | 1.0 | 0.0 | 0.00 | 0.00 | 0.00 | 81 | 1005.4 |
| 20260905093448 | 84 | 201 | 1.0 | 0.0 | 0.00 | 0.00 | 0.00 | 81 | 1005.4 |
| 20260905093340 | 84 | 200 | 1.0 | 0.0 | 0.00 | 0.00 | 0.00 | 81 | 1005.4 |
| 20260905093305 | 84 | 169 | 1.0 | 0.0 | 0.00 | 0.00 | 0.00 | 81 | 1005.4 |
| 20260905093227 | 84 | 190 | 1.0 | 0.0 | 0.00 | 0.00 | 0.00 | 81 | 1005.4 |
| 20260905093118 | 84 | 219 | 1.0 | 0.0 | 0.00 | 0.00 | 0.00 | 81 | 1005.4 |
| 20260905093001 | 84 | 213 | 1.0 | 0.0 | 0.00 | 0.00 | 0.00 | 81 | 1005.4 |
| 20260905092841 | 84 | 205 | 1.0 | 0.0 | 0.00 | 0.00 | 0.00 | 81 | 1005.4 |
| 20260905092752 | 84 | 173 | 1.0 | 0.0 | 0.00 | 0.00 | 0.00 | 81 | 1005.4 |
| 20260905092651 | 84 | 148 | 1.0 | 0.0 | 0.00 | 0.00 | 0.00 | 81 | 1005.4 |
| 20260905092548 | 84 | 207 | 2.0 | 0.0 | 0.00 | 0.00 | 0.00 | 81 | 1005.4 |
| 20260905092449 | 84 | 202 | 1.0 | 0.0 | 0.00 | 0.00 | 0.00 | 81 | 1005.4 |
| 20260905092400 | 84 | 267 | 1.0 | 0.0 | 0.00 | 0.00 | 0.00 | 81 | 1005.4 |
| 20260905092244 | 84 | 210 | 1.0 | 0.0 | 0.00 | 0.00 | 0.00 | 81 | 1005.4 |
| 20260905092204 | 84 | 196 | 1.0 | 0.0 | 0.00 | 0.00 | 0.00 | 81 | 1005.4 |
| 20260905092054 | 84 | 226 | 1.0 | 0.0 | 0.00 | 0.00 | 0.00 | 81 | 1005.6 |
| 20260905092000 | 84 | 168 | 1.0 | 0.0 | 0.00 | 0.00 | 0.00 | 81 | 1005.6 |
| 20260905091851 | 84 | 195 | 1.0 | 0.0 | 0.00 | 0.00 | 0.00 | 81 | 1005.6 |
| 20260905091744 | 84 | 228 | 1.0 | 0.0 | 0.00 | 0.00 | 0.00 | 81 | 1005.6 |
| 20260905091645 | 84 | 223 | 1.0 | 0.0 | 0.00 | 0.00 | 0.00 | 81 | 1005.6 |
| 20260905091541 | 84 | 240 | 1.0 | 0.0 | 0.00 | 0.00 | 0.00 | 81 | 1005.6 |
| 20260905091503 | 84 | 215 | 1.0 | 0.0 | 0.00 | 0.00 | 0.00 | 81 | 1005.6 |
| 20260905091358 | 84 | 200 | 1.0 | 0.0 | 0.00 | 0.00 | 0.00 | 81 | 1005.6 |
| 20260905091257 | 84 | 198 | 1.0 | 0.0 | 0.00 | 0.00 | 0.00 | 81 | 1005.6 |
| 20260905091217 | 84 | 211 | 1.0 | 0.0 | 0.00 | 0.00 | 0.00 | 81 | 1005.6 |
| 20260905091056 | 84 | 182 | 1.0 | 0.0 | 0.00 | 0.00 | 0.00 | 81 | 1005.6 |
| 20260905090949 | 84 | 205 | 1.0 | 0.0 | 0.00 | 0.00 | 0.00 | 81 | 1005.6 |
| 20260905090850 | 84 | 215 | 1.0 | 0.0 | 0.00 | 0.00 | 0.00 | 81 | 1005.6 |
| 20260905090742 | 84 | 195 | 1.0 | 0.0 | 0.00 | 0.00 | 0.00 | 81 | 1005.6 |
| 20260905090703 | 84 | 193 | 1.0 | 0.0 | 0.00 | 0.00 | 0.00 | 81 | 1005.6 |
| 20260905090557 | 84 | 167 | 1.0 | 0.0 | 0.00 | 0.00 | 0.00 | 81 | 1005.6 |
| 20260905090521 | 84 | 236 | 1.0 | 0.0 | 0.00 | 0.00 | 0.00 | 81 | 1005.6 |
| 20260905090357 | 84 | 208 | 1.0 | 0.0 | 0.00 | 0.00 | 0.00 | 81 | 1005.6 |
| 20260905090317 | 84 | 223 | 1.0 | 0.0 | 0.00 | 0.00 | 0.00 | 81 | 1005.6 |
| 20260905090149 | 84 | 195 | 1.0 | 0.0 | 0.00 | 0.00 | 0.00 | 81 | 1005.6 |
| 20260905090044 | 84 | 164 | 1.0 | 0.0 | 0.00 | 0.00 | 0.00 | 81 | 1005.6 |
| 20260905085945 | 84 | 209 | 1.0 | 0.0 | 0.00 | 0.00 | 0.00 | 81 | 1005.6 |
| 20260905085841 | 84 | 177 | 1.0 | 0.0 | 0.00 | 0.00 | 0.00 | 81 | 1005.6 |
| 20260905085741 | 84 | 200 | 1.0 | 0.0 | 0.00 | 0.00 | 0.00 | 81 | 1005.6 |
| 20260905085703 | 84 | 200 | 1.0 | 0.0 | 0.00 | 0.00 | 0.00 | 81 | 1005.6 |
| 20260905085600 | 84 | 220 | 1.0 | 0.0 | 0.00 | 0.00 | 0.00 | 81 | 1005.6 |
| 20260905085459 | 84 | 168 | 1.0 | 0.0 | 0.00 | 0.00 | 0.00 | 81 | 1005.6 |
| 20260905085355 | 84 | 196 | 1.0 | 0.0 | 0.00 | 0.00 | 0.00 | 81 | 1005.6 |
| 20260905085248 | 84 | 217 | 1.0 | 0.0 | 0.00 | 0.00 | 0.00 | 81 | 1005.6 |
| 20260905085149 | 84 | 169 | 1.0 | 0.0 | 0.00 | 0.00 | 0.00 | 81 | 1005.6 |
| 20260905085041 | 84 | 190 | 0.0 | 0.0 | 0.00 | 0.00 | 0.00 | 81 | 1005.6 |
| 20260905085005 | 84 | 179 | 0.0 | 0.0 | 0.00 | 0.00 | 0.00 | 81 | 1005.6 |
| 20260905084856 | 84 | 192 | 0.0 | 0.0 | 0.00 | 0.00 | 0.00 | 81 | 1005.6 |
| 20260905084804 | 84 | 236 | 0.0 | 0.0 | 0.00 | 0.00 | 0.00 | 81 | 1005.6 |
| 20260905084657 | 84 | 202 | 0.0 | 0.0 | 0.00 | 0.00 | 0.00 | 81 | 1005.6 |
| 20260905084552 | 84 | 218 | 0.0 | 0.0 | 0.00 | 0.00 | 0.00 | 81 | 1005.6 |
| 20260905084452 | 84 | 238 | 0.0 | 0.0 | 0.00 | 0.00 | 0.00 | 81 | 1005.6 |
| 20260905084348 | 84 | 162 | 0.0 | 0.0 | 0.00 | 0.00 | 0.00 | 81 | 1005.6 |
| 20260905084240 | 84 | 0.0 | 0.0 | 0.00 | 0.00 | 0.00 | 81 | 1005.6 | |
| 20260905084142 | 84 | 0.0 | 0.0 | 0.00 | 0.00 | 0.00 | 81 | 1005.6 | |
| 20260905084057 | 84 | 0.0 | 0.0 | 0.00 | 0.00 | 0.00 | 81 | 1005.6 | |
| 20260905083942 | 84 | 0.0 | 0.0 | 0.00 | 0.00 | 0.00 | 81 | 1005.6 | |
| 20260905083842 | 84 | 0.0 | 0.0 | 0.00 | 0.00 | 0.00 | 81 | 1005.6 | |
| 20260905083753 | 84 | 0.0 | 0.0 | 0.00 | 0.00 | 0.00 | 81 | 1005.6 | |
| 20260905083700 | 84 | 0.0 | 0.0 | 0.00 | 0.00 | 0.00 | 81 | 1005.6 | |
| 20260905083540 | 84 | 201 | 0.0 | 0.0 | 0.00 | 0.00 | 0.00 | 81 | 1005.6 |
| 20260905083439 | 84 | 201 | 0.0 | 0.0 | 0.00 | 0.00 | 0.00 | 81 | 1005.6 |
| 20260905083405 | 84 | 201 | 0.0 | 0.0 | 0.00 | 0.00 | 0.00 | 81 | 1005.6 |
| 20260905083248 | 84 | 201 | 0.0 | 0.0 | 0.00 | 0.00 | 0.00 | 81 | 1005.6 |
| 20260905083149 | 84 | 201 | 0.0 | 0.0 | 0.00 | 0.00 | 0.00 | 81 | 1005.6 |
| 20260905083057 | 84 | 201 | 0.0 | 0.0 | 0.00 | 0.00 | 0.00 | 81 | 1005.6 |
| 20260905082948 | 84 | 189 | 0.0 | 0.0 | 0.00 | 0.00 | 0.00 | 81 | 1005.6 |
| 20260905082852 | 84 | 198 | 0.0 | 0.0 | 0.00 | 0.00 | 0.00 | 81 | 1005.6 |
| 20260905082805 | 84 | 210 | 0.0 | 0.0 | 0.00 | 0.00 | 0.00 | 81 | 1005.6 |
| 20260905082646 | 84 | 176 | 0.0 | 0.0 | 0.00 | 0.00 | 0.00 | 81 | 1005.6 |
| 20260905082541 | 84 | 172 | 0.0 | 0.0 | 0.00 | 0.00 | 0.00 | 81 | 1005.6 |
| 20260905082507 | 84 | 192 | 0.0 | 0.0 | 0.00 | 0.00 | 0.00 | 81 | 1005.6 |
| 20260905082339 | 84 | 209 | 0.0 | 0.0 | 0.00 | 0.00 | 0.00 | 81 | 1005.6 |
| 20260905082256 | 84 | 202 | 0.0 | 0.0 | 0.00 | 0.00 | 0.00 | 81 | 1005.6 |
| 20260905082217 | 84 | 217 | 0.0 | 0.0 | 0.00 | 0.00 | 0.00 | 81 | 1005.6 |
| 20260905082051 | 84 | 189 | 0.0 | 0.0 | 0.00 | 0.00 | 0.00 | 81 | 1005.8 |
| 20260905081951 | 84 | 225 | 0.0 | 0.0 | 0.00 | 0.00 | 0.00 | 81 | 1005.8 |
| 20260905081841 | 84 | 223 | 0.0 | 0.0 | 0.00 | 0.00 | 0.00 | 81 | 1005.8 |
| 20260905081746 | 84 | 198 | 0.0 | 0.0 | 0.00 | 0.00 | 0.00 | 80 | 1005.8 |
| 20260905081645 | 84 | 198 | 0.0 | 0.0 | 0.00 | 0.00 | 0.00 | 80 | 1005.8 |
| 20260905081545 | 84 | 198 | 0.0 | 0.0 | 0.00 | 0.00 | 0.00 | 81 | 1005.8 |
| 20260905081447 | 84 | 169 | 0.0 | 0.0 | 0.00 | 0.00 | 0.00 | 80 | 1005.8 |
| 20260905081339 | 84 | 198 | 0.0 | 0.0 | 0.00 | 0.00 | 0.00 | 81 | 1005.8 |
| 20260905081245 | 84 | 205 | 0.0 | 0.0 | 0.00 | 0.00 | 0.00 | 80 | 1005.8 |
| 20260905081158 | 84 | 200 | 0.0 | 0.0 | 0.00 | 0.00 | 0.00 | 80 | 1005.8 |
| 20260905081100 | 84 | 199 | 0.0 | 0.0 | 0.00 | 0.00 | 0.00 | 80 | 1005.8 |
| 20260905080955 | 84 | 215 | 0.0 | 0.0 | 0.00 | 0.00 | 0.00 | 80 | 1005.8 |
| 20260905080850 | 84 | 216 | 0.0 | 0.0 | 0.00 | 0.00 | 0.00 | 80 | 1005.8 |
| 20260905080754 | 84 | 215 | 0.0 | 0.0 | 0.00 | 0.00 | 0.00 | 80 | 1005.8 |
| 20260905080709 | 84 | 225 | 0.0 | 0.0 | 0.00 | 0.00 | 0.00 | 80 | 1005.8 |
| 20260905080550 | 84 | 191 | 0.0 | 0.0 | 0.00 | 0.00 | 0.00 | 80 | 1005.8 |
| 20260905080445 | 84 | 167 | 0.0 | 0.0 | 0.00 | 0.00 | 0.00 | 80 | 1005.8 |
| 20260905080407 | 84 | 169 | 0.0 | 0.0 | 0.00 | 0.00 | 0.00 | 80 | 1005.8 |
| 20260905080237 | 84 | 153 | 0.0 | 0.0 | 0.00 | 0.00 | 0.00 | 80 | 1005.8 |
| 20260905080205 | 84 | 171 | 0.0 | 0.0 | 0.00 | 0.00 | 0.00 | 80 | 1005.8 |
| 20260905080040 | 84 | 171 | 0.0 | 0.0 | 0.00 | 0.00 | 0.00 | 80 | 1005.8 |
| 20260905075954 | 84 | 132 | 0.0 | 0.0 | 0.00 | 0.00 | 0.00 | 80 | 1005.8 |
| 20260905075858 | 84 | 183 | 0.0 | 0.0 | 0.00 | 0.00 | 0.00 | 80 | 1005.8 |
| 20260905075750 | 84 | 69 | 0.0 | 0.0 | 0.00 | 0.00 | 0.00 | 80 | 1005.8 |
| 20260905075641 | 84 | 192 | 0.0 | 0.0 | 0.00 | 0.00 | 0.00 | 80 | 1005.8 |
| 20260905075609 | 84 | 213 | 0.0 | 0.0 | 0.00 | 0.00 | 0.00 | 80 | 1005.8 |
| 20260905075531 | 84 | 175 | 0.0 | 0.0 | 0.00 | 0.00 | 0.00 | 80 | 1005.8 |
| 20260905075345 | 84 | 181 | 0.0 | 0.0 | 0.00 | 0.00 | 0.00 | 80 | 1005.8 |
| 20260905075300 | 84 | 181 | 0.0 | 0.0 | 0.00 | 0.00 | 0.00 | 80 | 1005.8 |
| 20260905075202 | 84 | 179 | 0.0 | 0.0 | 0.00 | 0.00 | 0.00 | 80 | 1005.8 |
| 20260905075120 | 85 | 174 | 0.0 | 0.0 | 0.00 | 0.00 | 0.00 | 80 | 1005.8 |
| 20260905074951 | 84 | 202 | 0.0 | 0.0 | 0.00 | 0.00 | 0.00 | 80 | 1005.8 |
| 20260905074916 | 85 | 202 | 0.0 | 0.0 | 0.00 | 0.00 | 0.00 | 80 | 1005.8 |
| 20260905074747 | 85 | 176 | 0.0 | 0.0 | 0.00 | 0.00 | 0.00 | 80 | 1005.8 |
| 20260905074647 | 85 | 161 | 0.0 | 0.0 | 0.00 | 0.00 | 0.00 | 80 | 1005.8 |
| 20260905074609 | 85 | 179 | 0.0 | 0.0 | 0.00 | 0.00 | 0.00 | 80 | 1005.8 |
| 20260905074440 | 85 | 150 | 0.0 | 0.0 | 0.00 | 0.00 | 0.00 | 80 | 1005.8 |
| 20260905074408 | 85 | 229 | 0.0 | 0.0 | 0.00 | 0.00 | 0.00 | 80 | 1005.8 |
| 20260905074239 | 85 | 175 | 0.0 | 0.0 | 0.00 | 0.00 | 0.00 | 80 | 1005.8 |
| 20260905074154 | 85 | 171 | 0.0 | 0.0 | 0.00 | 0.00 | 0.00 | 80 | 1005.8 |
| 20260905074055 | 85 | 238 | 0.0 | 0.0 | 0.00 | 0.00 | 0.00 | 80 | 1005.8 |
| 20260905073950 | 85 | 176 | 0.0 | 0.0 | 0.00 | 0.00 | 0.00 | 80 | 1005.8 |
| 20260905073844 | 85 | 190 | 0.0 | 0.0 | 0.00 | 0.00 | 0.00 | 80 | 1005.8 |
| 20260905073746 | 85 | 183 | 0.0 | 0.0 | 0.00 | 0.00 | 0.00 | 80 | 1005.8 |
| 20260905073647 | 85 | 222 | 0.0 | 0.0 | 0.00 | 0.00 | 0.00 | 80 | 1005.8 |
| 20260905073543 | 85 | 149 | 0.0 | 0.0 | 0.00 | 0.00 | 0.00 | 80 | 1006.3 |
| 20260905073444 | 85 | 168 | 0.0 | 0.0 | 0.00 | 0.00 | 0.00 | 80 | 1006.3 |
| 20260905073335 | 85 | 178 | 0.0 | 0.0 | 0.00 | 0.00 | 0.00 | 80 | 1006.3 |
| 20260905073302 | 85 | 144 | 0.0 | 0.0 | 0.00 | 0.00 | 0.00 | 80 | 1006.3 |
| 20260905073137 | 85 | 218 | 0.0 | 0.0 | 0.00 | 0.00 | 0.00 | 80 | 1006.3 |
| 20260905073048 | 85 | 213 | 0.0 | 0.0 | 0.00 | 0.00 | 0.00 | 80 | 1006.3 |
| 20260905072959 | 85 | 196 | 0.0 | 0.0 | 0.00 | 0.00 | 0.00 | 80 | 1006.3 |
| 20260905072850 | 85 | 234 | 0.0 | 0.0 | 0.00 | 0.00 | 0.00 | 80 | 1006.3 |
| 20260905072811 | 85 | 150 | 0.0 | 0.0 | 0.00 | 0.00 | 0.00 | 80 | 1006.3 |
| 20260905072645 | 85 | 162 | 0.0 | 0.0 | 0.00 | 0.00 | 0.00 | 80 | 1006.3 |
| 20260905072607 | 85 | 200 | 0.0 | 0.0 | 0.00 | 0.00 | 0.00 | 80 | 1006.3 |
| 20260905072508 | 85 | 200 | 0.0 | 0.0 | 0.00 | 0.00 | 0.00 | 80 | 1006.3 |
| 20260905072340 | 85 | 202 | 0.0 | 0.0 | 0.00 | 0.00 | 0.00 | 80 | 1006.3 |
| 20260905072251 | 85 | 198 | 0.0 | 0.0 | 0.00 | 0.00 | 0.00 | 80 | 1006.3 |
| 20260905072200 | 85 | 198 | 0.0 | 0.0 | 0.00 | 0.00 | 0.00 | 80 | 1006.3 |
| 20260905072050 | 85 | 211 | 0.0 | 0.0 | 0.00 | 0.00 | 0.00 | 80 | 1006.5 |
| 20260905071946 | 85 | 197 | 0.0 | 0.0 | 0.00 | 0.00 | 0.00 | 80 | 1006.5 |
| 20260905071907 | 85 | 212 | 0.0 | 0.0 | 0.00 | 0.00 | 0.00 | 80 | 1006.5 |
| 20260905071740 | 85 | 198 | 0.0 | 0.0 | 0.00 | 0.00 | 0.00 | 80 | 1006.5 |
| 20260905071643 | 85 | 202 | 0.0 | 0.0 | 0.00 | 0.00 | 0.00 | 80 | 1006.5 |
| 20260905071559 | 85 | 199 | 0.0 | 0.0 | 0.00 | 0.00 | 0.00 | 80 | 1006.5 |
| 20260905071521 | 85 | 188 | 0.0 | 0.0 | 0.00 | 0.00 | 0.00 | 80 | 1006.5 |
| 20260905071406 | 85 | 153 | 0.0 | 0.0 | 0.00 | 0.00 | 0.00 | 80 | 1006.5 |
| 20260905071256 | 85 | 186 | 0.0 | 0.0 | 0.00 | 0.00 | 0.00 | 80 | 1006.5 |
| 20260905071148 | 85 | 182 | 0.0 | 0.0 | 0.00 | 0.00 | 0.00 | 80 | 1006.5 |
| 20260905071110 | 85 | 165 | 0.0 | 0.0 | 0.00 | 0.00 | 0.00 | 80 | 1006.5 |
| 20260905070940 | 85 | 163 | 0.0 | 0.0 | 0.00 | 0.00 | 0.00 | 80 | 1006.5 |
| 20260905070848 | 85 | 163 | 0.0 | 0.0 | 0.00 | 0.00 | 0.00 | 80 | 1006.5 |
| 20260905070759 | 85 | 183 | 0.0 | 0.0 | 0.00 | 0.00 | 0.00 | 80 | 1006.5 |
| 20260905070703 | 85 | 193 | 0.0 | 0.0 | 0.00 | 0.00 | 0.00 | 80 | 1006.5 |
| 20260905070626 | 85 | 225 | 0.0 | 0.0 | 0.00 | 0.00 | 0.00 | 80 | 1006.5 |
| 20260905070438 | 85 | 224 | 0.0 | 0.0 | 0.00 | 0.00 | 0.00 | 80 | 1006.6 |
| 20260905070406 | 85 | 224 | 0.0 | 0.0 | 0.00 | 0.00 | 0.00 | 80 | 1006.6 |
| 20260905070301 | 85 | 224 | 0.0 | 0.0 | 0.00 | 0.00 | 0.00 | 80 | 1006.6 |
| 20260905070227 | 85 | 200 | 0.0 | 0.0 | 0.00 | 0.00 | 0.00 | 81 | 1006.6 |
| 20260905070042 | 85 | 200 | 1.0 | 0.0 | 0.00 | 0.00 | 0.00 | 81 | 1006.6 |
| 20260905065954 | 85 | 200 | 1.0 | 0.0 | 0.00 | 0.00 | 0.00 | 81 | 1006.6 |
| 20260905065856 | 85 | 200 | 1.0 | 0.0 | 0.00 | 0.00 | 0.00 | 81 | 1006.6 |
| 20260905065756 | 85 | 200 | 1.0 | 0.0 | 0.00 | 0.00 | 0.00 | 81 | 1006.6 |
| 20260905065720 | 85 | 263 | 0.0 | 0.0 | 0.00 | 0.00 | 0.00 | 81 | 1006.6 |
| 20260905065554 | 85 | 21 | 0.0 | 0.0 | 0.00 | 0.00 | 0.00 | 81 | 1006.6 |
| 20260905065450 | 85 | 202 | 0.0 | 0.0 | 0.00 | 0.00 | 0.00 | 81 | 1006.6 |
| 20260905065351 | 85 | 175 | 0.0 | 0.0 | 0.00 | 0.00 | 0.00 | 81 | 1006.6 |
| 20260905065243 | 85 | 175 | 0.0 | 0.0 | 0.00 | 0.00 | 0.00 | 81 | 1006.6 |
| 20260905065211 | 85 | 175 | 0.0 | 0.0 | 0.00 | 0.00 | 0.00 | 81 | 1006.6 |
| 20260905065121 | 85 | 218 | 0.0 | 0.0 | 0.00 | 0.00 | 0.00 | 81 | 1006.6 |
| 20260905064944 | 85 | 165 | 0.0 | 0.0 | 0.00 | 0.00 | 0.00 | 81 | 1006.3 |
| 20260905064834 | 85 | 169 | 0.0 | 0.0 | 0.00 | 0.00 | 0.00 | 81 | 1006.3 |
| 20260905064801 | 85 | 169 | 0.0 | 0.0 | 0.00 | 0.00 | 0.00 | 81 | 1006.3 |
| 20260905064713 | 85 | 169 | 0.0 | 0.0 | 0.00 | 0.00 | 0.00 | 81 | 1006.3 |
| 20260905064553 | 85 | 172 | 1.0 | 0.0 | 0.00 | 0.00 | 0.00 | 81 | 1006.3 |
| 20260905064515 | 85 | 207 | 1.0 | 0.0 | 0.00 | 0.00 | 0.00 | 81 | 1006.3 |
| 20260905064347 | 85 | 207 | 1.0 | 0.0 | 0.00 | 0.00 | 0.00 | 81 | 1006.3 |
| 20260905064243 | 85 | 169 | 1.0 | 0.0 | 0.00 | 0.00 | 0.00 | 81 | 1006.3 |
| 20260905064147 | 85 | 217 | 1.0 | 0.0 | 0.00 | 0.00 | 0.00 | 81 | 1006.3 |
| 20260905064042 | 85 | 178 | 1.0 | 0.0 | 0.00 | 0.00 | 0.00 | 81 | 1006.3 |
| 20260905064007 | 85 | 180 | 1.0 | 0.0 | 0.00 | 0.00 | 0.00 | 81 | 1006.3 |
| 20260905063919 | 85 | 173 | 1.0 | 0.0 | 0.00 | 0.00 | 0.00 | 81 | 1006.3 |
| 20260905063758 | 85 | 189 | 1.0 | 0.0 | 0.00 | 0.00 | 0.00 | 81 | 1006.3 |
| 20260905063650 | 85 | 259 | 1.0 | 0.0 | 0.00 | 0.00 | 0.00 | 81 | 1006.3 |
| 20260905063545 | 85 | 207 | 1.0 | 0.0 | 0.00 | 0.00 | 0.00 | 81 | 1006.3 |
| 20260905063447 | 85 | 196 | 1.0 | 0.0 | 0.00 | 0.00 | 0.00 | 80 | 1006.3 |
| 20260905063406 | 85 | 167 | 1.0 | 0.0 | 0.00 | 0.00 | 0.00 | 81 | 1006.3 |
| 20260905063246 | 85 | 173 | 1.0 | 0.0 | 0.00 | 0.00 | 0.00 | 81 | 1006.3 |
| 20260905063142 | 85 | 184 | 1.0 | 0.0 | 0.00 | 0.00 | 0.00 | 80 | 1006.3 |
| 20260905063104 | 85 | 171 | 1.0 | 0.0 | 0.00 | 0.00 | 0.00 | 80 | 1006.3 |
| 20260905063016 | 85 | 209 | 1.0 | 0.0 | 0.00 | 0.00 | 0.00 | 80 | 1006.3 |
| 20260905062859 | 85 | 160 | 1.0 | 0.0 | 0.00 | 0.00 | 0.00 | 80 | 1006.3 |
| 20260905062755 | 85 | 179 | 2.0 | 0.0 | 0.00 | 0.00 | 0.00 | 80 | 1006.3 |
| 20260905062647 | 85 | 211 | 2.0 | 0.0 | 0.00 | 0.00 | 0.00 | 80 | 1006.3 |
| 20260905062556 | 85 | 208 | 2.0 | 0.0 | 0.00 | 0.00 | 0.00 | 80 | 1006.3 |
| 20260905062508 | 85 | 127 | 2.0 | 0.0 | 0.00 | 0.00 | 0.00 | 80 | 1006.3 |
| 20260905062414 | 85 | 183 | 2.0 | 0.0 | 0.00 | 0.00 | 0.00 | 80 | 1006.3 |
| 20260905062246 | 85 | 252 | 2.0 | 0.0 | 0.00 | 0.00 | 0.00 | 80 | 1006.3 |
| 20260905062146 | 85 | 254 | 2.0 | 0.0 | 0.00 | 0.00 | 0.00 | 80 | 1006.3 |
| 20260905062059 | 85 | 166 | 2.0 | 0.0 | 0.00 | 0.00 | 0.00 | 80 | 1006.3 |
| 20260905062000 | 85 | 240 | 1.0 | 0.0 | 0.00 | 0.00 | 0.00 | 80 | 1006.2 |
| 20260905061852 | 85 | 171 | 1.0 | 0.0 | 0.00 | 0.00 | 0.00 | 80 | 1006.2 |
| 20260905061747 | 85 | 192 | 1.0 | 0.0 | 0.00 | 0.00 | 0.00 | 80 | 1006.2 |
| 20260905061654 | 85 | 206 | 1.0 | 0.0 | 0.00 | 0.00 | 0.00 | 80 | 1006.2 |
| 20260905061610 | 85 | 203 | 1.0 | 0.0 | 0.00 | 0.00 | 0.00 | 80 | 1006.2 |
| 20260905061513 | 85 | 316 | 1.0 | 0.0 | 0.00 | 0.00 | 0.00 | 80 | 1006.2 |
| 20260905061343 | 85 | 229 | 2.0 | 0.0 | 0.00 | 0.00 | 0.00 | 80 | 1006.2 |
| 20260905061305 | 85 | 173 | 2.0 | 0.0 | 0.00 | 0.00 | 0.00 | 80 | 1006.2 |
| 20260905061208 | 85 | 214 | 2.0 | 0.0 | 0.00 | 0.00 | 0.00 | 80 | 1006.2 |
| 20260905061108 | 85 | 162 | 2.0 | 0.0 | 0.00 | 0.00 | 0.00 | 80 | 1006.2 |
| 20260905060943 | 85 | 192 | 2.0 | 0.0 | 0.00 | 0.00 | 0.00 | 80 | 1006.2 |
| 20260905060858 | 85 | 174 | 2.0 | 0.0 | 0.00 | 0.00 | 0.00 | 80 | 1006.2 |
| 20260905060759 | 85 | 215 | 2.0 | 0.0 | 0.00 | 0.00 | 0.00 | 80 | 1006.2 |
| 20260905060654 | 85 | 184 | 2.0 | 0.0 | 0.00 | 0.00 | 0.00 | 80 | 1006.2 |
| 20260905060548 | 85 | 212 | 2.0 | 0.0 | 0.00 | 0.00 | 0.00 | 80 | 1006.1 |
| 20260905060450 | 85 | 173 | 2.0 | 0.0 | 0.00 | 0.00 | 0.00 | 80 | 1006.1 |
| 20260905060402 | 85 | 215 | 2.0 | 0.0 | 0.00 | 0.00 | 0.00 | 80 | 1006.1 |
| 20260905060302 | 85 | 211 | 2.0 | 0.0 | 0.00 | 0.00 | 0.00 | 80 | 1006.1 |
| 20260905060138 | 85 | 196 | 2.0 | 0.0 | 0.00 | 0.00 | 0.00 | 80 | 1006.1 |
| 20260905060044 | 85 | 188 | 3.0 | 0.0 | 0.00 | 0.00 | 0.00 | 80 | 1006.1 |
| 20260905055939 | 85 | 181 | 3.0 | 0.0 | 0.00 | 0.00 | 0.00 | 80 | 1006.1 |
| 20260905055904 | 85 | 157 | 3.0 | 0.0 | 0.00 | 0.00 | 0.00 | 80 | 1006.1 |
| 20260905055804 | 85 | 157 | 3.0 | 0.0 | 0.00 | 0.00 | 0.00 | 80 | 1006.1 |
| 20260905055638 | 85 | 144 | 3.0 | 0.0 | 0.00 | 0.00 | 0.00 | 80 | 1006.1 |
| 20260905055554 | 85 | 157 | 3.0 | 0.0 | 0.00 | 0.00 | 0.00 | 80 | 1006.1 |
| 20260905055516 | 85 | 216 | 3.0 | 0.0 | 0.00 | 0.00 | 0.00 | 80 | 1006.1 |
| 20260905055346 | 85 | 215 | 3.0 | 0.0 | 0.00 | 0.00 | 0.00 | 80 | 1006.1 |
| 20260905055250 | 85 | 174 | 2.0 | 0.0 | 0.00 | 0.00 | 0.00 | 80 | 1006.1 |
| 20260905055141 | 85 | 223 | 3.0 | 0.0 | 0.00 | 0.00 | 0.00 | 80 | 1006.1 |
| 20260905055045 | 85 | 176 | 2.0 | 0.0 | 0.00 | 0.00 | 0.00 | 80 | 1006.1 |
| 20260905055000 | 85 | 194 | 2.0 | 0.0 | 0.00 | 0.00 | 0.00 | 80 | 1006.1 |
| 20260905054903 | 85 | 173 | 2.0 | 0.0 | 0.00 | 0.00 | 0.00 | 80 | 1006.1 |
| 20260905054802 | 85 | 199 | 2.0 | 0.0 | 0.00 | 0.00 | 0.00 | 80 | 1006.1 |
| 20260905054654 | 85 | 180 | 2.0 | 0.0 | 0.00 | 0.00 | 0.00 | 80 | 1006.1 |
| 20260905054549 | 85 | 173 | 2.0 | 0.0 | 0.00 | 0.00 | 0.00 | 79 | 1006.1 |
| 20260905054458 | 85 | 179 | 2.0 | 0.0 | 0.00 | 0.00 | 0.00 | 79 | 1006.1 |
| 20260905054420 | 85 | 184 | 2.0 | 0.0 | 0.00 | 0.00 | 0.00 | 79 | 1006.1 |
| 20260905054332 | 85 | 217 | 2.0 | 0.0 | 0.00 | 0.00 | 0.00 | 79 | 1006.1 |
| 20260905054236 | 85 | 180 | 2.0 | 0.0 | 0.00 | 0.00 | 0.00 | 79 | 1006.1 |
| 20260905054048 | 85 | 217 | 2.0 | 0.0 | 0.00 | 0.00 | 0.00 | 79 | 1006.1 |
| 20260905053951 | 85 | 177 | 3.0 | 0.0 | 0.00 | 0.00 | 0.00 | 79 | 1006.1 |
| 20260905053906 | 85 | 152 | 3.0 | 0.0 | 0.00 | 0.00 | 0.00 | 79 | 1006.1 |
| 20260905053748 | 86 | 209 | 3.0 | 0.0 | 0.00 | 0.00 | 0.00 | 79 | 1006.1 |
| 20260905053639 | 86 | 153 | 3.0 | 0.0 | 0.00 | 0.00 | 0.00 | 79 | 1006.1 |
| 20260905053608 | 85 | 204 | 3.0 | 0.0 | 0.00 | 0.00 | 0.00 | 79 | 1006.1 |
| 20260905053439 | 86 | 210 | 3.0 | 0.0 | 0.00 | 0.00 | 0.00 | 79 | 1006.1 |
| 20260905053350 | 86 | 200 | 3.0 | 0.0 | 0.00 | 0.00 | 0.00 | 79 | 1006.1 |
| 20260905053251 | 86 | 204 | 3.0 | 0.0 | 0.00 | 0.00 | 0.00 | 79 | 1006.1 |
| 20260905053143 | 86 | 219 | 3.0 | 0.0 | 0.00 | 0.00 | 0.00 | 79 | 1006.1 |
| 20260905053038 | 86 | 205 | 2.0 | 0.0 | 0.00 | 0.00 | 0.00 | 79 | 1006.1 |
| 20260905052944 | 86 | 196 | 2.0 | 0.0 | 0.00 | 0.00 | 0.00 | 79 | 1006.1 |
| 20260905052843 | 86 | 223 | 2.0 | 0.0 | 0.00 | 0.00 | 0.00 | 79 | 1006.1 |
| 20260905052742 | 86 | 167 | 2.0 | 0.0 | 0.00 | 0.00 | 0.00 | 79 | 1006.1 |
| 20260905052707 | 86 | 175 | 2.0 | 0.0 | 0.00 | 0.00 | 0.00 | 79 | 1006.1 |
| 20260905052600 | 86 | 213 | 2.0 | 0.0 | 0.00 | 0.00 | 0.00 | 79 | 1006.1 |
| 20260905052459 | 86 | 121 | 2.0 | 0.0 | 0.00 | 0.00 | 0.00 | 79 | 1006.1 |
| 20260905052358 | 86 | 212 | 2.0 | 0.0 | 0.00 | 0.00 | 0.00 | 79 | 1006.1 |
| 20260905052320 | 86 | 213 | 2.0 | 0.0 | 0.00 | 0.00 | 0.00 | 79 | 1006.1 |
| 20260905052150 | 86 | 193 | 2.0 | 0.0 | 0.00 | 0.00 | 0.00 | 79 | 1006.1 |
| 20260905052043 | 86 | 234 | 2.0 | 0.0 | 0.00 | 0.00 | 0.00 | 79 | 1006.5 |
| 20260905051949 | 86 | 203 | 2.0 | 0.0 | 0.00 | 0.00 | 0.00 | 79 | 1006.5 |
| 20260905051841 | 86 | 228 | 2.0 | 0.0 | 0.00 | 0.00 | 0.00 | 79 | 1006.5 |
| 20260905051801 | 86 | 184 | 2.0 | 0.0 | 0.00 | 0.00 | 0.00 | 79 | 1006.5 |
| 20260905051652 | 86 | 234 | 2.0 | 0.0 | 0.00 | 0.00 | 0.00 | 79 | 1006.5 |
| 20260905051614 | 86 | 156 | 1.0 | 0.0 | 0.00 | 0.00 | 0.00 | 79 | 1006.5 |
| 20260905051515 | 86 | 172 | 2.0 | 0.0 | 0.00 | 0.00 | 0.00 | 79 | 1006.5 |
| 20260905051415 | 86 | 200 | 2.0 | 0.0 | 0.00 | 0.00 | 0.00 | 79 | 1006.5 |
| 20260905051248 | 86 | 205 | 2.0 | 0.0 | 0.00 | 0.00 | 0.00 | 79 | 1006.5 |
| 20260905051209 | 86 | 212 | 2.0 | 0.0 | 0.00 | 0.00 | 0.00 | 79 | 1006.5 |
| 20260905051046 | 86 | 208 | 2.0 | 0.0 | 0.00 | 0.00 | 0.00 | 79 | 1006.5 |
| 20260905050941 | 86 | 206 | 1.0 | 0.0 | 0.00 | 0.00 | 0.00 | 79 | 1006.5 |
| 20260905050843 | 86 | 173 | 1.0 | 0.0 | 0.00 | 0.00 | 0.00 | 79 | 1006.5 |
| 20260905050756 | 86 | 208 | 1.0 | 0.0 | 0.00 | 0.00 | 0.00 | 79 | 1006.5 |
| 20260905050657 | 86 | 212 | 1.0 | 0.0 | 0.00 | 0.00 | 0.00 | 79 | 1006.5 |
| 20260905050553 | 86 | 210 | 1.0 | 0.0 | 0.00 | 0.00 | 0.00 | 79 | 1006.4 |
| 20260905050444 | 86 | 155 | 1.0 | 0.0 | 0.00 | 0.00 | 0.00 | 79 | 1006.4 |
| 20260905050350 | 86 | 184 | 1.0 | 0.0 | 0.00 | 0.00 | 0.00 | 79 | 1006.4 |
| 20260905050242 | 86 | 144 | 1.0 | 0.0 | 0.00 | 0.00 | 0.00 | 79 | 1006.4 |
| 20260905050204 | 86 | 212 | 1.0 | 0.0 | 0.00 | 0.00 | 0.00 | 79 | 1006.4 |
| 20260905050055 | 86 | 198 | 1.0 | 0.0 | 0.00 | 0.00 | 0.00 | 79 | 1006.4 |
| 20260905045955 | 86 | 227 | 1.0 | 0.0 | 0.00 | 0.00 | 0.00 | 79 | 1006.4 |
| 20260905045849 | 86 | 152 | 0.0 | 0.0 | 0.00 | 0.00 | 0.00 | 79 | 1006.4 |
| 20260905045742 | 86 | 340 | 0.0 | 0.0 | 0.00 | 0.00 | 0.00 | 79 | 1006.4 |
| 20260905045648 | 86 | 196 | 1.0 | 0.0 | 0.00 | 0.00 | 0.00 | 79 | 1006.4 |
| 20260905045608 | 86 | 198 | 1.0 | 0.0 | 0.00 | 0.00 | 0.00 | 78 | 1006.4 |
| 20260905045449 | 86 | 198 | 1.0 | 0.0 | 0.00 | 0.00 | 0.00 | 79 | 1006.4 |
| 20260905045341 | 86 | 198 | 1.0 | 0.0 | 0.00 | 0.00 | 0.00 | 78 | 1006.4 |
| 20260905045306 | 86 | 145 | 1.0 | 0.0 | 0.00 | 0.00 | 0.00 | 78 | 1006.4 |
| 20260905045208 | 86 | 213 | 2.0 | 0.0 | 0.00 | 0.00 | 0.00 | 78 | 1006.4 |
| 20260905045037 | 86 | 205 | 2.0 | 0.0 | 0.00 | 0.00 | 0.00 | 78 | 1006.5 |
| 20260905045003 | 86 | 202 | 2.0 | 0.0 | 0.00 | 0.00 | 0.00 | 78 | 1006.5 |
| 20260905044838 | 86 | 227 | 2.0 | 0.0 | 0.00 | 0.00 | 0.00 | 78 | 1006.5 |
| 20260905044752 | 86 | 169 | 2.0 | 0.0 | 0.00 | 0.00 | 0.00 | 78 | 1006.5 |
| 20260905044656 | 86 | 211 | 2.0 | 0.0 | 0.00 | 0.00 | 0.00 | 78 | 1006.5 |
| 20260905044550 | 86 | 221 | 1.0 | 0.0 | 0.00 | 0.00 | 0.00 | 78 | 1006.5 |
| 20260905044454 | 86 | 138 | 1.0 | 0.0 | 0.00 | 0.00 | 0.00 | 78 | 1006.5 |
| 20260905044417 | 86 | 159 | 1.0 | 0.0 | 0.00 | 0.00 | 0.00 | 78 | 1006.5 |
| 20260905044247 | 86 | 190 | 1.0 | 0.0 | 0.00 | 0.00 | 0.00 | 78 | 1006.5 |
| 20260905044139 | 86 | 202 | 1.0 | 0.0 | 0.00 | 0.00 | 0.00 | 78 | 1006.5 |
| 20260905044042 | 86 | 205 | 1.0 | 0.0 | 0.00 | 0.00 | 0.00 | 78 | 1006.5 |
| 20260905044003 | 86 | 156 | 1.0 | 0.0 | 0.00 | 0.00 | 0.00 | 78 | 1006.5 |
| 20260905043839 | 86 | 225 | 1.0 | 0.0 | 0.00 | 0.00 | 0.00 | 78 | 1006.5 |
| 20260905043753 | 86 | 148 | 1.0 | 0.0 | 0.00 | 0.00 | 0.00 | 78 | 1006.5 |
| 20260905043654 | 86 | 195 | 1.0 | 0.0 | 0.00 | 0.00 | 0.00 | 78 | 1006.5 |
| 20260905043550 | 86 | 191 | 1.0 | 0.0 | 0.00 | 0.00 | 0.00 | 78 | 1006.6 |
| 20260905043512 | 86 | 212 | 1.0 | 0.0 | 0.00 | 0.00 | 0.00 | 78 | 1006.6 |
| 20260905043342 | 86 | 178 | 1.0 | 0.0 | 0.00 | 0.00 | 0.00 | 78 | 1006.6 |
| 20260905043305 | 86 | 228 | 1.0 | 0.0 | 0.00 | 0.00 | 0.00 | 78 | 1006.6 |
| 20260905043142 | 86 | 236 | 1.0 | 0.0 | 0.00 | 0.00 | 0.00 | 78 | 1006.6 |
| 20260905043038 | 86 | 223 | 1.0 | 0.0 | 0.00 | 0.00 | 0.00 | 78 | 1006.6 |
| 20260905043003 | 86 | 194 | 1.0 | 0.0 | 0.00 | 0.00 | 0.00 | 78 | 1006.6 |
| 20260905042925 | 86 | 230 | 1.0 | 0.0 | 0.00 | 0.00 | 0.00 | 78 | 1006.6 |
| 20260905042759 | 86 | 148 | 1.0 | 0.0 | 0.00 | 0.00 | 0.00 | 78 | 1006.6 |
| 20260905042725 | 86 | 191 | 1.0 | 0.0 | 0.00 | 0.00 | 0.00 | 78 | 1006.6 |
| 20260905042540 | 86 | 188 | 1.0 | 0.0 | 0.00 | 0.00 | 0.00 | 78 | 1006.6 |
| 20260905042453 | 86 | 178 | 1.0 | 0.0 | 0.00 | 0.00 | 0.00 | 78 | 1006.6 |
| 20260905042353 | 86 | 209 | 1.0 | 0.0 | 0.00 | 0.00 | 0.00 | 78 | 1006.6 |
| 20260905042252 | 86 | 213 | 1.0 | 0.0 | 0.00 | 0.00 | 0.00 | 78 | 1006.6 |
| 20260905042147 | 86 | 177 | 2.0 | 0.0 | 0.00 | 0.00 | 0.00 | 78 | 1006.6 |
| 20260905042047 | 86 | 207 | 2.0 | 0.0 | 0.00 | 0.00 | 0.00 | 78 | 1006.6 |
| 20260905042008 | 86 | 228 | 2.0 | 0.0 | 0.00 | 0.00 | 0.00 | 78 | 1006.6 |
| 20260905041859 | 86 | 200 | 2.0 | 0.0 | 0.00 | 0.00 | 0.00 | 78 | 1006.6 |
| 20260905041800 | 86 | 211 | 2.0 | 0.0 | 0.00 | 0.00 | 0.00 | 78 | 1006.6 |
| 20260905041654 | 86 | 191 | 2.0 | 0.0 | 0.00 | 0.00 | 0.00 | 78 | 1006.6 |
| 20260905041616 | 86 | 198 | 2.0 | 0.0 | 0.00 | 0.00 | 0.00 | 78 | 1006.6 |
| 20260905041449 | 86 | 317 | 2.0 | 0.0 | 0.00 | 0.00 | 0.00 | 78 | 1006.6 |
| 20260905041355 | 86 | 213 | 2.0 | 0.0 | 0.00 | 0.00 | 0.00 | 78 | 1006.6 |
| 20260905041248 | 86 | 172 | 1.0 | 0.0 | 0.00 | 0.00 | 0.00 | 78 | 1006.6 |
| 20260905041147 | 86 | 194 | 1.0 | 0.0 | 0.00 | 0.00 | 0.00 | 78 | 1006.6 |
| 20260905041043 | 86 | 210 | 1.0 | 0.0 | 0.00 | 0.00 | 0.00 | 78 | 1006.6 |
| 20260905040944 | 86 | 175 | 1.0 | 0.0 | 0.00 | 0.00 | 0.00 | 78 | 1006.6 |
| 20260905040857 | 86 | 179 | 1.0 | 0.0 | 0.00 | 0.00 | 0.00 | 77 | 1006.6 |
| 20260905040759 | 86 | 271 | 1.0 | 0.0 | 0.00 | 0.00 | 0.00 | 77 | 1006.6 |
| 20260905040653 | 86 | 169 | 1.0 | 0.0 | 0.00 | 0.00 | 0.00 | 77 | 1006.6 |
| 20260905040620 | 86 | 163 | 1.0 | 0.0 | 0.00 | 0.00 | 0.00 | 77 | 1006.6 |
| 20260905040523 | 86 | 195 | 1.0 | 0.0 | 0.00 | 0.00 | 0.00 | 77 | 1006.6 |
| 20260905040358 | 86 | 217 | 1.0 | 0.0 | 0.00 | 0.00 | 0.00 | 77 | 1006.6 |
| 20260905040318 | 86 | 207 | 1.0 | 0.0 | 0.00 | 0.00 | 0.00 | 77 | 1006.6 |
| 20260905040156 | 86 | 222 | 1.0 | 0.0 | 0.00 | 0.00 | 0.00 | 77 | 1006.6 |
| 20260905040046 | 86 | 186 | 1.0 | 0.0 | 0.00 | 0.00 | 0.00 | 77 | 1006.6 |
| 20260905035951 | 86 | 205 | 1.0 | 0.0 | 0.00 | 0.00 | 0.00 | 77 | 1006.6 |
| 20260905035906 | 86 | 320 | 0.0 | 0.0 | 0.00 | 0.00 | 0.00 | 77 | 1006.6 |
| 20260905035749 | 86 | 200 | 0.0 | 0.0 | 0.00 | 0.00 | 0.00 | 77 | 1006.6 |
| 20260905035701 | 86 | 186 | 0.0 | 0.0 | 0.00 | 0.00 | 0.00 | 77 | 1006.6 |
| 20260905035602 | 86 | 77 | 0.0 | 0.0 | 0.00 | 0.00 | 0.00 | 77 | 1006.6 |
| 20260905035515 | 86 | 228 | 0.0 | 0.0 | 0.00 | 0.00 | 0.00 | 77 | 1006.6 |
| 20260905035355 | 86 | 197 | 0.0 | 0.0 | 0.00 | 0.00 | 0.00 | 77 | 1006.6 |
| 20260905035247 | 86 | 216 | 0.0 | 0.0 | 0.00 | 0.00 | 0.00 | 77 | 1006.6 |
| 20260905035141 | 86 | 207 | 1.0 | 0.0 | 0.00 | 0.00 | 0.00 | 77 | 1006.6 |
| 20260905035101 | 86 | 221 | 1.0 | 0.0 | 0.00 | 0.00 | 0.00 | 77 | 1006.5 |
| 20260905035001 | 86 | 196 | 1.0 | 0.0 | 0.00 | 0.00 | 0.00 | 77 | 1006.5 |
| 20260905034837 | 86 | 260 | 1.0 | 0.0 | 0.00 | 0.00 | 0.00 | 77 | 1006.5 |
| 20260905034748 | 86 | 260 | 1.0 | 0.0 | 0.00 | 0.00 | 0.00 | 77 | 1006.5 |
| 20260905034651 | 86 | 103 | 1.0 | 0.0 | 0.00 | 0.00 | 0.00 | 77 | 1006.5 |
| 20260905034555 | 86 | 274 | 1.0 | 0.0 | 0.00 | 0.00 | 0.00 | 77 | 1006.5 |
| 20260905034448 | 87 | 198 | 1.0 | 0.0 | 0.00 | 0.00 | 0.00 | 77 | 1006.5 |
| 20260905034345 | 87 | 148 | 1.0 | 0.0 | 0.00 | 0.00 | 0.00 | 77 | 1006.5 |
| 20260905034307 | 87 | 148 | 1.0 | 0.0 | 0.00 | 0.00 | 0.00 | 77 | 1006.5 |
| 20260905034203 | 87 | 99 | 1.0 | 0.0 | 0.00 | 0.00 | 0.00 | 77 | 1006.5 |
| 20260905034043 | 87 | 197 | 1.0 | 0.0 | 0.00 | 0.00 | 0.00 | 77 | 1006.5 |
| 20260905033957 | 87 | 182 | 1.0 | 0.0 | 0.00 | 0.00 | 0.00 | 77 | 1006.5 |
| 20260905033858 | 87 | 111 | 1.0 | 0.0 | 0.00 | 0.00 | 0.00 | 77 | 1006.5 |
| 20260905033752 | 87 | 214 | 1.0 | 0.0 | 0.00 | 0.00 | 0.00 | 77 | 1006.5 |
| 20260905033644 | 87 | 111 | 1.0 | 0.0 | 0.00 | 0.00 | 0.00 | 77 | 1006.5 |
| 20260905033547 | 87 | 165 | 1.0 | 0.0 | 0.00 | 0.00 | 0.00 | 77 | 1006.6 |
| 20260905033445 | 87 | 213 | 1.0 | 0.0 | 0.00 | 0.00 | 0.00 | 77 | 1006.6 |
| 20260905033340 | 87 | 218 | 1.0 | 0.0 | 0.00 | 0.00 | 0.00 | 77 | 1006.6 |
| 20260905033242 | 87 | 186 | 1.0 | 0.0 | 0.00 | 0.00 | 0.00 | 77 | 1006.6 |
| 20260905033136 | 87 | 205 | 1.0 | 0.0 | 0.00 | 0.00 | 0.00 | 77 | 1006.6 |
| 20260905033042 | 87 | 212 | 1.0 | 0.0 | 0.00 | 0.00 | 0.00 | 76 | 1006.6 |
| 20260905032953 | 87 | 179 | 1.0 | 0.0 | 0.00 | 0.00 | 0.00 | 76 | 1006.6 |
| 20260905032901 | 87 | 212 | 1.0 | 0.0 | 0.00 | 0.00 | 0.00 | 76 | 1006.6 |
| 20260905032756 | 87 | 191 | 0.0 | 0.0 | 0.00 | 0.00 | 0.00 | 76 | 1006.6 |
| 20260905032705 | 87 | 190 | 0.0 | 0.0 | 0.00 | 0.00 | 0.00 | 76 | 1006.6 |
| 20260905032537 | 87 | 198 | 1.0 | 0.0 | 0.00 | 0.00 | 0.00 | 76 | 1006.6 |
| 20260905032450 | 87 | 109 | 1.0 | 0.0 | 0.00 | 0.00 | 0.00 | 76 | 1006.6 |
| 20260905032351 | 87 | 171 | 1.0 | 0.0 | 0.00 | 0.00 | 0.00 | 76 | 1006.6 |
| 20260905032243 | 87 | 205 | 1.0 | 0.0 | 0.00 | 0.00 | 0.00 | 76 | 1006.6 |
| 20260905032204 | 87 | 175 | 1.0 | 0.0 | 0.00 | 0.00 | 0.00 | 76 | 1006.6 |
| 20260905032037 | 87 | 213 | 1.0 | 0.0 | 0.00 | 0.00 | 0.00 | 76 | 1006.4 |
| 20260905031959 | 87 | 152 | 1.0 | 0.0 | 0.00 | 0.00 | 0.00 | 76 | 1006.4 |
| 20260905031924 | 87 | 224 | 1.0 | 0.0 | 0.00 | 0.00 | 0.00 | 76 | 1006.4 |
| 20260905031803 | 87 | 228 | 1.0 | 0.0 | 0.00 | 0.00 | 0.00 | 76 | 1006.4 |
| 20260905031634 | 87 | 175 | 1.0 | 0.0 | 0.00 | 0.00 | 0.00 | 76 | 1006.4 |
| 20260905031550 | 87 | 162 | 0.0 | 0.0 | 0.00 | 0.00 | 0.00 | 76 | 1006.4 |
| 20260905031512 | 87 | 145 | 0.0 | 0.0 | 0.00 | 0.00 | 0.00 | 76 | 1006.4 |
| 20260905031343 | 87 | 205 | 0.0 | 0.0 | 0.00 | 0.00 | 0.00 | 75 | 1006.4 |
| 20260905031246 | 87 | 205 | 0.0 | 0.0 | 0.00 | 0.00 | 0.00 | 75 | 1006.4 |
| 20260905031202 | 87 | 199 | 1.0 | 0.0 | 0.00 | 0.00 | 0.00 | 75 | 1006.4 |
| 20260905031047 | 87 | 186 | 1.0 | 0.0 | 0.00 | 0.00 | 0.00 | 75 | 1006.4 |
| 20260905030939 | 87 | 178 | 1.0 | 0.0 | 0.00 | 0.00 | 0.00 | 75 | 1006.4 |
| 20260905030842 | 87 | 252 | 1.0 | 0.0 | 0.00 | 0.00 | 0.00 | 75 | 1006.4 |
| 20260905030753 | 87 | 52 | 1.0 | 0.0 | 0.00 | 0.00 | 0.00 | 75 | 1006.4 |
| 20260905030654 | 87 | 211 | 2.0 | 0.0 | 0.00 | 0.00 | 0.00 | 75 | 1006.4 |
| 20260905030547 | 87 | 206 | 2.0 | 0.0 | 0.00 | 0.00 | 0.00 | 75 | 1006.1 |
| 20260905030443 | 87 | 196 | 2.0 | 0.0 | 0.00 | 0.00 | 0.00 | 75 | 1006.1 |
| 20260905030349 | 87 | 306 | 3.0 | 0.0 | 0.00 | 0.00 | 0.00 | 75 | 1006.1 |
| 20260905030241 | 87 | 197 | 3.0 | 0.0 | 0.00 | 0.00 | 0.00 | 75 | 1006.1 |
| 20260905030146 | 87 | 161 | 3.0 | 0.0 | 0.00 | 0.00 | 0.00 | 75 | 1006.1 |
| 20260905030040 | 87 | 176 | 3.0 | 0.0 | 0.00 | 0.00 | 0.00 | 75 | 1006.1 |
| 20260905030002 | 87 | 163 | 3.0 | 0.0 | 0.00 | 0.00 | 0.00 | 75 | 1006.1 |
| 20260905025857 | 87 | 144 | 2.0 | 0.0 | 0.00 | 0.00 | 0.00 | 75 | 1006.1 |
| 20260905025819 | 87 | 217 | 2.0 | 0.0 | 0.00 | 0.00 | 0.00 | 75 | 1006.1 |
| 20260905025652 | 87 | 212 | 2.0 | 0.0 | 0.00 | 0.00 | 0.00 | 75 | 1006.1 |
| 20260905025546 | 87 | 165 | 2.0 | 0.0 | 0.00 | 0.00 | 0.00 | 75 | 1006.1 |
| 20260905025451 | 87 | 155 | 1.0 | 0.0 | 0.00 | 0.00 | 0.00 | 75 | 1006.1 |
| 20260905025342 | 88 | 152 | 1.0 | 0.0 | 0.00 | 0.00 | 0.00 | 75 | 1006.1 |
| 20260905025306 | 88 | 225 | 1.0 | 0.0 | 0.00 | 0.00 | 0.00 | 74 | 1006.1 |
| 20260905025155 | 88 | 228 | 1.0 | 0.0 | 0.00 | 0.00 | 0.00 | 74 | 1006.1 |
| 20260905025054 | 88 | 75 | 1.0 | 0.0 | 0.00 | 0.00 | 0.00 | 74 | 1005.9 |
| 20260905024947 | 88 | 198 | 1.0 | 0.0 | 0.00 | 0.00 | 0.00 | 74 | 1005.9 |
| 20260905024914 | 88 | 216 | 1.0 | 0.0 | 0.00 | 0.00 | 0.00 | 74 | 1005.9 |
| 20260905024747 | 88 | 221 | 1.0 | 0.0 | 0.00 | 0.00 | 0.00 | 74 | 1005.9 |
| 20260905024654 | 88 | 203 | 2.0 | 0.0 | 0.00 | 0.00 | 0.00 | 74 | 1005.9 |
| 20260905024606 | 88 | 197 | 2.0 | 0.0 | 0.00 | 0.00 | 0.00 | 74 | 1005.9 |
| 20260905024507 | 88 | 167 | 2.0 | 0.0 | 0.00 | 0.00 | 0.00 | 74 | 1005.9 |
| 20260905024408 | 88 | 205 | 2.0 | 0.0 | 0.00 | 0.00 | 0.00 | 74 | 1005.9 |
| 20260905024239 | 88 | 200 | 2.0 | 0.0 | 0.00 | 0.00 | 0.00 | 74 | 1005.9 |
| 20260905024204 | 88 | 218 | 2.0 | 0.0 | 0.00 | 0.00 | 0.00 | 74 | 1005.9 |
| 20260905024040 | 88 | 147 | 2.0 | 0.0 | 0.00 | 0.00 | 0.00 | 74 | 1005.9 |
| 20260905023953 | 88 | 24 | 3.0 | 0.0 | 0.00 | 0.00 | 0.00 | 74 | 1005.9 |
| 20260905023858 | 88 | 65 | 3.0 | 0.0 | 0.00 | 0.00 | 0.00 | 74 | 1005.9 |
| 20260905023750 | 88 | 184 | 3.0 | 0.0 | 0.00 | 0.00 | 0.00 | 74 | 1005.9 |
| 20260905023712 | 88 | 199 | 3.0 | 0.0 | 0.00 | 0.00 | 0.00 | 74 | 1005.9 |
| 20260905023546 | 88 | 171 | 3.0 | 0.0 | 0.00 | 0.00 | 0.00 | 74 | 1005.9 |
| 20260905023438 | 88 | 190 | 3.0 | 0.0 | 0.00 | 0.00 | 0.00 | 74 | 1005.9 |
| 20260905023342 | 88 | 172 | 3.0 | 0.0 | 0.00 | 0.00 | 0.00 | 74 | 1005.9 |
| 20260905023237 | 88 | 187 | 3.0 | 0.0 | 0.00 | 0.00 | 0.00 | 74 | 1005.9 |
| 20260905023146 | 88 | 205 | 3.0 | 0.0 | 0.00 | 0.00 | 0.00 | 73 | 1005.9 |
| 20260905023037 | 88 | 198 | 3.0 | 0.0 | 0.00 | 0.00 | 0.00 | 73 | 1005.9 |
| 20260905023002 | 88 | 210 | 3.0 | 0.0 | 0.00 | 0.00 | 0.00 | 73 | 1005.9 |
| 20260905022853 | 88 | 196 | 3.0 | 0.0 | 0.00 | 0.00 | 0.00 | 73 | 1005.9 |
| 20260905022747 | 88 | 177 | 2.0 | 0.0 | 0.00 | 0.00 | 0.00 | 73 | 1005.9 |
| 20260905022707 | 88 | 235 | 2.0 | 0.0 | 0.00 | 0.00 | 0.00 | 73 | 1005.9 |
| 20260905022610 | 88 | 238 | 3.0 | 0.0 | 0.00 | 0.00 | 0.00 | 73 | 1005.9 |
| 20260905022444 | 88 | 189 | 3.0 | 0.0 | 0.00 | 0.00 | 0.00 | 73 | 1005.9 |
| 20260905022341 | 88 | 102 | 3.0 | 0.0 | 0.00 | 0.00 | 0.00 | 73 | 1005.9 |
| 20260905022242 | 88 | 217 | 3.0 | 0.0 | 0.00 | 0.00 | 0.00 | 73 | 1005.9 |
| 20260905022154 | 88 | 175 | 3.0 | 0.0 | 0.00 | 0.00 | 0.00 | 73 | 1005.9 |
| 20260905022054 | 88 | 96 | 3.0 | 0.0 | 0.00 | 0.00 | 0.00 | 73 | 1005.3 |
| 20260905021946 | 88 | 155 | 3.0 | 0.0 | 0.00 | 0.00 | 0.00 | 73 | 1005.3 |
| 20260905021906 | 88 | 149 | 3.0 | 0.0 | 0.00 | 0.00 | 0.00 | 73 | 1005.3 |
| 20260905021740 | 88 | 244 | 3.0 | 0.0 | 0.00 | 0.00 | 0.00 | 73 | 1005.3 |
| 20260905021648 | 88 | 165 | 3.0 | 0.0 | 0.00 | 0.00 | 0.00 | 73 | 1005.3 |
| 20260905021545 | 88 | 190 | 2.0 | 0.0 | 0.00 | 0.00 | 0.00 | 73 | 1005.3 |
| 20260905021505 | 88 | 197 | 2.0 | 0.0 | 0.00 | 0.00 | 0.00 | 73 | 1005.4 |
| 20260905021357 | 89 | 219 | 2.0 | 0.0 | 0.00 | 0.00 | 0.00 | 73 | 1005.4 |
| 20260905021301 | 89 | 121 | 2.0 | 0.0 | 0.00 | 0.00 | 0.00 | 72 | 1005.4 |
| 20260905021156 | 89 | 194 | 2.0 | 0.0 | 0.00 | 0.00 | 0.00 | 72 | 1005.4 |
| 20260905021048 | 89 | 171 | 2.0 | 0.0 | 0.00 | 0.00 | 0.00 | 72 | 1005.4 |
| 20260905020950 | 89 | 170 | 2.0 | 0.0 | 0.00 | 0.00 | 0.00 | 72 | 1005.4 |
| 20260905020902 | 89 | 238 | 2.0 | 0.0 | 0.00 | 0.00 | 0.00 | 72 | 1005.4 |
| 20260905020746 | 89 | 155 | 2.0 | 0.0 | 0.00 | 0.00 | 0.00 | 72 | 1005.4 |
| 20260905020707 | 89 | 205 | 2.0 | 0.0 | 0.00 | 0.00 | 0.00 | 72 | 1005.4 |
| 20260905020608 | 89 | 148 | 2.0 | 0.0 | 0.00 | 0.00 | 0.00 | 72 | 1005.4 |
| 20260905020459 | 89 | 189 | 3.0 | 0.0 | 0.00 | 0.00 | 0.00 | 72 | 1004.9 |
| 20260905020350 | 89 | 186 | 3.0 | 0.0 | 0.00 | 0.00 | 0.00 | 72 | 1004.9 |
| 20260905020314 | 89 | 192 | 4.0 | 0.0 | 0.00 | 0.00 | 0.00 | 71 | 1004.9 |
| 20260905020145 | 89 | 202 | 4.0 | 0.0 | 0.00 | 0.00 | 0.00 | 71 | 1004.9 |
| 20260905020047 | 89 | 247 | 4.0 | 0.0 | 0.00 | 0.00 | 0.00 | 71 | 1004.9 |
| 20260905020000 | 89 | 167 | 4.0 | 0.0 | 0.00 | 0.00 | 0.00 | 71 | 1004.9 |
| 20260905015848 | 89 | 170 | 4.0 | 0.0 | 0.00 | 0.00 | 0.00 | 71 | 1004.9 |
| 20260905015739 | 89 | 192 | 4.0 | 0.0 | 0.00 | 0.00 | 0.00 | 71 | 1004.9 |
| 20260905015703 | 89 | 178 | 4.0 | 0.0 | 0.00 | 0.00 | 0.00 | 71 | 1004.9 |
| 20260905015555 | 89 | 190 | 4.0 | 0.0 | 0.00 | 0.00 | 0.00 | 71 | 1004.9 |
| 20260905015456 | 89 | 202 | 4.0 | 0.0 | 0.00 | 0.00 | 0.00 | 70 | 1004.9 |
| 20260905015349 | 89 | 210 | 4.0 | 0.0 | 0.00 | 0.00 | 0.00 | 70 | 1004.9 |
| 20260905015311 | 89 | 159 | 4.0 | 0.0 | 0.00 | 0.00 | 0.00 | 70 | 1004.9 |
| 20260905015140 | 89 | 204 | 4.0 | 0.0 | 0.00 | 0.00 | 0.00 | 71 | 1004.9 |
| 20260905015108 | 89 | 219 | 4.0 | 0.0 | 0.00 | 0.00 | 0.00 | 71 | 1004.9 |
| 20260905014939 | 89 | 207 | 4.0 | 0.0 | 0.00 | 0.00 | 0.00 | 71 | 1004.7 |
| 20260905014851 | 89 | 168 | 4.0 | 0.0 | 0.00 | 0.00 | 0.00 | 71 | 1004.7 |
| 20260905014754 | 89 | 194 | 4.0 | 0.0 | 0.00 | 0.00 | 0.00 | 71 | 1004.7 |
| 20260905014649 | 89 | 229 | 3.0 | 0.0 | 0.00 | 0.00 | 0.00 | 70 | 1004.7 |
| 20260905014543 | 89 | 246 | 3.0 | 0.0 | 0.00 | 0.00 | 0.00 | 70 | 1004.7 |
| 20260905014508 | 89 | 209 | 3.0 | 0.0 | 0.00 | 0.00 | 0.00 | 70 | 1004.7 |
| 20260905014409 | 90 | 298 | 4.0 | 0.0 | 0.00 | 0.00 | 0.00 | 70 | 1004.7 |
| 20260905014248 | 90 | 219 | 3.0 | 0.0 | 0.00 | 0.00 | 0.00 | 70 | 1004.7 |
| 20260905014143 | 90 | 207 | 3.0 | 0.0 | 0.00 | 0.00 | 0.00 | 70 | 1004.7 |
| 20260905014046 | 90 | 145 | 3.0 | 0.0 | 0.00 | 0.00 | 0.00 | 70 | 1004.7 |
| 20260905013941 | 90 | 219 | 2.0 | 0.0 | 0.00 | 0.00 | 0.00 | 69 | 1004.7 |
| 20260905013906 | 90 | 195 | 2.0 | 0.0 | 0.00 | 0.00 | 0.00 | 69 | 1004.7 |
| 20260905013821 | 90 | 198 | 2.0 | 0.0 | 0.00 | 0.00 | 0.00 | 69 | 1004.7 |
| 20260905013700 | 90 | 202 | 2.0 | 0.0 | 0.00 | 0.00 | 0.00 | 69 | 1004.7 |
| 20260905013552 | 90 | 153 | 2.0 | 0.0 | 0.00 | 0.00 | 0.00 | 69 | 1004.7 |
| 20260905013501 | 90 | 173 | 2.0 | 0.0 | 0.00 | 0.00 | 0.00 | 69 | 1004.7 |
| 20260905013426 | 90 | 220 | 2.0 | 0.0 | 0.00 | 0.00 | 0.00 | 69 | 1004.7 |
| 20260905013259 | 90 | 198 | 2.0 | 0.0 | 0.00 | 0.00 | 0.00 | 68 | 1004.7 |
| 20260905013221 | 90 | 219 | 2.0 | 0.0 | 0.00 | 0.00 | 0.00 | 68 | 1004.7 |
| 20260905013051 | 90 | 177 | 3.0 | 0.0 | 0.00 | 0.00 | 0.00 | 68 | 1004.7 |
| 20260905012952 | 90 | 198 | 3.0 | 0.0 | 0.00 | 0.00 | 0.00 | 68 | 1004.7 |
| 20260905012850 | 90 | 169 | 3.0 | 0.0 | 0.00 | 0.00 | 0.00 | 68 | 1004.7 |
| 20260905012742 | 90 | 262 | 3.0 | 0.0 | 0.00 | 0.00 | 0.00 | 68 | 1004.7 |
| 20260905012647 | 90 | 217 | 3.0 | 0.0 | 0.00 | 0.00 | 0.00 | 68 | 1004.7 |
| 20260905012537 | 90 | 230 | 3.0 | 0.0 | 0.00 | 0.00 | 0.00 | 68 | 1004.7 |
| 20260905012505 | 90 | 200 | 3.0 | 0.0 | 0.00 | 0.00 | 0.00 | 68 | 1004.7 |
| 20260905012427 | 90 | 157 | 3.0 | 0.0 | 0.00 | 0.00 | 0.00 | 68 | 1004.7 |
| 20260905012305 | 90 | 205 | 2.0 | 0.0 | 0.00 | 0.00 | 0.00 | 68 | 1004.7 |
| 20260905012201 | 90 | 196 | 2.0 | 0.0 | 0.00 | 0.00 | 0.00 | 67 | 1004.7 |
| 20260905012059 | 90 | 232 | 2.0 | 0.0 | 0.00 | 0.00 | 0.00 | 67 | 1004.7 |
| 20260905012024 | 90 | 208 | 2.0 | 0.0 | 0.00 | 0.00 | 0.00 | 67 | 1004.2 |
| 20260905011841 | 91 | 164 | 2.0 | 0.0 | 0.00 | 0.00 | 0.00 | 67 | 1004.2 |
| 20260905011735 | 91 | 221 | 1.0 | 0.0 | 0.00 | 0.00 | 0.00 | 67 | 1004.2 |
| 20260905011702 | 91 | 109 | 1.0 | 0.0 | 0.00 | 0.00 | 0.00 | 67 | 1004.2 |
| 20260905011537 | 91 | 204 | 2.0 | 0.0 | 0.00 | 0.00 | 0.00 | 67 | 1004.2 |
| 20260905011450 | 91 | 169 | 2.0 | 0.0 | 0.00 | 0.00 | 0.00 | 67 | 1004.2 |
| 20260905011350 | 91 | 229 | 2.0 | 0.0 | 0.00 | 0.00 | 0.00 | 67 | 1004.2 |
| 20260905011305 | 91 | 167 | 2.0 | 0.0 | 0.00 | 0.00 | 0.00 | 67 | 1004.2 |
| 20260905011144 | 91 | 205 | 2.0 | 0.0 | 0.00 | 0.00 | 0.00 | 67 | 1004.2 |
| 20260905011042 | 91 | 49 | 2.0 | 0.0 | 0.00 | 0.00 | 0.00 | 67 | 1004.2 |
| 20260905011006 | 91 | 216 | 2.0 | 0.0 | 0.00 | 0.00 | 0.00 | 67 | 1004.2 |
| 20260905010840 | 91 | 175 | 2.0 | 0.0 | 0.00 | 0.00 | 0.00 | 67 | 1004.2 |
| 20260905010753 | 91 | 213 | 2.0 | 0.0 | 0.00 | 0.00 | 0.00 | 67 | 1004.2 |
| 20260905010658 | 91 | 223 | 3.0 | 0.0 | 0.00 | 0.00 | 0.00 | 66 | 1004.2 |
| 20260905010549 | 91 | 247 | 2.0 | 0.0 | 0.00 | 0.00 | 0.00 | 66 | 1004.1 |
| 20260905010450 | 91 | 219 | 2.0 | 0.0 | 0.00 | 0.00 | 0.00 | 66 | 1004.1 |
| 20260905010403 | 91 | 167 | 2.0 | 0.0 | 0.00 | 0.00 | 0.00 | 66 | 1004.1 |
| 20260905010311 | 91 | 217 | 2.0 | 0.0 | 0.00 | 0.00 | 0.00 | 66 | 1004.1 |
| 20260905010142 | 91 | 181 | 3.0 | 0.0 | 0.00 | 0.00 | 0.00 | 66 | 1004.1 |
| 20260905010042 | 91 | 144 | 3.0 | 0.0 | 0.00 | 0.00 | 0.00 | 65 | 1004.1 |
| 20260905010007 | 91 | 186 | 3.0 | 0.0 | 0.00 | 0.00 | 0.00 | 65 | 1004.1 |
| 20260905005857 | 92 | 244 | 3.0 | 0.0 | 0.00 | 0.00 | 0.00 | 65 | 1004.1 |
| 20260905005758 | 92 | 198 | 3.0 | 0.0 | 0.00 | 0.00 | 0.00 | 65 | 1004.1 |
| 20260905005649 | 92 | 221 | 3.0 | 0.0 | 0.00 | 0.00 | 0.00 | 65 | 1004.1 |
| 20260905005614 | 92 | 207 | 3.0 | 0.0 | 0.00 | 0.00 | 0.00 | 65 | 1004.1 |
| 20260905005438 | 92 | 150 | 3.0 | 0.0 | 0.00 | 0.00 | 0.00 | 65 | 1004.1 |
| 20260905005349 | 92 | 191 | 3.0 | 0.0 | 0.00 | 0.00 | 0.00 | 65 | 1004.1 |
| 20260905005316 | 92 | 205 | 3.0 | 0.0 | 0.00 | 0.00 | 0.00 | 65 | 1004.1 |
| 20260905005146 | 92 | 183 | 2.0 | 0.0 | 0.00 | 0.00 | 0.00 | 65 | 1004.1 |
| 20260905005047 | 92 | 192 | 3.0 | 0.0 | 0.00 | 0.00 | 0.00 | 65 | 1004.2 |
| 20260905005002 | 92 | 198 | 3.0 | 0.0 | 0.00 | 0.00 | 0.00 | 64 | 1004.2 |
| 20260905004905 | 92 | 211 | 3.0 | 0.0 | 0.00 | 0.00 | 0.00 | 64 | 1004.2 |
| 20260905004825 | 92 | 98 | 3.0 | 0.0 | 0.00 | 0.00 | 0.00 | 64 | 1004.2 |
| 20260905004658 | 92 | 198 | 3.0 | 0.0 | 0.00 | 0.00 | 0.00 | 64 | 1004.2 |
| 20260905004602 | 92 | 225 | 3.0 | 0.0 | 0.00 | 0.00 | 0.00 | 64 | 1004.2 |
| 20260905004437 | 93 | 199 | 3.0 | 0.0 | 0.00 | 0.00 | 0.00 | 64 | 1004.2 |
| 20260905004356 | 93 | 153 | 4.0 | 0.0 | 0.00 | 0.00 | 0.00 | 64 | 1004.2 |
| 20260905004259 | 93 | 179 | 4.0 | 0.0 | 0.00 | 0.00 | 0.00 | 63 | 1004.2 |
| 20260905004218 | 93 | 200 | 4.0 | 0.0 | 0.00 | 0.00 | 0.00 | 63 | 1004.2 |
| 20260905004059 | 93 | 203 | 4.0 | 0.0 | 0.00 | 0.00 | 0.00 | 63 | 1004.2 |
| 20260905003953 | 93 | 194 | 4.0 | 0.0 | 0.00 | 0.00 | 0.00 | 63 | 1004.2 |
| 20260905003914 | 93 | 182 | 4.0 | 0.0 | 0.00 | 0.00 | 0.00 | 63 | 1004.2 |
| 20260905003752 | 93 | 147 | 4.0 | 0.0 | 0.00 | 0.00 | 0.00 | 63 | 1004.2 |
| 20260905003655 | 93 | 134 | 4.0 | 0.0 | 0.00 | 0.00 | 0.00 | 62 | 1004.2 |
| 20260905003625 | 93 | 133 | 4.0 | 0.0 | 0.00 | 0.00 | 0.00 | 62 | 1004.2 |
| 20260905003453 | 93 | 225 | 3.0 | 0.0 | 0.00 | 0.00 | 0.00 | 62 | 1004.0 |
| 20260905003348 | 93 | 19 | 3.0 | 0.0 | 0.00 | 0.00 | 0.00 | 62 | 1004.0 |
| 20260905003309 | 94 | 267 | 3.0 | 0.0 | 0.00 | 0.00 | 0.00 | 62 | 1004.0 |
| 20260905003210 | 94 | 94 | 3.0 | 0.0 | 0.00 | 0.00 | 0.00 | 62 | 1004.0 |
| 20260905003043 | 94 | 230 | 3.0 | 0.0 | 0.00 | 0.00 | 0.00 | 61 | 1004.0 |
| 20260905002938 | 94 | 223 | 3.0 | 0.0 | 0.00 | 0.00 | 0.00 | 61 | 1004.0 |
| 20260905002905 | 94 | 244 | 3.0 | 0.0 | 0.00 | 0.00 | 0.00 | 61 | 1004.0 |
| 20260905002805 | 94 | 167 | 2.0 | 0.0 | 0.00 | 0.00 | 0.00 | 61 | 1004.0 |
| 20260905002638 | 94 | 225 | 2.0 | 0.0 | 0.00 | 0.00 | 0.00 | 61 | 1004.0 |
| 20260905002604 | 94 | 134 | 2.0 | 0.0 | 0.00 | 0.00 | 0.00 | 60 | 1004.0 |
| 20260905002440 | 94 | 231 | 2.0 | 0.0 | 0.00 | 0.00 | 0.00 | 60 | 1004.0 |
| 20260905002353 | 94 | 221 | 2.0 | 0.0 | 0.00 | 0.00 | 0.00 | 60 | 1004.0 |
| 20260905002253 | 94 | 190 | 2.0 | 0.0 | 0.00 | 0.00 | 0.00 | 60 | 1004.0 |
| 20260905002143 | 95 | 147 | 2.0 | 0.0 | 0.00 | 0.00 | 0.00 | 60 | 1004.0 |
| 20260905002111 | 95 | 259 | 2.0 | 0.0 | 0.00 | 0.00 | 0.00 | 60 | 1004.0 |
| 20260905001953 | 95 | 113 | 2.0 | 0.0 | 0.00 | 0.00 | 0.00 | 59 | 1004.0 |
| 20260905001844 | 95 | 180 | 3.0 | 0.0 | 0.00 | 0.00 | 0.00 | 59 | 1004.0 |
| 20260905001806 | 95 | 198 | 3.0 | 0.0 | 0.00 | 0.00 | 0.00 | 59 | 1004.0 |
| 20260905001705 | 95 | 188 | 3.0 | 0.0 | 0.00 | 0.00 | 0.00 | 59 | 1004.0 |
| 20260905001601 | 95 | 238 | 3.0 | 0.0 | 0.00 | 0.00 | 0.00 | 59 | 1004.0 |
| 20260905001501 | 95 | 165 | 3.0 | 0.0 | 0.00 | 0.00 | 0.00 | 59 | 1004.0 |
| 20260905001353 | 95 | 167 | 3.0 | 0.0 | 0.00 | 0.00 | 0.00 | 59 | 1004.0 |
| 20260905001245 | 95 | 156 | 2.0 | 0.0 | 0.00 | 0.00 | 0.00 | 59 | 1004.0 |
| 20260905001153 | 95 | 173 | 2.0 | 0.0 | 0.00 | 0.00 | 0.00 | 59 | 1004.0 |
| 20260905001045 | 95 | 171 | 2.0 | 0.0 | 0.00 | 0.00 | 0.00 | 58 | 1004.0 |
| 20260905000951 | 95 | 295 | 2.0 | 0.0 | 0.00 | 0.00 | 0.00 | 58 | 1004.0 |
| 20260905000844 | 95 | 200 | 2.0 | 0.0 | 0.00 | 0.00 | 0.00 | 59 | 1004.0 |
| 20260905000804 | 95 | 223 | 2.0 | 0.0 | 0.00 | 0.00 | 0.00 | 59 | 1004.0 |
| 20260905000658 | 96 | 131 | 2.0 | 0.0 | 0.00 | 0.00 | 0.00 | 59 | 1004.0 |
| 20260905000550 | 96 | 290 | 2.0 | 0.0 | 0.00 | 0.00 | 0.00 | 58 | 1003.5 |
| 20260905000454 | 96 | 194 | 2.0 | 0.0 | 0.00 | 0.00 | 0.00 | 58 | 1003.5 |
| 20260905000410 | 96 | 192 | 2.0 | 0.0 | 0.00 | 0.00 | 0.00 | 58 | 1003.5 |
| 20260905000250 | 96 | 153 | 3.0 | 0.0 | 0.00 | 0.00 | 0.00 | 59 | 1003.5 |
| 20260905000204 | 96 | 225 | 3.0 | 0.0 | 0.00 | 0.00 | 0.00 | 58 | 1003.5 |
| 20260905000004 | 96 | 170 | 3.0 | 0.0 | 0.00 | 0.00 | 0.00 | 58 | 1003.5 |
| 20260904235920 | 96 | 189 | 3.0 | 0.0 | 0.00 | 0.00 | 0.00 | 58 | 1003.5 |
| 20260904235800 | 96 | 171 | 3.0 | 0.0 | 0.00 | 0.00 | 0.00 | 58 | 1003.5 |
| 20260904235712 | 96 | 168 | 3.0 | 0.0 | 0.00 | 0.00 | 0.00 | 58 | 1003.5 |
| 20260904235613 | 96 | 229 | 4.0 | 0.0 | 0.00 | 0.00 | 0.00 | 58 | 1003.5 |
| 20260904235448 | 96 | 159 | 4.0 | 0.0 | 0.00 | 0.00 | 0.00 | 58 | 1003.5 |
| 20260904235410 | 96 | 223 | 4.0 | 0.0 | 0.00 | 0.00 | 0.00 | 58 | 1003.5 |
| 20260904235310 | 96 | 182 | 4.0 | 0.0 | 0.00 | 0.00 | 0.00 | 58 | 1003.5 |
| 20260904235143 | 96 | 180 | 4.0 | 0.0 | 0.00 | 0.00 | 0.00 | 58 | 1003.5 |
| 20260904235041 | 96 | 190 | 4.0 | 0.0 | 0.00 | 0.00 | 0.00 | 58 | 1003.4 |
| 20260904234945 | 96 | 232 | 4.0 | 0.0 | 0.00 | 0.00 | 0.00 | 58 | 1003.4 |
| 20260904234908 | 96 | 168 | 4.0 | 0.0 | 0.00 | 0.00 | 0.00 | 58 | 1003.4 |
| 20260904234758 | 96 | 233 | 4.0 | 0.0 | 0.00 | 0.00 | 0.00 | 58 | 1003.4 |
| 20260904234654 | 97 | 174 | 4.0 | 0.0 | 0.00 | 0.00 | 0.00 | 57 | 1003.4 |
| 20260904234554 | 97 | 230 | 3.0 | 0.0 | 0.00 | 0.00 | 0.00 | 57 | 1003.4 |
| 20260904234505 | 97 | 156 | 3.0 | 0.0 | 0.00 | 0.00 | 0.00 | 57 | 1003.4 |
| 20260904234347 | 97 | 192 | 3.0 | 0.0 | 0.00 | 0.00 | 0.00 | 57 | 1003.4 |
| 20260904234243 | 97 | 155 | 3.0 | 0.0 | 0.00 | 0.00 | 0.00 | 57 | 1003.4 |
| 20260904234143 | 97 | 201 | 2.0 | 0.0 | 0.00 | 0.00 | 0.00 | 57 | 1003.4 |
| 20260904234055 | 97 | 271 | 2.0 | 0.0 | 0.00 | 0.00 | 0.00 | 56 | 1003.4 |
| 20260904233956 | 98 | 105 | 2.0 | 0.0 | 0.00 | 0.00 | 0.00 | 56 | 1003.4 |
| 20260904233839 | 98 | 105 | 2.0 | 0.0 | 0.00 | 0.00 | 0.00 | 56 | 1003.4 |
| 20260904233738 | 98 | 105 | 2.0 | 0.0 | 0.00 | 0.00 | 0.00 | 56 | 1003.4 |
| 20260904233704 | 98 | 105 | 2.0 | 0.0 | 0.00 | 0.00 | 0.00 | 56 | 1003.4 |
| 20260904233538 | 98 | 311 | 2.0 | 0.0 | 0.00 | 0.00 | 0.00 | 56 | 1003.3 |
| 20260904233502 | 98 | 196 | 2.0 | 0.0 | 0.00 | 0.00 | 0.00 | 56 | 1003.3 |
| 20260904233423 | 98 | 90 | 2.0 | 0.0 | 0.00 | 0.00 | 0.00 | 56 | 1003.3 |
| 20260904233253 | 98 | 209 | 2.0 | 0.0 | 0.00 | 0.00 | 0.00 | 56 | 1003.3 |
| 20260904233148 | 98 | 217 | 3.0 | 0.0 | 0.00 | 0.00 | 0.00 | 56 | 1003.3 |
| 20260904233054 | 98 | 35 | 3.0 | 0.0 | 0.00 | 0.00 | 0.00 | 55 | 1003.3 |
| 20260904232950 | 98 | 183 | 3.0 | 0.0 | 0.00 | 0.00 | 0.00 | 55 | 1003.3 |
| 20260904232842 | 98 | 59 | 3.0 | 0.0 | 0.00 | 0.00 | 0.00 | 55 | 1003.3 |
| 20260904232744 | 98 | 115 | 3.0 | 0.0 | 0.00 | 0.00 | 0.00 | 55 | 1003.3 |
| 20260904232700 | 98 | 226 | 3.0 | 0.0 | 0.00 | 0.00 | 0.00 | 55 | 1003.3 |
| 20260904232621 | 98 | 224 | 3.0 | 0.0 | 0.00 | 0.00 | 0.00 | 55 | 1003.3 |
| 20260904232522 | 98 | 253 | 4.0 | 0.0 | 0.00 | 0.00 | 0.00 | 55 | 1003.3 |
| 20260904232351 | 98 | 214 | 3.0 | 0.0 | 0.00 | 0.00 | 0.00 | 55 | 1003.3 |
| 20260904232252 | 98 | 98 | 3.0 | 0.0 | 0.00 | 0.00 | 0.00 | 55 | 1003.3 |
| 20260904232150 | 98 | 171 | 3.0 | 0.0 | 0.00 | 0.00 | 0.00 | 55 | 1003.3 |
| 20260904232042 | 98 | 244 | 3.0 | 0.0 | 0.00 | 0.00 | 0.00 | 55 | 1003.1 |
| 20260904231947 | 98 | 176 | 3.0 | 0.0 | 0.00 | 0.00 | 0.00 | 55 | 1003.1 |
| 20260904231901 | 98 | 234 | 3.0 | 0.0 | 0.00 | 0.00 | 0.00 | 55 | 1003.1 |
| 20260904231825 | 98 | 217 | 3.0 | 0.0 | 0.00 | 0.00 | 0.00 | 55 | 1003.1 |
| 20260904231703 | 98 | 171 | 3.0 | 0.0 | 0.00 | 0.00 | 0.00 | 54 | 1003.1 |
| 20260904231537 | 98 | 209 | 4.0 | 0.0 | 0.00 | 0.00 | 0.00 | 54 | 1003.1 |
| 20260904231454 | 98 | 146 | 4.0 | 0.0 | 0.00 | 0.00 | 0.00 | 54 | 1003.1 |
| 20260904231340 | 98 | 189 | 4.0 | 0.0 | 0.00 | 0.00 | 0.00 | 54 | 1003.1 |
| 20260904231251 | 98 | 160 | 5.0 | 0.0 | 0.00 | 0.00 | 0.00 | 54 | 1003.1 |
| 20260904231153 | 98 | 136 | 5.0 | 0.0 | 0.00 | 0.00 | 0.00 | 54 | 1003.1 |
| 20260904231043 | 98 | 196 | 5.0 | 0.0 | 0.00 | 0.00 | 0.00 | 54 | 1003.1 |
| 20260904230945 | 99 | 190 | 5.0 | 0.0 | 0.00 | 0.00 | 0.00 | 54 | 1003.1 |
| 20260904230842 | 99 | 221 | 5.0 | 0.0 | 0.00 | 0.00 | 0.00 | 54 | 1003.1 |
| 20260904230804 | 99 | 110 | 5.0 | 0.0 | 0.00 | 0.00 | 0.00 | 54 | 1003.1 |
| 20260904230656 | 99 | 179 | 5.0 | 0.0 | 0.00 | 0.00 | 0.00 | 53 | 1003.1 |
| 20260904230600 | 99 | 161 | 5.0 | 0.0 | 0.00 | 0.00 | 0.00 | 53 | 1003.1 |
| 20260904230458 | 99 | 179 | 5.0 | 0.0 | 0.00 | 0.00 | 0.00 | 54 | 1003.2 |
| 20260904230358 | 99 | 185 | 5.0 | 0.0 | 0.00 | 0.00 | 0.00 | 53 | 1003.2 |
| 20260904230310 | 99 | 180 | 5.0 | 0.0 | 0.00 | 0.00 | 0.00 | 53 | 1003.2 |
| 20260904230150 | 99 | 207 | 5.0 | 0.0 | 0.00 | 0.00 | 0.00 | 53 | 1003.2 |
| 20260904230043 | 99 | 194 | 5.0 | 0.0 | 0.00 | 0.00 | 0.00 | 53 | 1003.2 |
| 20260904230008 | 99 | 232 | 5.0 | 0.0 | 0.00 | 0.00 | 0.00 | 53 | 1003.2 |
| 20260904225920 | 99 | 173 | 5.0 | 0.0 | 0.00 | 0.00 | 0.00 | 52 | 1003.2 |
| 20260904225804 | 99 | 33 | 5.0 | 0.0 | 0.00 | 0.00 | 0.00 | 52 | 1003.2 |
| 20260904225636 | 100 | 148 | 4.0 | 0.0 | 0.00 | 0.00 | 0.00 | 51 | 1003.2 |
| 20260904225550 | 100 | 175 | 4.0 | 0.0 | 0.00 | 0.00 | 0.00 | 51 | 1003.2 |
| 20260904225453 | 100 | 185 | 4.0 | 0.0 | 0.00 | 0.00 | 0.00 | 51 | 1003.2 |
| 20260904225347 | 100 | 205 | 4.0 | 0.0 | 0.00 | 0.00 | 0.00 | 50 | 1003.2 |
| 20260904225242 | 100 | 144 | 4.0 | 0.0 | 0.00 | 0.00 | 0.00 | 50 | 1003.2 |
| 20260904225141 | 100 | 221 | 4.0 | 0.0 | 0.00 | 0.00 | 0.00 | 50 | 1003.2 |
| 20260904225044 | 100 | 180 | 4.0 | 0.0 | 0.00 | 0.00 | 0.00 | 49 | 1003.0 |
| 20260904224946 | 100 | 244 | 4.0 | 0.0 | 0.00 | 0.00 | 0.00 | 49 | 1003.0 |
| 20260904224839 | 100 | 194 | 4.0 | 0.0 | 0.00 | 0.00 | 0.00 | 49 | 1003.0 |
| 20260904224807 | 100 | 73 | 4.0 | 0.0 | 0.00 | 0.00 | 0.00 | 49 | 1003.0 |
| 20260904224720 | 100 | 165 | 4.0 | 0.0 | 0.00 | 0.00 | 0.00 | 48 | 1003.0 |
| 20260904224559 | 100 | 184 | 3.0 | 0.0 | 0.00 | 0.00 | 0.00 | 48 | 1003.0 |
| 20260904224452 | 100 | 157 | 3.0 | 0.0 | 0.00 | 0.00 | 0.00 | 48 | 1003.0 |
| 20260904224357 | 100 | 162 | 3.0 | 0.0 | 0.00 | 0.00 | 0.00 | 48 | 1003.0 |
| 20260904224313 | 101 | 128 | 3.0 | 0.0 | 0.00 | 0.00 | 0.00 | 47 | 1003.0 |
| 20260904224201 | 101 | 163 | 3.0 | 0.0 | 0.00 | 0.00 | 0.00 | 47 | 1003.0 |
| 20260904224125 | 101 | 178 | 2.0 | 0.0 | 0.00 | 0.00 | 0.00 | 46 | 1003.0 |
| 20260904223939 | 101 | 157 | 2.0 | 0.0 | 0.00 | 0.00 | 0.00 | 45 | 1003.0 |
| 20260904223854 | 101 | 286 | 2.0 | 0.0 | 0.00 | 0.00 | 0.00 | 45 | 1003.0 |
| 20260904223814 | 101 | 170 | 2.0 | 0.0 | 0.00 | 0.00 | 0.00 | 44 | 1003.0 |
| 20260904223644 | 101 | 194 | 2.0 | 0.0 | 0.00 | 0.00 | 0.00 | 44 | 1003.0 |
| 20260904223546 | 101 | 261 | 2.0 | 0.0 | 0.00 | 0.00 | 0.00 | 44 | 1003.1 |
| 20260904223501 | 101 | 203 | 2.0 | 0.0 | 0.00 | 0.00 | 0.00 | 44 | 1003.1 |
| 20260904223426 | 101 | 211 | 2.0 | 0.0 | 0.00 | 0.00 | 0.00 | 44 | 1003.1 |
| 20260904223305 | 101 | 123 | 2.0 | 0.0 | 0.00 | 0.00 | 0.00 | 44 | 1003.1 |
| 20260904223157 | 101 | 195 | 3.0 | 0.0 | 0.00 | 0.00 | 0.00 | 44 | 1003.1 |
| 20260904223048 | 101 | 219 | 3.0 | 0.0 | 0.00 | 0.00 | 0.00 | 44 | 1003.1 |
| 20260904222953 | 101 | 171 | 3.0 | 0.0 | 0.00 | 0.00 | 0.00 | 44 | 1003.1 |
| 20260904222848 | 101 | 166 | 3.0 | 0.0 | 0.00 | 0.00 | 0.00 | 44 | 1003.1 |